<?xml version="1.0" encoding="UTF-8" standalone="no" ?>
<gpx xmlns="http://www.topografix.com/GPX/1/1" xmlns:xsi="http://www.w3.org/2001/XMLSchema-instance" xsi:schemaLocation="http://www.topografix.com/GPX/1/1 http://www.topografix.com/GPX/1/1/gpx.xsd" version="1.1" creator="VisuGPX - https://www.visugpx.com">
  <metadata>
    <name>VTT Le Forest Lacour (04) /Esparron/ Clapouse</name>
    <desc><![CDATA[Très beau circuit par petite route , piste , sentier , prairie alpine avec la très belle forêt de la Laupie, le Cirque de Clapouse au pied des Monges, retours par la superbe forêt de hêtres  dont certains remarquables et l\'adorable  Lac des Monges
On peut gagner env. 10 km  de route et 400 m de dénivelé en montant en voiture jusqu\'à Esparron Le Pont où on prend directement la piste indiquant \"le lac\" puis la piste de la Laupie à gauche après la barrière d\'hiver. Le retours par piste de la Sapie permet un circuit complet mais ce jour elle était interdite pour cause de bucherons !!!]]></desc>
  </metadata>
  <wpt lat="44.2792" lon="6.2081">
    <ele>1661.9765625</ele>
    <name><![CDATA[233]]></name>
  </wpt>
  <wpt lat="44.27687" lon="6.20918">
    <ele>1655.1914063</ele>
    <name><![CDATA[234]]></name>
  </wpt>
  <trk>
    <name><![CDATA[Le Forest/La Laupie/Clapouse]]></name>
    <trkseg>
      <trkpt lat="44.33058" lon="6.13223">
        <ele>730.7392578</ele>
        <time>2012-08-07T07:30:04Z</time>
      </trkpt>
      <trkpt lat="44.33066" lon="6.13246">
        <ele>730.7392578</ele>
        <time>2012-08-07T07:31:11Z</time>
      </trkpt>
      <trkpt lat="44.33074" lon="6.13248">
        <ele>731.2199707</ele>
        <time>2012-08-07T07:31:38Z</time>
      </trkpt>
      <trkpt lat="44.33076" lon="6.13247">
        <ele>732.6621094</ele>
        <time>2012-08-07T07:31:50Z</time>
      </trkpt>
      <trkpt lat="44.33076" lon="6.13247">
        <ele>737.4685059</ele>
        <time>2012-08-07T07:31:52Z</time>
      </trkpt>
      <trkpt lat="44.33077" lon="6.13247">
        <ele>740.8330078</ele>
        <time>2012-08-07T07:31:53Z</time>
      </trkpt>
      <trkpt lat="44.33077" lon="6.13248">
        <ele>745.1589355</ele>
        <time>2012-08-07T07:31:55Z</time>
      </trkpt>
      <trkpt lat="44.33077" lon="6.13249">
        <ele>749.0043945</ele>
        <time>2012-08-07T07:31:57Z</time>
      </trkpt>
      <trkpt lat="44.33077" lon="6.13249">
        <ele>753.3303223</ele>
        <time>2012-08-07T07:31:59Z</time>
      </trkpt>
      <trkpt lat="44.33077" lon="6.13249">
        <ele>756.6948242</ele>
        <time>2012-08-07T07:32:01Z</time>
      </trkpt>
      <trkpt lat="44.33077" lon="6.13249">
        <ele>761.020752</ele>
        <time>2012-08-07T07:32:03Z</time>
      </trkpt>
      <trkpt lat="44.33077" lon="6.13249">
        <ele>764.385498</ele>
        <time>2012-08-07T07:32:05Z</time>
      </trkpt>
      <trkpt lat="44.33077" lon="6.13248">
        <ele>767.75</ele>
        <time>2012-08-07T07:32:07Z</time>
      </trkpt>
      <trkpt lat="44.33076" lon="6.13248">
        <ele>772.0759277</ele>
        <time>2012-08-07T07:32:10Z</time>
      </trkpt>
      <trkpt lat="44.33076" lon="6.13248">
        <ele>775.4404297</ele>
        <time>2012-08-07T07:32:13Z</time>
      </trkpt>
      <trkpt lat="44.33077" lon="6.1325">
        <ele>779.2856445</ele>
        <time>2012-08-07T07:32:17Z</time>
      </trkpt>
      <trkpt lat="44.33076" lon="6.13251">
        <ele>781.2087402</ele>
        <time>2012-08-07T07:32:20Z</time>
      </trkpt>
      <trkpt lat="44.33076" lon="6.13251">
        <ele>779.7663574</ele>
        <time>2012-08-07T07:32:23Z</time>
      </trkpt>
      <trkpt lat="44.33076" lon="6.1325">
        <ele>782.1699219</ele>
        <time>2012-08-07T07:32:26Z</time>
      </trkpt>
      <trkpt lat="44.33074" lon="6.13249">
        <ele>785.5344238</ele>
        <time>2012-08-07T07:32:39Z</time>
      </trkpt>
      <trkpt lat="44.33074" lon="6.13249">
        <ele>788.8991699</ele>
        <time>2012-08-07T07:32:43Z</time>
      </trkpt>
      <trkpt lat="44.33074" lon="6.13249">
        <ele>788.8991699</ele>
        <time>2012-08-07T07:32:44Z</time>
      </trkpt>
      <trkpt lat="44.33074" lon="6.13247">
        <ele>792.7443848</ele>
        <time>2012-08-07T07:32:51Z</time>
      </trkpt>
      <trkpt lat="44.33074" lon="6.13248">
        <ele>796.1091309</ele>
        <time>2012-08-07T07:33:03Z</time>
      </trkpt>
      <trkpt lat="44.33077" lon="6.13249">
        <ele>800.4350586</ele>
        <time>2012-08-07T07:33:19Z</time>
      </trkpt>
      <trkpt lat="44.33077" lon="6.1325">
        <ele>800.9155273</ele>
        <time>2012-08-07T07:33:20Z</time>
      </trkpt>
      <trkpt lat="44.33078" lon="6.13251">
        <ele>802.3574219</ele>
        <time>2012-08-07T07:33:23Z</time>
      </trkpt>
      <trkpt lat="44.33076" lon="6.13254">
        <ele>803.3188477</ele>
        <time>2012-08-07T07:33:35Z</time>
      </trkpt>
      <trkpt lat="44.33078" lon="6.13255">
        <ele>804.2802734</ele>
        <time>2012-08-07T07:33:41Z</time>
      </trkpt>
      <trkpt lat="44.33078" lon="6.13255">
        <ele>805.2414551</ele>
        <time>2012-08-07T07:33:50Z</time>
      </trkpt>
      <trkpt lat="44.33079" lon="6.13254">
        <ele>807.1640625</ele>
        <time>2012-08-07T07:34:08Z</time>
      </trkpt>
      <trkpt lat="44.33079" lon="6.13254">
        <ele>804.7607422</ele>
        <time>2012-08-07T07:34:23Z</time>
      </trkpt>
      <trkpt lat="44.33081" lon="6.13252">
        <ele>805.722168</ele>
        <time>2012-08-07T07:34:47Z</time>
      </trkpt>
      <trkpt lat="44.33082" lon="6.13249">
        <ele>806.2026367</ele>
        <time>2012-08-07T07:35:02Z</time>
      </trkpt>
      <trkpt lat="44.33081" lon="6.13249">
        <ele>805.2414551</ele>
        <time>2012-08-07T07:35:05Z</time>
      </trkpt>
      <trkpt lat="44.33083" lon="6.13253">
        <ele>808.1254883</ele>
        <time>2012-08-07T07:35:14Z</time>
      </trkpt>
      <trkpt lat="44.33083" lon="6.13253">
        <ele>806.6833496</ele>
        <time>2012-08-07T07:35:16Z</time>
      </trkpt>
      <trkpt lat="44.33083" lon="6.13253">
        <ele>806.2026367</ele>
        <time>2012-08-07T07:35:23Z</time>
      </trkpt>
      <trkpt lat="44.33083" lon="6.13253">
        <ele>807.6447754</ele>
        <time>2012-08-07T07:35:25Z</time>
      </trkpt>
      <trkpt lat="44.33084" lon="6.13251">
        <ele>808.605957</ele>
        <time>2012-08-07T07:35:44Z</time>
      </trkpt>
      <trkpt lat="44.33083" lon="6.13251">
        <ele>806.6833496</ele>
        <time>2012-08-07T07:35:46Z</time>
      </trkpt>
      <trkpt lat="44.33085" lon="6.13251">
        <ele>808.1254883</ele>
        <time>2012-08-07T07:35:58Z</time>
      </trkpt>
      <trkpt lat="44.33086" lon="6.13251">
        <ele>807.1640625</ele>
        <time>2012-08-07T07:36:10Z</time>
      </trkpt>
      <trkpt lat="44.33085" lon="6.13244">
        <ele>807.1640625</ele>
        <time>2012-08-07T07:36:18Z</time>
      </trkpt>
      <trkpt lat="44.3308" lon="6.1323">
        <ele>807.1640625</ele>
        <time>2012-08-07T07:36:24Z</time>
      </trkpt>
      <trkpt lat="44.33077" lon="6.13219">
        <ele>806.6833496</ele>
        <time>2012-08-07T07:36:28Z</time>
      </trkpt>
      <trkpt lat="44.33056" lon="6.13184">
        <ele>805.2414551</ele>
        <time>2012-08-07T07:36:41Z</time>
      </trkpt>
      <trkpt lat="44.33053" lon="6.13182">
        <ele>805.2414551</ele>
        <time>2012-08-07T07:36:42Z</time>
      </trkpt>
      <trkpt lat="44.33007" lon="6.13146">
        <ele>804.2802734</ele>
        <time>2012-08-07T07:36:54Z</time>
      </trkpt>
      <trkpt lat="44.32988" lon="6.13128">
        <ele>803.3188477</ele>
        <time>2012-08-07T07:36:59Z</time>
      </trkpt>
      <trkpt lat="44.3298" lon="6.13122">
        <ele>802.8381348</ele>
        <time>2012-08-07T07:37:01Z</time>
      </trkpt>
      <trkpt lat="44.32944" lon="6.13093">
        <ele>800.4350586</ele>
        <time>2012-08-07T07:37:11Z</time>
      </trkpt>
      <trkpt lat="44.32935" lon="6.13117">
        <ele>798.9929199</ele>
        <time>2012-08-07T07:37:16Z</time>
      </trkpt>
      <trkpt lat="44.32939" lon="6.13154">
        <ele>796.1091309</ele>
        <time>2012-08-07T07:37:21Z</time>
      </trkpt>
      <trkpt lat="44.32943" lon="6.13191">
        <ele>792.7443848</ele>
        <time>2012-08-07T07:37:25Z</time>
      </trkpt>
      <trkpt lat="44.32944" lon="6.13201">
        <ele>792.7443848</ele>
        <time>2012-08-07T07:37:26Z</time>
      </trkpt>
      <trkpt lat="44.32955" lon="6.13258">
        <ele>793.2248535</ele>
        <time>2012-08-07T07:37:32Z</time>
      </trkpt>
      <trkpt lat="44.32961" lon="6.1328">
        <ele>793.2248535</ele>
        <time>2012-08-07T07:37:35Z</time>
      </trkpt>
      <trkpt lat="44.32969" lon="6.13301">
        <ele>796.1091309</ele>
        <time>2012-08-07T07:37:39Z</time>
      </trkpt>
      <trkpt lat="44.3297" lon="6.13304">
        <ele>796.1091309</ele>
        <time>2012-08-07T07:37:40Z</time>
      </trkpt>
      <trkpt lat="44.32984" lon="6.13345">
        <ele>796.1091309</ele>
        <time>2012-08-07T07:37:54Z</time>
      </trkpt>
      <trkpt lat="44.32988" lon="6.13407">
        <ele>796.1091309</ele>
        <time>2012-08-07T07:38:09Z</time>
      </trkpt>
      <trkpt lat="44.32974" lon="6.13445">
        <ele>798.512207</ele>
        <time>2012-08-07T07:38:24Z</time>
      </trkpt>
      <trkpt lat="44.32972" lon="6.13448">
        <ele>798.512207</ele>
        <time>2012-08-07T07:38:26Z</time>
      </trkpt>
      <trkpt lat="44.32961" lon="6.13457">
        <ele>798.0317383</ele>
        <time>2012-08-07T07:38:33Z</time>
      </trkpt>
      <trkpt lat="44.32952" lon="6.13464">
        <ele>797.5510254</ele>
        <time>2012-08-07T07:38:38Z</time>
      </trkpt>
      <trkpt lat="44.32918" lon="6.13497">
        <ele>796.5898438</ele>
        <time>2012-08-07T07:38:52Z</time>
      </trkpt>
      <trkpt lat="44.32906" lon="6.13511">
        <ele>798.512207</ele>
        <time>2012-08-07T07:38:57Z</time>
      </trkpt>
      <trkpt lat="44.32895" lon="6.13522">
        <ele>798.512207</ele>
        <time>2012-08-07T07:39:05Z</time>
      </trkpt>
      <trkpt lat="44.32885" lon="6.13535">
        <ele>801.8769531</ele>
        <time>2012-08-07T07:39:15Z</time>
      </trkpt>
      <trkpt lat="44.32884" lon="6.13537">
        <ele>799.9543457</ele>
        <time>2012-08-07T07:39:16Z</time>
      </trkpt>
      <trkpt lat="44.3288" lon="6.13542">
        <ele>800.4350586</ele>
        <time>2012-08-07T07:39:20Z</time>
      </trkpt>
      <trkpt lat="44.32868" lon="6.13559">
        <ele>803.3188477</ele>
        <time>2012-08-07T07:39:39Z</time>
      </trkpt>
      <trkpt lat="44.32868" lon="6.13559">
        <ele>804.2802734</ele>
        <time>2012-08-07T07:39:46Z</time>
      </trkpt>
      <trkpt lat="44.32868" lon="6.13559">
        <ele>807.1640625</ele>
        <time>2012-08-07T07:40:04Z</time>
      </trkpt>
      <trkpt lat="44.32868" lon="6.13559">
        <ele>810.0478516</ele>
        <time>2012-08-07T07:40:21Z</time>
      </trkpt>
      <trkpt lat="44.3283" lon="6.13629">
        <ele>810.5285645</ele>
        <time>2012-08-07T07:40:31Z</time>
      </trkpt>
      <trkpt lat="44.32817" lon="6.13649">
        <ele>811.9707031</ele>
        <time>2012-08-07T07:40:49Z</time>
      </trkpt>
      <trkpt lat="44.32804" lon="6.13668">
        <ele>814.8547363</ele>
        <time>2012-08-07T07:41:09Z</time>
      </trkpt>
      <trkpt lat="44.3278" lon="6.13695">
        <ele>816.7773438</ele>
        <time>2012-08-07T07:41:31Z</time>
      </trkpt>
      <trkpt lat="44.32769" lon="6.13702">
        <ele>819.1806641</ele>
        <time>2012-08-07T07:41:45Z</time>
      </trkpt>
      <trkpt lat="44.32751" lon="6.13713">
        <ele>820.6225586</ele>
        <time>2012-08-07T07:42:00Z</time>
      </trkpt>
      <trkpt lat="44.32751" lon="6.13713">
        <ele>822.0644531</ele>
        <time>2012-08-07T07:42:15Z</time>
      </trkpt>
      <trkpt lat="44.32734" lon="6.13721">
        <ele>822.545166</ele>
        <time>2012-08-07T07:42:20Z</time>
      </trkpt>
      <trkpt lat="44.32726" lon="6.13726">
        <ele>823.5065918</ele>
        <time>2012-08-07T07:42:25Z</time>
      </trkpt>
      <trkpt lat="44.32723" lon="6.13728">
        <ele>824.4677734</ele>
        <time>2012-08-07T07:42:36Z</time>
      </trkpt>
      <trkpt lat="44.32714" lon="6.13735">
        <ele>824.4677734</ele>
        <time>2012-08-07T07:42:40Z</time>
      </trkpt>
      <trkpt lat="44.32714" lon="6.13735">
        <ele>825.4289551</ele>
        <time>2012-08-07T07:42:42Z</time>
      </trkpt>
      <trkpt lat="44.32714" lon="6.13735">
        <ele>825.4289551</ele>
        <time>2012-08-07T07:42:49Z</time>
      </trkpt>
      <trkpt lat="44.32699" lon="6.1375">
        <ele>827.3518066</ele>
        <time>2012-08-07T07:43:02Z</time>
      </trkpt>
      <trkpt lat="44.32689" lon="6.13788">
        <ele>829.755127</ele>
        <time>2012-08-07T07:43:21Z</time>
      </trkpt>
      <trkpt lat="44.32689" lon="6.13817">
        <ele>831.6777344</ele>
        <time>2012-08-07T07:43:41Z</time>
      </trkpt>
      <trkpt lat="44.32689" lon="6.13817">
        <ele>833.1196289</ele>
        <time>2012-08-07T07:43:49Z</time>
      </trkpt>
      <trkpt lat="44.32689" lon="6.13817">
        <ele>833.6003418</ele>
        <time>2012-08-07T07:43:54Z</time>
      </trkpt>
      <trkpt lat="44.32688" lon="6.13843">
        <ele>834.0810547</ele>
        <time>2012-08-07T07:43:58Z</time>
      </trkpt>
      <trkpt lat="44.32688" lon="6.13843">
        <ele>835.0424805</ele>
        <time>2012-08-07T07:44:03Z</time>
      </trkpt>
      <trkpt lat="44.32688" lon="6.13843">
        <ele>835.0424805</ele>
        <time>2012-08-07T07:44:05Z</time>
      </trkpt>
      <trkpt lat="44.32686" lon="6.13858">
        <ele>836.484375</ele>
        <time>2012-08-07T07:44:14Z</time>
      </trkpt>
      <trkpt lat="44.32686" lon="6.13858">
        <ele>836.9648438</ele>
        <time>2012-08-07T07:44:19Z</time>
      </trkpt>
      <trkpt lat="44.32688" lon="6.13886">
        <ele>838.8876953</ele>
        <time>2012-08-07T07:44:29Z</time>
      </trkpt>
      <trkpt lat="44.32699" lon="6.13912">
        <ele>840.3295898</ele>
        <time>2012-08-07T07:44:47Z</time>
      </trkpt>
      <trkpt lat="44.327" lon="6.13915">
        <ele>841.7714844</ele>
        <time>2012-08-07T07:45:03Z</time>
      </trkpt>
      <trkpt lat="44.327" lon="6.13915">
        <ele>842.2521973</ele>
        <time>2012-08-07T07:45:07Z</time>
      </trkpt>
      <trkpt lat="44.32697" lon="6.13947">
        <ele>842.7329102</ele>
        <time>2012-08-07T07:45:10Z</time>
      </trkpt>
      <trkpt lat="44.32697" lon="6.13947">
        <ele>843.6940918</ele>
        <time>2012-08-07T07:45:17Z</time>
      </trkpt>
      <trkpt lat="44.32697" lon="6.13947">
        <ele>844.6555176</ele>
        <time>2012-08-07T07:45:21Z</time>
      </trkpt>
      <trkpt lat="44.3269" lon="6.13972">
        <ele>846.0976563</ele>
        <time>2012-08-07T07:45:35Z</time>
      </trkpt>
      <trkpt lat="44.3269" lon="6.13972">
        <ele>846.0976563</ele>
        <time>2012-08-07T07:45:37Z</time>
      </trkpt>
      <trkpt lat="44.32666" lon="6.13988">
        <ele>848.5007324</ele>
        <time>2012-08-07T07:45:52Z</time>
      </trkpt>
      <trkpt lat="44.32657" lon="6.13983">
        <ele>849.9428711</ele>
        <time>2012-08-07T07:46:05Z</time>
      </trkpt>
      <trkpt lat="44.32636" lon="6.13968">
        <ele>851.3847656</ele>
        <time>2012-08-07T07:46:22Z</time>
      </trkpt>
      <trkpt lat="44.32613" lon="6.13951">
        <ele>853.307373</ele>
        <time>2012-08-07T07:46:43Z</time>
      </trkpt>
      <trkpt lat="44.32611" lon="6.13949">
        <ele>854.2687988</ele>
        <time>2012-08-07T07:47:00Z</time>
      </trkpt>
      <trkpt lat="44.32588" lon="6.13932">
        <ele>855.7106934</ele>
        <time>2012-08-07T07:47:13Z</time>
      </trkpt>
      <trkpt lat="44.32578" lon="6.13924">
        <ele>857.1525879</ele>
        <time>2012-08-07T07:47:25Z</time>
      </trkpt>
      <trkpt lat="44.32573" lon="6.13922">
        <ele>858.1140137</ele>
        <time>2012-08-07T07:47:31Z</time>
      </trkpt>
      <trkpt lat="44.32573" lon="6.13922">
        <ele>857.6333008</ele>
        <time>2012-08-07T07:47:35Z</time>
      </trkpt>
      <trkpt lat="44.32555" lon="6.13925">
        <ele>859.0751953</ele>
        <time>2012-08-07T07:47:40Z</time>
      </trkpt>
      <trkpt lat="44.32549" lon="6.13929">
        <ele>858.5944824</ele>
        <time>2012-08-07T07:47:44Z</time>
      </trkpt>
      <trkpt lat="44.32546" lon="6.13931">
        <ele>860.0366211</ele>
        <time>2012-08-07T07:47:48Z</time>
      </trkpt>
      <trkpt lat="44.32539" lon="6.13936">
        <ele>860.9980469</ele>
        <time>2012-08-07T07:48:00Z</time>
      </trkpt>
      <trkpt lat="44.32524" lon="6.13935">
        <ele>861.9594727</ele>
        <time>2012-08-07T07:48:14Z</time>
      </trkpt>
      <trkpt lat="44.32524" lon="6.13935">
        <ele>862.9206543</ele>
        <time>2012-08-07T07:48:23Z</time>
      </trkpt>
      <trkpt lat="44.32505" lon="6.1391">
        <ele>864.3625488</ele>
        <time>2012-08-07T07:48:34Z</time>
      </trkpt>
      <trkpt lat="44.32505" lon="6.1391">
        <ele>864.8432617</ele>
        <time>2012-08-07T07:48:37Z</time>
      </trkpt>
      <trkpt lat="44.325" lon="6.13904">
        <ele>865.8046875</ele>
        <time>2012-08-07T07:48:46Z</time>
      </trkpt>
      <trkpt lat="44.32479" lon="6.13887">
        <ele>866.7658691</ele>
        <time>2012-08-07T07:48:56Z</time>
      </trkpt>
      <trkpt lat="44.32479" lon="6.13887">
        <ele>867.246582</ele>
        <time>2012-08-07T07:49:01Z</time>
      </trkpt>
      <trkpt lat="44.32479" lon="6.13887">
        <ele>867.7270508</ele>
        <time>2012-08-07T07:49:05Z</time>
      </trkpt>
      <trkpt lat="44.32483" lon="6.13889">
        <ele>868.2077637</ele>
        <time>2012-08-07T07:49:11Z</time>
      </trkpt>
      <trkpt lat="44.32475" lon="6.13905">
        <ele>868.6884766</ele>
        <time>2012-08-07T07:49:16Z</time>
      </trkpt>
      <trkpt lat="44.32465" lon="6.13911">
        <ele>870.1303711</ele>
        <time>2012-08-07T07:49:27Z</time>
      </trkpt>
      <trkpt lat="44.32458" lon="6.13904">
        <ele>871.0917969</ele>
        <time>2012-08-07T07:49:33Z</time>
      </trkpt>
      <trkpt lat="44.32452" lon="6.13897">
        <ele>871.5722656</ele>
        <time>2012-08-07T07:49:37Z</time>
      </trkpt>
      <trkpt lat="44.32444" lon="6.13894">
        <ele>873.0144043</ele>
        <time>2012-08-07T07:49:49Z</time>
      </trkpt>
      <trkpt lat="44.32445" lon="6.13893">
        <ele>873.0144043</ele>
        <time>2012-08-07T07:49:50Z</time>
      </trkpt>
      <trkpt lat="44.32441" lon="6.13888">
        <ele>874.9370117</ele>
        <time>2012-08-07T07:50:04Z</time>
      </trkpt>
      <trkpt lat="44.32436" lon="6.13876">
        <ele>877.8210449</ele>
        <time>2012-08-07T07:50:25Z</time>
      </trkpt>
      <trkpt lat="44.32438" lon="6.13873">
        <ele>877.8210449</ele>
        <time>2012-08-07T07:50:28Z</time>
      </trkpt>
      <trkpt lat="44.32422" lon="6.13871">
        <ele>879.2629395</ele>
        <time>2012-08-07T07:50:39Z</time>
      </trkpt>
      <trkpt lat="44.32418" lon="6.1387">
        <ele>880.2243652</ele>
        <time>2012-08-07T07:50:45Z</time>
      </trkpt>
      <trkpt lat="44.32412" lon="6.13869">
        <ele>880.7050781</ele>
        <time>2012-08-07T07:50:49Z</time>
      </trkpt>
      <trkpt lat="44.32401" lon="6.13867">
        <ele>882.6276855</ele>
        <time>2012-08-07T07:51:01Z</time>
      </trkpt>
      <trkpt lat="44.324" lon="6.13867">
        <ele>882.1469727</ele>
        <time>2012-08-07T07:51:02Z</time>
      </trkpt>
      <trkpt lat="44.3239" lon="6.1386">
        <ele>882.6276855</ele>
        <time>2012-08-07T07:51:12Z</time>
      </trkpt>
      <trkpt lat="44.32388" lon="6.13849">
        <ele>884.0695801</ele>
        <time>2012-08-07T07:51:21Z</time>
      </trkpt>
      <trkpt lat="44.32385" lon="6.13842">
        <ele>884.550293</ele>
        <time>2012-08-07T07:51:26Z</time>
      </trkpt>
      <trkpt lat="44.32384" lon="6.13835">
        <ele>885.0310059</ele>
        <time>2012-08-07T07:51:31Z</time>
      </trkpt>
      <trkpt lat="44.32373" lon="6.13823">
        <ele>886.9533691</ele>
        <time>2012-08-07T07:51:44Z</time>
      </trkpt>
      <trkpt lat="44.32362" lon="6.13823">
        <ele>887.9147949</ele>
        <time>2012-08-07T07:51:55Z</time>
      </trkpt>
      <trkpt lat="44.3236" lon="6.13824">
        <ele>887.9147949</ele>
        <time>2012-08-07T07:51:57Z</time>
      </trkpt>
      <trkpt lat="44.32351" lon="6.13824">
        <ele>888.3955078</ele>
        <time>2012-08-07T07:52:10Z</time>
      </trkpt>
      <trkpt lat="44.3234" lon="6.13816">
        <ele>890.3181152</ele>
        <time>2012-08-07T07:52:33Z</time>
      </trkpt>
      <trkpt lat="44.3234" lon="6.13816">
        <ele>889.3566895</ele>
        <time>2012-08-07T07:52:40Z</time>
      </trkpt>
      <trkpt lat="44.32339" lon="6.13816">
        <ele>889.3566895</ele>
        <time>2012-08-07T07:52:52Z</time>
      </trkpt>
      <trkpt lat="44.32339" lon="6.13815">
        <ele>888.8762207</ele>
        <time>2012-08-07T07:53:17Z</time>
      </trkpt>
      <trkpt lat="44.32343" lon="6.13814">
        <ele>891.2792969</ele>
        <time>2012-08-07T07:53:38Z</time>
      </trkpt>
      <trkpt lat="44.32338" lon="6.13809">
        <ele>890.798584</ele>
        <time>2012-08-07T07:53:48Z</time>
      </trkpt>
      <trkpt lat="44.3233" lon="6.13809">
        <ele>890.798584</ele>
        <time>2012-08-07T07:53:55Z</time>
      </trkpt>
      <trkpt lat="44.32321" lon="6.13808">
        <ele>892.7216797</ele>
        <time>2012-08-07T07:53:59Z</time>
      </trkpt>
      <trkpt lat="44.3231" lon="6.13807">
        <ele>894.1635742</ele>
        <time>2012-08-07T07:54:06Z</time>
      </trkpt>
      <trkpt lat="44.32276" lon="6.1381">
        <ele>894.644043</ele>
        <time>2012-08-07T07:54:18Z</time>
      </trkpt>
      <trkpt lat="44.32241" lon="6.13829">
        <ele>897.0473633</ele>
        <time>2012-08-07T07:54:31Z</time>
      </trkpt>
      <trkpt lat="44.32228" lon="6.13833">
        <ele>898.4892578</ele>
        <time>2012-08-07T07:54:44Z</time>
      </trkpt>
      <trkpt lat="44.32208" lon="6.13831">
        <ele>899.9313965</ele>
        <time>2012-08-07T07:54:55Z</time>
      </trkpt>
      <trkpt lat="44.32197" lon="6.13828">
        <ele>900.8925781</ele>
        <time>2012-08-07T07:54:59Z</time>
      </trkpt>
      <trkpt lat="44.32195" lon="6.13827">
        <ele>900.8925781</ele>
        <time>2012-08-07T07:55:00Z</time>
      </trkpt>
      <trkpt lat="44.32186" lon="6.13826">
        <ele>901.373291</ele>
        <time>2012-08-07T07:55:04Z</time>
      </trkpt>
      <trkpt lat="44.32185" lon="6.1383">
        <ele>901.8540039</ele>
        <time>2012-08-07T07:55:08Z</time>
      </trkpt>
      <trkpt lat="44.32166" lon="6.13833">
        <ele>904.2573242</ele>
        <time>2012-08-07T07:55:22Z</time>
      </trkpt>
      <trkpt lat="44.32165" lon="6.13834">
        <ele>904.737793</ele>
        <time>2012-08-07T07:55:23Z</time>
      </trkpt>
      <trkpt lat="44.3216" lon="6.13834">
        <ele>905.6992188</ele>
        <time>2012-08-07T07:55:26Z</time>
      </trkpt>
      <trkpt lat="44.32155" lon="6.13837">
        <ele>906.1796875</ele>
        <time>2012-08-07T07:55:31Z</time>
      </trkpt>
      <trkpt lat="44.32144" lon="6.13834">
        <ele>907.1411133</ele>
        <time>2012-08-07T07:55:39Z</time>
      </trkpt>
      <trkpt lat="44.32131" lon="6.13843">
        <ele>909.5446777</ele>
        <time>2012-08-07T07:55:54Z</time>
      </trkpt>
      <trkpt lat="44.32126" lon="6.13853">
        <ele>910.5058594</ele>
        <time>2012-08-07T07:56:03Z</time>
      </trkpt>
      <trkpt lat="44.32114" lon="6.13868">
        <ele>912.4284668</ele>
        <time>2012-08-07T07:56:18Z</time>
      </trkpt>
      <trkpt lat="44.32112" lon="6.13869">
        <ele>913.3898926</ele>
        <time>2012-08-07T07:56:24Z</time>
      </trkpt>
      <trkpt lat="44.32122" lon="6.13897">
        <ele>915.7932129</ele>
        <time>2012-08-07T07:56:39Z</time>
      </trkpt>
      <trkpt lat="44.32139" lon="6.13931">
        <ele>917.7155762</ele>
        <time>2012-08-07T07:56:53Z</time>
      </trkpt>
      <trkpt lat="44.32127" lon="6.13935">
        <ele>919.6384277</ele>
        <time>2012-08-07T07:57:05Z</time>
      </trkpt>
      <trkpt lat="44.32128" lon="6.13948">
        <ele>920.5996094</ele>
        <time>2012-08-07T07:57:13Z</time>
      </trkpt>
      <trkpt lat="44.32125" lon="6.13973">
        <ele>923.4836426</ele>
        <time>2012-08-07T07:57:31Z</time>
      </trkpt>
      <trkpt lat="44.32118" lon="6.13994">
        <ele>925.8869629</ele>
        <time>2012-08-07T07:57:48Z</time>
      </trkpt>
      <trkpt lat="44.32116" lon="6.14011">
        <ele>928.2902832</ele>
        <time>2012-08-07T07:58:03Z</time>
      </trkpt>
      <trkpt lat="44.32119" lon="6.14027">
        <ele>930.2128906</ele>
        <time>2012-08-07T07:58:14Z</time>
      </trkpt>
      <trkpt lat="44.32109" lon="6.14054">
        <ele>933.5773926</ele>
        <time>2012-08-07T07:58:34Z</time>
      </trkpt>
      <trkpt lat="44.32106" lon="6.14062">
        <ele>934.0581055</ele>
        <time>2012-08-07T07:58:41Z</time>
      </trkpt>
      <trkpt lat="44.32101" lon="6.14083">
        <ele>938.3840332</ele>
        <time>2012-08-07T07:58:59Z</time>
      </trkpt>
      <trkpt lat="44.32094" lon="6.14109">
        <ele>941.2680664</ele>
        <time>2012-08-07T07:59:18Z</time>
      </trkpt>
      <trkpt lat="44.32093" lon="6.14118">
        <ele>942.2294922</ele>
        <time>2012-08-07T07:59:26Z</time>
      </trkpt>
      <trkpt lat="44.32091" lon="6.14148">
        <ele>943.6713867</ele>
        <time>2012-08-07T07:59:39Z</time>
      </trkpt>
      <trkpt lat="44.32092" lon="6.14158">
        <ele>943.6713867</ele>
        <time>2012-08-07T07:59:45Z</time>
      </trkpt>
      <trkpt lat="44.32092" lon="6.14184">
        <ele>945.5939941</ele>
        <time>2012-08-07T07:59:58Z</time>
      </trkpt>
      <trkpt lat="44.32079" lon="6.14177">
        <ele>946.074707</ele>
        <time>2012-08-07T08:00:03Z</time>
      </trkpt>
      <trkpt lat="44.32044" lon="6.14173">
        <ele>947.9973145</ele>
        <time>2012-08-07T08:00:20Z</time>
      </trkpt>
      <trkpt lat="44.32008" lon="6.14167">
        <ele>949.439209</ele>
        <time>2012-08-07T08:00:35Z</time>
      </trkpt>
      <trkpt lat="44.31981" lon="6.14163">
        <ele>950.4006348</ele>
        <time>2012-08-07T08:00:47Z</time>
      </trkpt>
      <trkpt lat="44.31981" lon="6.1417">
        <ele>950.8811035</ele>
        <time>2012-08-07T08:00:51Z</time>
      </trkpt>
      <trkpt lat="44.31992" lon="6.14204">
        <ele>952.8037109</ele>
        <time>2012-08-07T08:01:07Z</time>
      </trkpt>
      <trkpt lat="44.3199" lon="6.1421">
        <ele>953.2844238</ele>
        <time>2012-08-07T08:01:12Z</time>
      </trkpt>
      <trkpt lat="44.31989" lon="6.14235">
        <ele>955.6877441</ele>
        <time>2012-08-07T08:01:31Z</time>
      </trkpt>
      <trkpt lat="44.31983" lon="6.14243">
        <ele>956.6491699</ele>
        <time>2012-08-07T08:01:39Z</time>
      </trkpt>
      <trkpt lat="44.31971" lon="6.1427">
        <ele>959.0524902</ele>
        <time>2012-08-07T08:02:00Z</time>
      </trkpt>
      <trkpt lat="44.31966" lon="6.14289">
        <ele>960.0136719</ele>
        <time>2012-08-07T08:02:11Z</time>
      </trkpt>
      <trkpt lat="44.31952" lon="6.14294">
        <ele>960.4943848</ele>
        <time>2012-08-07T08:02:20Z</time>
      </trkpt>
      <trkpt lat="44.31945" lon="6.14308">
        <ele>962.4169922</ele>
        <time>2012-08-07T08:02:35Z</time>
      </trkpt>
      <trkpt lat="44.31937" lon="6.14328">
        <ele>963.8588867</ele>
        <time>2012-08-07T08:02:53Z</time>
      </trkpt>
      <trkpt lat="44.31931" lon="6.14336">
        <ele>966.7429199</ele>
        <time>2012-08-07T08:03:01Z</time>
      </trkpt>
      <trkpt lat="44.31928" lon="6.14341">
        <ele>964.8203125</ele>
        <time>2012-08-07T08:03:03Z</time>
      </trkpt>
      <trkpt lat="44.31928" lon="6.14342">
        <ele>963.8588867</ele>
        <time>2012-08-07T08:03:04Z</time>
      </trkpt>
      <trkpt lat="44.31926" lon="6.14345">
        <ele>966.262207</ele>
        <time>2012-08-07T08:03:09Z</time>
      </trkpt>
      <trkpt lat="44.31921" lon="6.14353">
        <ele>966.7429199</ele>
        <time>2012-08-07T08:03:17Z</time>
      </trkpt>
      <trkpt lat="44.31914" lon="6.1436">
        <ele>966.7429199</ele>
        <time>2012-08-07T08:03:30Z</time>
      </trkpt>
      <trkpt lat="44.31907" lon="6.14366">
        <ele>967.7041016</ele>
        <time>2012-08-07T08:03:34Z</time>
      </trkpt>
      <trkpt lat="44.3189" lon="6.1438">
        <ele>970.1074219</ele>
        <time>2012-08-07T08:03:56Z</time>
      </trkpt>
      <trkpt lat="44.31889" lon="6.14383">
        <ele>972.0302734</ele>
        <time>2012-08-07T08:03:59Z</time>
      </trkpt>
      <trkpt lat="44.31888" lon="6.14386">
        <ele>970.5881348</ele>
        <time>2012-08-07T08:04:01Z</time>
      </trkpt>
      <trkpt lat="44.31884" lon="6.14399">
        <ele>969.6269531</ele>
        <time>2012-08-07T08:04:12Z</time>
      </trkpt>
      <trkpt lat="44.31874" lon="6.14424">
        <ele>973.4724121</ele>
        <time>2012-08-07T08:04:35Z</time>
      </trkpt>
      <trkpt lat="44.31868" lon="6.14427">
        <ele>973.9528809</ele>
        <time>2012-08-07T08:04:43Z</time>
      </trkpt>
      <trkpt lat="44.3186" lon="6.14433">
        <ele>974.9143066</ele>
        <time>2012-08-07T08:04:50Z</time>
      </trkpt>
      <trkpt lat="44.31858" lon="6.14437">
        <ele>975.3947754</ele>
        <time>2012-08-07T08:04:54Z</time>
      </trkpt>
      <trkpt lat="44.31856" lon="6.14439">
        <ele>972.9916992</ele>
        <time>2012-08-07T08:04:57Z</time>
      </trkpt>
      <trkpt lat="44.31858" lon="6.14442">
        <ele>975.3947754</ele>
        <time>2012-08-07T08:04:59Z</time>
      </trkpt>
      <trkpt lat="44.31854" lon="6.14446">
        <ele>973.4724121</ele>
        <time>2012-08-07T08:05:06Z</time>
      </trkpt>
      <trkpt lat="44.31853" lon="6.14455">
        <ele>975.3947754</ele>
        <time>2012-08-07T08:05:12Z</time>
      </trkpt>
      <trkpt lat="44.31838" lon="6.14478">
        <ele>976.8369141</ele>
        <time>2012-08-07T08:05:38Z</time>
      </trkpt>
      <trkpt lat="44.31827" lon="6.14493">
        <ele>977.7980957</ele>
        <time>2012-08-07T08:05:56Z</time>
      </trkpt>
      <trkpt lat="44.31814" lon="6.14507">
        <ele>979.2399902</ele>
        <time>2012-08-07T08:06:15Z</time>
      </trkpt>
      <trkpt lat="44.31807" lon="6.14523">
        <ele>979.7207031</ele>
        <time>2012-08-07T08:06:31Z</time>
      </trkpt>
      <trkpt lat="44.31799" lon="6.14534">
        <ele>981.1628418</ele>
        <time>2012-08-07T08:06:46Z</time>
      </trkpt>
      <trkpt lat="44.31787" lon="6.14551">
        <ele>981.6433105</ele>
        <time>2012-08-07T08:07:06Z</time>
      </trkpt>
      <trkpt lat="44.31777" lon="6.14578">
        <ele>982.1240234</ele>
        <time>2012-08-07T08:07:25Z</time>
      </trkpt>
      <trkpt lat="44.31782" lon="6.14575">
        <ele>982.1240234</ele>
        <time>2012-08-07T08:07:30Z</time>
      </trkpt>
      <trkpt lat="44.31802" lon="6.14561">
        <ele>983.0852051</ele>
        <time>2012-08-07T08:07:58Z</time>
      </trkpt>
      <trkpt lat="44.31838" lon="6.14575">
        <ele>983.565918</ele>
        <time>2012-08-07T08:08:20Z</time>
      </trkpt>
      <trkpt lat="44.31845" lon="6.14575">
        <ele>984.0466309</ele>
        <time>2012-08-07T08:08:30Z</time>
      </trkpt>
      <trkpt lat="44.31858" lon="6.14573">
        <ele>984.5273438</ele>
        <time>2012-08-07T08:08:45Z</time>
      </trkpt>
      <trkpt lat="44.31863" lon="6.14564">
        <ele>985.0080566</ele>
        <time>2012-08-07T08:08:58Z</time>
      </trkpt>
      <trkpt lat="44.31877" lon="6.14558">
        <ele>985.9692383</ele>
        <time>2012-08-07T08:09:13Z</time>
      </trkpt>
      <trkpt lat="44.31891" lon="6.14537">
        <ele>985.9692383</ele>
        <time>2012-08-07T08:09:35Z</time>
      </trkpt>
      <trkpt lat="44.31896" lon="6.14533">
        <ele>986.4499512</ele>
        <time>2012-08-07T08:09:40Z</time>
      </trkpt>
      <trkpt lat="44.31914" lon="6.14527">
        <ele>986.4499512</ele>
        <time>2012-08-07T08:09:57Z</time>
      </trkpt>
      <trkpt lat="44.31932" lon="6.1452">
        <ele>986.4499512</ele>
        <time>2012-08-07T08:10:13Z</time>
      </trkpt>
      <trkpt lat="44.31958" lon="6.145">
        <ele>987.4111328</ele>
        <time>2012-08-07T08:10:37Z</time>
      </trkpt>
      <trkpt lat="44.31978" lon="6.14487">
        <ele>987.4111328</ele>
        <time>2012-08-07T08:10:54Z</time>
      </trkpt>
      <trkpt lat="44.31997" lon="6.14475">
        <ele>987.4111328</ele>
        <time>2012-08-07T08:11:12Z</time>
      </trkpt>
      <trkpt lat="44.32016" lon="6.14455">
        <ele>987.8918457</ele>
        <time>2012-08-07T08:11:32Z</time>
      </trkpt>
      <trkpt lat="44.3203" lon="6.14422">
        <ele>987.8918457</ele>
        <time>2012-08-07T08:11:52Z</time>
      </trkpt>
      <trkpt lat="44.3204" lon="6.14393">
        <ele>988.3728027</ele>
        <time>2012-08-07T08:12:08Z</time>
      </trkpt>
      <trkpt lat="44.32045" lon="6.1439">
        <ele>988.3728027</ele>
        <time>2012-08-07T08:12:13Z</time>
      </trkpt>
      <trkpt lat="44.32048" lon="6.14392">
        <ele>988.3728027</ele>
        <time>2012-08-07T08:12:16Z</time>
      </trkpt>
      <trkpt lat="44.32048" lon="6.14397">
        <ele>988.3728027</ele>
        <time>2012-08-07T08:12:20Z</time>
      </trkpt>
      <trkpt lat="44.32044" lon="6.14407">
        <ele>988.8535156</ele>
        <time>2012-08-07T08:12:27Z</time>
      </trkpt>
      <trkpt lat="44.32042" lon="6.14409">
        <ele>988.8535156</ele>
        <time>2012-08-07T08:12:29Z</time>
      </trkpt>
      <trkpt lat="44.32038" lon="6.14414">
        <ele>989.3339844</ele>
        <time>2012-08-07T08:12:33Z</time>
      </trkpt>
      <trkpt lat="44.3202" lon="6.14427">
        <ele>990.7758789</ele>
        <time>2012-08-07T08:12:50Z</time>
      </trkpt>
      <trkpt lat="44.32019" lon="6.14428">
        <ele>990.7758789</ele>
        <time>2012-08-07T08:12:51Z</time>
      </trkpt>
      <trkpt lat="44.32007" lon="6.14442">
        <ele>991.2565918</ele>
        <time>2012-08-07T08:13:04Z</time>
      </trkpt>
      <trkpt lat="44.32003" lon="6.14444">
        <ele>991.7373047</ele>
        <time>2012-08-07T08:13:07Z</time>
      </trkpt>
      <trkpt lat="44.31997" lon="6.14444">
        <ele>991.2565918</ele>
        <time>2012-08-07T08:13:11Z</time>
      </trkpt>
      <trkpt lat="44.31988" lon="6.14455">
        <ele>991.7373047</ele>
        <time>2012-08-07T08:13:19Z</time>
      </trkpt>
      <trkpt lat="44.31974" lon="6.1447">
        <ele>992.6987305</ele>
        <time>2012-08-07T08:13:36Z</time>
      </trkpt>
      <trkpt lat="44.31966" lon="6.14474">
        <ele>992.6987305</ele>
        <time>2012-08-07T08:13:43Z</time>
      </trkpt>
      <trkpt lat="44.31953" lon="6.14485">
        <ele>994.140625</ele>
        <time>2012-08-07T08:13:57Z</time>
      </trkpt>
      <trkpt lat="44.31939" lon="6.145">
        <ele>995.5825195</ele>
        <time>2012-08-07T08:14:11Z</time>
      </trkpt>
      <trkpt lat="44.31922" lon="6.14528">
        <ele>997.0244141</ele>
        <time>2012-08-07T08:14:32Z</time>
      </trkpt>
      <trkpt lat="44.31906" lon="6.14558">
        <ele>998.9470215</ele>
        <time>2012-08-07T08:14:54Z</time>
      </trkpt>
      <trkpt lat="44.31885" lon="6.14572">
        <ele>1000.8696289</ele>
        <time>2012-08-07T08:15:16Z</time>
      </trkpt>
      <trkpt lat="44.31882" lon="6.14586">
        <ele>1000.8696289</ele>
        <time>2012-08-07T08:15:25Z</time>
      </trkpt>
      <trkpt lat="44.31878" lon="6.14597">
        <ele>1001.3503418</ele>
        <time>2012-08-07T08:15:29Z</time>
      </trkpt>
      <trkpt lat="44.31883" lon="6.14621">
        <ele>1002.3115234</ele>
        <time>2012-08-07T08:15:42Z</time>
      </trkpt>
      <trkpt lat="44.31883" lon="6.14624">
        <ele>1002.3115234</ele>
        <time>2012-08-07T08:15:44Z</time>
      </trkpt>
      <trkpt lat="44.31884" lon="6.14631">
        <ele>1002.7922363</ele>
        <time>2012-08-07T08:15:48Z</time>
      </trkpt>
      <trkpt lat="44.31882" lon="6.14645">
        <ele>1003.2729492</ele>
        <time>2012-08-07T08:15:56Z</time>
      </trkpt>
      <trkpt lat="44.31885" lon="6.1466">
        <ele>1004.2346191</ele>
        <time>2012-08-07T08:16:05Z</time>
      </trkpt>
      <trkpt lat="44.31895" lon="6.14682">
        <ele>1005.6765137</ele>
        <time>2012-08-07T08:16:19Z</time>
      </trkpt>
      <trkpt lat="44.31899" lon="6.14696">
        <ele>1006.1569824</ele>
        <time>2012-08-07T08:16:28Z</time>
      </trkpt>
      <trkpt lat="44.31894" lon="6.14718">
        <ele>1007.5991211</ele>
        <time>2012-08-07T08:16:42Z</time>
      </trkpt>
      <trkpt lat="44.3189" lon="6.14727">
        <ele>1008.5603027</ele>
        <time>2012-08-07T08:16:49Z</time>
      </trkpt>
      <trkpt lat="44.3189" lon="6.14733">
        <ele>1008.5603027</ele>
        <time>2012-08-07T08:16:52Z</time>
      </trkpt>
      <trkpt lat="44.31882" lon="6.14745">
        <ele>1010.0021973</ele>
        <time>2012-08-07T08:17:08Z</time>
      </trkpt>
      <trkpt lat="44.31864" lon="6.14743">
        <ele>1011.4443359</ele>
        <time>2012-08-07T08:17:25Z</time>
      </trkpt>
      <trkpt lat="44.31848" lon="6.14742">
        <ele>1012.8862305</ele>
        <time>2012-08-07T08:17:43Z</time>
      </trkpt>
      <trkpt lat="44.3183" lon="6.1476">
        <ele>1014.8088379</ele>
        <time>2012-08-07T08:18:04Z</time>
      </trkpt>
      <trkpt lat="44.3183" lon="6.14764">
        <ele>1015.2895508</ele>
        <time>2012-08-07T08:18:07Z</time>
      </trkpt>
      <trkpt lat="44.31821" lon="6.14779">
        <ele>1015.7702637</ele>
        <time>2012-08-07T08:18:19Z</time>
      </trkpt>
      <trkpt lat="44.31819" lon="6.14784">
        <ele>1016.2507324</ele>
        <time>2012-08-07T08:18:22Z</time>
      </trkpt>
      <trkpt lat="44.31808" lon="6.14803">
        <ele>1017.692627</ele>
        <time>2012-08-07T08:18:37Z</time>
      </trkpt>
      <trkpt lat="44.31803" lon="6.14808">
        <ele>1017.692627</ele>
        <time>2012-08-07T08:18:45Z</time>
      </trkpt>
      <trkpt lat="44.31798" lon="6.14814">
        <ele>1018.6540527</ele>
        <time>2012-08-07T08:18:51Z</time>
      </trkpt>
      <trkpt lat="44.31795" lon="6.14822">
        <ele>1019.1347656</ele>
        <time>2012-08-07T08:18:57Z</time>
      </trkpt>
      <trkpt lat="44.31794" lon="6.14824">
        <ele>1019.1347656</ele>
        <time>2012-08-07T08:18:59Z</time>
      </trkpt>
      <trkpt lat="44.31777" lon="6.1484">
        <ele>1020.5769043</ele>
        <time>2012-08-07T08:19:17Z</time>
      </trkpt>
      <trkpt lat="44.31763" lon="6.14856">
        <ele>1022.4995117</ele>
        <time>2012-08-07T08:19:33Z</time>
      </trkpt>
      <trkpt lat="44.31754" lon="6.14867">
        <ele>1023.9414063</ele>
        <time>2012-08-07T08:19:48Z</time>
      </trkpt>
      <trkpt lat="44.31732" lon="6.14881">
        <ele>1025.3833008</ele>
        <time>2012-08-07T08:20:08Z</time>
      </trkpt>
      <trkpt lat="44.31718" lon="6.14897">
        <ele>1026.3447266</ele>
        <time>2012-08-07T08:20:24Z</time>
      </trkpt>
      <trkpt lat="44.31702" lon="6.14916">
        <ele>1027.7866211</ele>
        <time>2012-08-07T08:20:42Z</time>
      </trkpt>
      <trkpt lat="44.31685" lon="6.14925">
        <ele>1028.7480469</ele>
        <time>2012-08-07T08:20:57Z</time>
      </trkpt>
      <trkpt lat="44.3168" lon="6.14931">
        <ele>1029.2285156</ele>
        <time>2012-08-07T08:21:02Z</time>
      </trkpt>
      <trkpt lat="44.31667" lon="6.14938">
        <ele>1030.1899414</ele>
        <time>2012-08-07T08:21:14Z</time>
      </trkpt>
      <trkpt lat="44.31643" lon="6.14933">
        <ele>1032.5932617</ele>
        <time>2012-08-07T08:21:34Z</time>
      </trkpt>
      <trkpt lat="44.31639" lon="6.14936">
        <ele>1032.5932617</ele>
        <time>2012-08-07T08:21:38Z</time>
      </trkpt>
      <trkpt lat="44.31617" lon="6.14956">
        <ele>1034.5158691</ele>
        <time>2012-08-07T08:22:00Z</time>
      </trkpt>
      <trkpt lat="44.31611" lon="6.14972">
        <ele>1035.9577637</ele>
        <time>2012-08-07T08:22:11Z</time>
      </trkpt>
      <trkpt lat="44.31609" lon="6.14981">
        <ele>1036.4387207</ele>
        <time>2012-08-07T08:22:17Z</time>
      </trkpt>
      <trkpt lat="44.31611" lon="6.15006">
        <ele>1037.3999023</ele>
        <time>2012-08-07T08:22:31Z</time>
      </trkpt>
      <trkpt lat="44.31595" lon="6.15028">
        <ele>1038.842041</ele>
        <time>2012-08-07T08:22:46Z</time>
      </trkpt>
      <trkpt lat="44.31595" lon="6.15032">
        <ele>1040.7644043</ele>
        <time>2012-08-07T08:22:49Z</time>
      </trkpt>
      <trkpt lat="44.31602" lon="6.15054">
        <ele>1041.7258301</ele>
        <time>2012-08-07T08:23:04Z</time>
      </trkpt>
      <trkpt lat="44.31602" lon="6.15056">
        <ele>1041.7258301</ele>
        <time>2012-08-07T08:23:05Z</time>
      </trkpt>
      <trkpt lat="44.31605" lon="6.15079">
        <ele>1041.7258301</ele>
        <time>2012-08-07T08:23:20Z</time>
      </trkpt>
      <trkpt lat="44.31606" lon="6.15086">
        <ele>1042.206543</ele>
        <time>2012-08-07T08:23:24Z</time>
      </trkpt>
      <trkpt lat="44.31613" lon="6.15113">
        <ele>1045.090332</ele>
        <time>2012-08-07T08:23:43Z</time>
      </trkpt>
      <trkpt lat="44.31614" lon="6.15115">
        <ele>1045.090332</ele>
        <time>2012-08-07T08:23:44Z</time>
      </trkpt>
      <trkpt lat="44.31614" lon="6.15119">
        <ele>1044.1291504</ele>
        <time>2012-08-07T08:23:47Z</time>
      </trkpt>
      <trkpt lat="44.31613" lon="6.15123">
        <ele>1045.5710449</ele>
        <time>2012-08-07T08:24:00Z</time>
      </trkpt>
      <trkpt lat="44.31613" lon="6.15123">
        <ele>1044.1291504</ele>
        <time>2012-08-07T08:24:05Z</time>
      </trkpt>
      <trkpt lat="44.31612" lon="6.15122">
        <ele>1046.0517578</ele>
        <time>2012-08-07T08:24:24Z</time>
      </trkpt>
      <trkpt lat="44.31612" lon="6.15122">
        <ele>1043.6484375</ele>
        <time>2012-08-07T08:24:28Z</time>
      </trkpt>
      <trkpt lat="44.31612" lon="6.15122">
        <ele>1044.6096191</ele>
        <time>2012-08-07T08:24:35Z</time>
      </trkpt>
      <trkpt lat="44.31611" lon="6.15121">
        <ele>1044.6096191</ele>
        <time>2012-08-07T08:24:49Z</time>
      </trkpt>
      <trkpt lat="44.31611" lon="6.15121">
        <ele>1044.1291504</ele>
        <time>2012-08-07T08:24:53Z</time>
      </trkpt>
      <trkpt lat="44.3161" lon="6.1512">
        <ele>1045.5710449</ele>
        <time>2012-08-07T08:25:49Z</time>
      </trkpt>
      <trkpt lat="44.31608" lon="6.15118">
        <ele>1043.1677246</ele>
        <time>2012-08-07T08:26:19Z</time>
      </trkpt>
      <trkpt lat="44.31607" lon="6.15117">
        <ele>1045.5710449</ele>
        <time>2012-08-07T08:26:36Z</time>
      </trkpt>
      <trkpt lat="44.31607" lon="6.15117">
        <ele>1042.206543</ele>
        <time>2012-08-07T08:26:44Z</time>
      </trkpt>
      <trkpt lat="44.31607" lon="6.15117">
        <ele>1042.206543</ele>
        <time>2012-08-07T08:26:45Z</time>
      </trkpt>
      <trkpt lat="44.31598" lon="6.15132">
        <ele>1045.5710449</ele>
        <time>2012-08-07T08:27:12Z</time>
      </trkpt>
      <trkpt lat="44.31593" lon="6.15139">
        <ele>1045.090332</ele>
        <time>2012-08-07T08:27:17Z</time>
      </trkpt>
      <trkpt lat="44.3158" lon="6.15158">
        <ele>1046.0517578</ele>
        <time>2012-08-07T08:27:33Z</time>
      </trkpt>
      <trkpt lat="44.3158" lon="6.15159">
        <ele>1047.0129395</ele>
        <time>2012-08-07T08:27:34Z</time>
      </trkpt>
      <trkpt lat="44.31571" lon="6.15181">
        <ele>1049.8969727</ele>
        <time>2012-08-07T08:27:51Z</time>
      </trkpt>
      <trkpt lat="44.31561" lon="6.15193">
        <ele>1051.3388672</ele>
        <time>2012-08-07T08:28:03Z</time>
      </trkpt>
      <trkpt lat="44.31556" lon="6.15205">
        <ele>1051.8195801</ele>
        <time>2012-08-07T08:28:13Z</time>
      </trkpt>
      <trkpt lat="44.31553" lon="6.15207">
        <ele>1052.300293</ele>
        <time>2012-08-07T08:28:15Z</time>
      </trkpt>
      <trkpt lat="44.31527" lon="6.15231">
        <ele>1055.1843262</ele>
        <time>2012-08-07T08:28:40Z</time>
      </trkpt>
      <trkpt lat="44.31518" lon="6.15244">
        <ele>1057.1069336</ele>
        <time>2012-08-07T08:28:50Z</time>
      </trkpt>
      <trkpt lat="44.31511" lon="6.15257">
        <ele>1058.0683594</ele>
        <time>2012-08-07T08:29:01Z</time>
      </trkpt>
      <trkpt lat="44.31486" lon="6.15277">
        <ele>1060.9521484</ele>
        <time>2012-08-07T08:29:21Z</time>
      </trkpt>
      <trkpt lat="44.31479" lon="6.15283">
        <ele>1061.4328613</ele>
        <time>2012-08-07T08:29:28Z</time>
      </trkpt>
      <trkpt lat="44.31477" lon="6.15283">
        <ele>1061.9135742</ele>
        <time>2012-08-07T08:29:31Z</time>
      </trkpt>
      <trkpt lat="44.31457" lon="6.15285">
        <ele>1064.7973633</ele>
        <time>2012-08-07T08:29:52Z</time>
      </trkpt>
      <trkpt lat="44.31454" lon="6.15286">
        <ele>1065.2780762</ele>
        <time>2012-08-07T08:29:56Z</time>
      </trkpt>
      <trkpt lat="44.31433" lon="6.15286">
        <ele>1068.6428223</ele>
        <time>2012-08-07T08:30:15Z</time>
      </trkpt>
      <trkpt lat="44.31432" lon="6.15287">
        <ele>1068.6428223</ele>
        <time>2012-08-07T08:30:18Z</time>
      </trkpt>
      <trkpt lat="44.31415" lon="6.153">
        <ele>1071.0461426</ele>
        <time>2012-08-07T08:30:33Z</time>
      </trkpt>
      <trkpt lat="44.31396" lon="6.15311">
        <ele>1072.96875</ele>
        <time>2012-08-07T08:30:50Z</time>
      </trkpt>
      <trkpt lat="44.31381" lon="6.1533">
        <ele>1075.8525391</ele>
        <time>2012-08-07T08:31:10Z</time>
      </trkpt>
      <trkpt lat="44.31378" lon="6.15333">
        <ele>1076.333252</ele>
        <time>2012-08-07T08:31:14Z</time>
      </trkpt>
      <trkpt lat="44.31363" lon="6.15349">
        <ele>1079.6977539</ele>
        <time>2012-08-07T08:31:33Z</time>
      </trkpt>
      <trkpt lat="44.31349" lon="6.15364">
        <ele>1082.1010742</ele>
        <time>2012-08-07T08:31:50Z</time>
      </trkpt>
      <trkpt lat="44.31341" lon="6.15368">
        <ele>1083.5429688</ele>
        <time>2012-08-07T08:31:59Z</time>
      </trkpt>
      <trkpt lat="44.31325" lon="6.15365">
        <ele>1085.4658203</ele>
        <time>2012-08-07T08:32:15Z</time>
      </trkpt>
      <trkpt lat="44.31322" lon="6.15366">
        <ele>1085.9465332</ele>
        <time>2012-08-07T08:32:18Z</time>
      </trkpt>
      <trkpt lat="44.31318" lon="6.15368">
        <ele>1086.9077148</ele>
        <time>2012-08-07T08:32:22Z</time>
      </trkpt>
      <trkpt lat="44.31309" lon="6.15381">
        <ele>1088.8305664</ele>
        <time>2012-08-07T08:32:39Z</time>
      </trkpt>
      <trkpt lat="44.31308" lon="6.15409">
        <ele>1090.2724609</ele>
        <time>2012-08-07T08:32:54Z</time>
      </trkpt>
      <trkpt lat="44.31314" lon="6.15423">
        <ele>1091.7143555</ele>
        <time>2012-08-07T08:33:04Z</time>
      </trkpt>
      <trkpt lat="44.31315" lon="6.15434">
        <ele>1092.6757813</ele>
        <time>2012-08-07T08:33:11Z</time>
      </trkpt>
      <trkpt lat="44.31319" lon="6.15451">
        <ele>1094.5981445</ele>
        <time>2012-08-07T08:33:22Z</time>
      </trkpt>
      <trkpt lat="44.31316" lon="6.15457">
        <ele>1095.0788574</ele>
        <time>2012-08-07T08:33:28Z</time>
      </trkpt>
      <trkpt lat="44.31298" lon="6.15449">
        <ele>1097.4821777</ele>
        <time>2012-08-07T08:33:46Z</time>
      </trkpt>
      <trkpt lat="44.31295" lon="6.15442">
        <ele>1098.4433594</ele>
        <time>2012-08-07T08:33:51Z</time>
      </trkpt>
      <trkpt lat="44.31292" lon="6.15437">
        <ele>1099.4047852</ele>
        <time>2012-08-07T08:33:56Z</time>
      </trkpt>
      <trkpt lat="44.31286" lon="6.15423">
        <ele>1100.8469238</ele>
        <time>2012-08-07T08:34:06Z</time>
      </trkpt>
      <trkpt lat="44.31283" lon="6.15414">
        <ele>1100.8469238</ele>
        <time>2012-08-07T08:34:11Z</time>
      </trkpt>
      <trkpt lat="44.31285" lon="6.15404">
        <ele>1101.3276367</ele>
        <time>2012-08-07T08:34:16Z</time>
      </trkpt>
      <trkpt lat="44.31279" lon="6.15388">
        <ele>1102.7695313</ele>
        <time>2012-08-07T08:34:26Z</time>
      </trkpt>
      <trkpt lat="44.31278" lon="6.15386">
        <ele>1102.7695313</ele>
        <time>2012-08-07T08:34:28Z</time>
      </trkpt>
      <trkpt lat="44.31267" lon="6.1538">
        <ele>1104.2116699</ele>
        <time>2012-08-07T08:34:41Z</time>
      </trkpt>
      <trkpt lat="44.31263" lon="6.15383">
        <ele>1105.1728516</ele>
        <time>2012-08-07T08:34:44Z</time>
      </trkpt>
      <trkpt lat="44.31262" lon="6.15386">
        <ele>1105.1728516</ele>
        <time>2012-08-07T08:34:47Z</time>
      </trkpt>
      <trkpt lat="44.31262" lon="6.15388">
        <ele>1105.1728516</ele>
        <time>2012-08-07T08:34:49Z</time>
      </trkpt>
      <trkpt lat="44.31268" lon="6.15423">
        <ele>1106.6147461</ele>
        <time>2012-08-07T08:35:08Z</time>
      </trkpt>
      <trkpt lat="44.3127" lon="6.15439">
        <ele>1108.5373535</ele>
        <time>2012-08-07T08:35:18Z</time>
      </trkpt>
      <trkpt lat="44.31255" lon="6.15461">
        <ele>1110.4599609</ele>
        <time>2012-08-07T08:35:35Z</time>
      </trkpt>
      <trkpt lat="44.3124" lon="6.15473">
        <ele>1112.3825684</ele>
        <time>2012-08-07T08:35:48Z</time>
      </trkpt>
      <trkpt lat="44.31234" lon="6.15475">
        <ele>1112.3825684</ele>
        <time>2012-08-07T08:35:53Z</time>
      </trkpt>
      <trkpt lat="44.31216" lon="6.15482">
        <ele>1115.2666016</ele>
        <time>2012-08-07T08:36:09Z</time>
      </trkpt>
      <trkpt lat="44.31199" lon="6.15488">
        <ele>1117.6699219</ele>
        <time>2012-08-07T08:36:26Z</time>
      </trkpt>
      <trkpt lat="44.31194" lon="6.15487">
        <ele>1118.6313477</ele>
        <time>2012-08-07T08:36:32Z</time>
      </trkpt>
      <trkpt lat="44.3119" lon="6.15482">
        <ele>1119.5927734</ele>
        <time>2012-08-07T08:36:37Z</time>
      </trkpt>
      <trkpt lat="44.31179" lon="6.15463">
        <ele>1121.034668</ele>
        <time>2012-08-07T08:36:52Z</time>
      </trkpt>
      <trkpt lat="44.31182" lon="6.15456">
        <ele>1121.9958496</ele>
        <time>2012-08-07T08:36:58Z</time>
      </trkpt>
      <trkpt lat="44.3118" lon="6.1545">
        <ele>1121.9958496</ele>
        <time>2012-08-07T08:37:03Z</time>
      </trkpt>
      <trkpt lat="44.31184" lon="6.15442">
        <ele>1122.9572754</ele>
        <time>2012-08-07T08:37:08Z</time>
      </trkpt>
      <trkpt lat="44.31194" lon="6.15427">
        <ele>1124.3991699</ele>
        <time>2012-08-07T08:37:20Z</time>
      </trkpt>
      <trkpt lat="44.31199" lon="6.15412">
        <ele>1125.8410645</ele>
        <time>2012-08-07T08:37:33Z</time>
      </trkpt>
      <trkpt lat="44.312" lon="6.15405">
        <ele>1126.8024902</ele>
        <time>2012-08-07T08:37:37Z</time>
      </trkpt>
      <trkpt lat="44.31206" lon="6.15382">
        <ele>1128.2443848</ele>
        <time>2012-08-07T08:37:49Z</time>
      </trkpt>
      <trkpt lat="44.31208" lon="6.15378">
        <ele>1128.7250977</ele>
        <time>2012-08-07T08:37:53Z</time>
      </trkpt>
      <trkpt lat="44.31218" lon="6.15363">
        <ele>1129.6862793</ele>
        <time>2012-08-07T08:38:02Z</time>
      </trkpt>
      <trkpt lat="44.31223" lon="6.15356">
        <ele>1130.1669922</ele>
        <time>2012-08-07T08:38:07Z</time>
      </trkpt>
      <trkpt lat="44.31229" lon="6.15348">
        <ele>1131.6088867</ele>
        <time>2012-08-07T08:38:12Z</time>
      </trkpt>
      <trkpt lat="44.31233" lon="6.15331">
        <ele>1132.5705566</ele>
        <time>2012-08-07T08:38:23Z</time>
      </trkpt>
      <trkpt lat="44.31229" lon="6.1532">
        <ele>1134.0124512</ele>
        <time>2012-08-07T08:38:31Z</time>
      </trkpt>
      <trkpt lat="44.31223" lon="6.15332">
        <ele>1135.4543457</ele>
        <time>2012-08-07T08:38:47Z</time>
      </trkpt>
      <trkpt lat="44.31219" lon="6.15342">
        <ele>1136.8962402</ele>
        <time>2012-08-07T08:38:55Z</time>
      </trkpt>
      <trkpt lat="44.31203" lon="6.15363">
        <ele>1138.8190918</ele>
        <time>2012-08-07T08:39:10Z</time>
      </trkpt>
      <trkpt lat="44.3118" lon="6.15392">
        <ele>1141.222168</ele>
        <time>2012-08-07T08:39:26Z</time>
      </trkpt>
      <trkpt lat="44.31174" lon="6.154">
        <ele>1141.7028809</ele>
        <time>2012-08-07T08:39:31Z</time>
      </trkpt>
      <trkpt lat="44.31169" lon="6.15403">
        <ele>1142.6643066</ele>
        <time>2012-08-07T08:39:36Z</time>
      </trkpt>
      <trkpt lat="44.31166" lon="6.15407">
        <ele>1143.6254883</ele>
        <time>2012-08-07T08:39:40Z</time>
      </trkpt>
      <trkpt lat="44.3116" lon="6.15415">
        <ele>1144.1062012</ele>
        <time>2012-08-07T08:39:47Z</time>
      </trkpt>
      <trkpt lat="44.31154" lon="6.15423">
        <ele>1145.5480957</ele>
        <time>2012-08-07T08:39:55Z</time>
      </trkpt>
      <trkpt lat="44.31143" lon="6.15425">
        <ele>1147.4707031</ele>
        <time>2012-08-07T08:40:09Z</time>
      </trkpt>
      <trkpt lat="44.31127" lon="6.15416">
        <ele>1149.3935547</ele>
        <time>2012-08-07T08:40:22Z</time>
      </trkpt>
      <trkpt lat="44.31124" lon="6.15416">
        <ele>1149.8742676</ele>
        <time>2012-08-07T08:40:25Z</time>
      </trkpt>
      <trkpt lat="44.31106" lon="6.15405">
        <ele>1151.796875</ele>
        <time>2012-08-07T08:40:40Z</time>
      </trkpt>
      <trkpt lat="44.311" lon="6.15401">
        <ele>1152.7580566</ele>
        <time>2012-08-07T08:40:46Z</time>
      </trkpt>
      <trkpt lat="44.31085" lon="6.15393">
        <ele>1154.6806641</ele>
        <time>2012-08-07T08:41:04Z</time>
      </trkpt>
      <trkpt lat="44.31074" lon="6.15387">
        <ele>1156.6032715</ele>
        <time>2012-08-07T08:41:16Z</time>
      </trkpt>
      <trkpt lat="44.31069" lon="6.15392">
        <ele>1157.0839844</ele>
        <time>2012-08-07T08:41:21Z</time>
      </trkpt>
      <trkpt lat="44.31065" lon="6.154">
        <ele>1158.0454102</ele>
        <time>2012-08-07T08:41:28Z</time>
      </trkpt>
      <trkpt lat="44.31063" lon="6.15404">
        <ele>1158.5258789</ele>
        <time>2012-08-07T08:41:31Z</time>
      </trkpt>
      <trkpt lat="44.31045" lon="6.15416">
        <ele>1160.9291992</ele>
        <time>2012-08-07T08:41:49Z</time>
      </trkpt>
      <trkpt lat="44.31026" lon="6.15414">
        <ele>1163.3325195</ele>
        <time>2012-08-07T08:42:06Z</time>
      </trkpt>
      <trkpt lat="44.31025" lon="6.15415">
        <ele>1163.8129883</ele>
        <time>2012-08-07T08:42:07Z</time>
      </trkpt>
      <trkpt lat="44.31002" lon="6.15412">
        <ele>1166.6972656</ele>
        <time>2012-08-07T08:42:28Z</time>
      </trkpt>
      <trkpt lat="44.3099" lon="6.15411">
        <ele>1168.1391602</ele>
        <time>2012-08-07T08:42:38Z</time>
      </trkpt>
      <trkpt lat="44.30968" lon="6.15412">
        <ele>1170.0617676</ele>
        <time>2012-08-07T08:42:57Z</time>
      </trkpt>
      <trkpt lat="44.30952" lon="6.15411">
        <ele>1171.984375</ele>
        <time>2012-08-07T08:43:12Z</time>
      </trkpt>
      <trkpt lat="44.30939" lon="6.15402">
        <ele>1173.9069824</ele>
        <time>2012-08-07T08:43:26Z</time>
      </trkpt>
      <trkpt lat="44.30935" lon="6.15399">
        <ele>1174.8684082</ele>
        <time>2012-08-07T08:43:30Z</time>
      </trkpt>
      <trkpt lat="44.30934" lon="6.15396">
        <ele>1174.8684082</ele>
        <time>2012-08-07T08:43:32Z</time>
      </trkpt>
      <trkpt lat="44.30916" lon="6.15378">
        <ele>1177.2717285</ele>
        <time>2012-08-07T08:43:53Z</time>
      </trkpt>
      <trkpt lat="44.30906" lon="6.15366">
        <ele>1178.713623</ele>
        <time>2012-08-07T08:44:05Z</time>
      </trkpt>
      <trkpt lat="44.30904" lon="6.15363">
        <ele>1179.1940918</ele>
        <time>2012-08-07T08:44:08Z</time>
      </trkpt>
      <trkpt lat="44.30891" lon="6.15337">
        <ele>1181.5976563</ele>
        <time>2012-08-07T08:44:28Z</time>
      </trkpt>
      <trkpt lat="44.30889" lon="6.15333">
        <ele>1181.5976563</ele>
        <time>2012-08-07T08:44:30Z</time>
      </trkpt>
      <trkpt lat="44.30882" lon="6.15326">
        <ele>1182.559082</ele>
        <time>2012-08-07T08:44:37Z</time>
      </trkpt>
      <trkpt lat="44.30876" lon="6.15334">
        <ele>1183.0395508</ele>
        <time>2012-08-07T08:44:45Z</time>
      </trkpt>
      <trkpt lat="44.30881" lon="6.15347">
        <ele>1184.0009766</ele>
        <time>2012-08-07T08:44:53Z</time>
      </trkpt>
      <trkpt lat="44.30883" lon="6.15363">
        <ele>1184.4816895</ele>
        <time>2012-08-07T08:45:00Z</time>
      </trkpt>
      <trkpt lat="44.30889" lon="6.15372">
        <ele>1185.4428711</ele>
        <time>2012-08-07T08:45:06Z</time>
      </trkpt>
      <trkpt lat="44.30899" lon="6.15405">
        <ele>1187.3654785</ele>
        <time>2012-08-07T08:45:26Z</time>
      </trkpt>
      <trkpt lat="44.30908" lon="6.15433">
        <ele>1187.8461914</ele>
        <time>2012-08-07T08:45:42Z</time>
      </trkpt>
      <trkpt lat="44.30922" lon="6.15474">
        <ele>1188.8076172</ele>
        <time>2012-08-07T08:46:01Z</time>
      </trkpt>
      <trkpt lat="44.30926" lon="6.15499">
        <ele>1189.7687988</ele>
        <time>2012-08-07T08:46:13Z</time>
      </trkpt>
      <trkpt lat="44.30927" lon="6.15527">
        <ele>1190.2495117</ele>
        <time>2012-08-07T08:46:25Z</time>
      </trkpt>
      <trkpt lat="44.30924" lon="6.15537">
        <ele>1191.2106934</ele>
        <time>2012-08-07T08:46:30Z</time>
      </trkpt>
      <trkpt lat="44.30918" lon="6.15563">
        <ele>1191.6914063</ele>
        <time>2012-08-07T08:46:43Z</time>
      </trkpt>
      <trkpt lat="44.309" lon="6.15597">
        <ele>1192.1721191</ele>
        <time>2012-08-07T08:46:58Z</time>
      </trkpt>
      <trkpt lat="44.30891" lon="6.15623">
        <ele>1193.1333008</ele>
        <time>2012-08-07T08:47:11Z</time>
      </trkpt>
      <trkpt lat="44.30886" lon="6.1563">
        <ele>1193.6140137</ele>
        <time>2012-08-07T08:47:15Z</time>
      </trkpt>
      <trkpt lat="44.30886" lon="6.15639">
        <ele>1194.0947266</ele>
        <time>2012-08-07T08:47:19Z</time>
      </trkpt>
      <trkpt lat="44.30883" lon="6.15648">
        <ele>1194.0947266</ele>
        <time>2012-08-07T08:47:24Z</time>
      </trkpt>
      <trkpt lat="44.30876" lon="6.15676">
        <ele>1195.5366211</ele>
        <time>2012-08-07T08:47:37Z</time>
      </trkpt>
      <trkpt lat="44.30868" lon="6.15701">
        <ele>1197.4594727</ele>
        <time>2012-08-07T08:47:51Z</time>
      </trkpt>
      <trkpt lat="44.30864" lon="6.15711">
        <ele>1197.9401855</ele>
        <time>2012-08-07T08:47:56Z</time>
      </trkpt>
      <trkpt lat="44.30853" lon="6.15741">
        <ele>1198.9013672</ele>
        <time>2012-08-07T08:48:05Z</time>
      </trkpt>
      <trkpt lat="44.30845" lon="6.15753">
        <ele>1199.862793</ele>
        <time>2012-08-07T08:48:10Z</time>
      </trkpt>
      <trkpt lat="44.30843" lon="6.15756">
        <ele>1196.498291</ele>
        <time>2012-08-07T08:48:11Z</time>
      </trkpt>
      <trkpt lat="44.30842" lon="6.15758">
        <ele>1196.498291</ele>
        <time>2012-08-07T08:48:12Z</time>
      </trkpt>
      <trkpt lat="44.30835" lon="6.15775">
        <ele>1198.9013672</ele>
        <time>2012-08-07T08:48:17Z</time>
      </trkpt>
      <trkpt lat="44.30832" lon="6.15785">
        <ele>1197.4594727</ele>
        <time>2012-08-07T08:48:19Z</time>
      </trkpt>
      <trkpt lat="44.30828" lon="6.15806">
        <ele>1194.5751953</ele>
        <time>2012-08-07T08:48:23Z</time>
      </trkpt>
      <trkpt lat="44.30816" lon="6.15857">
        <ele>1193.6140137</ele>
        <time>2012-08-07T08:48:31Z</time>
      </trkpt>
      <trkpt lat="44.30815" lon="6.15865">
        <ele>1194.5751953</ele>
        <time>2012-08-07T08:48:33Z</time>
      </trkpt>
      <trkpt lat="44.30816" lon="6.15869">
        <ele>1194.0947266</ele>
        <time>2012-08-07T08:48:34Z</time>
      </trkpt>
      <trkpt lat="44.30827" lon="6.15895">
        <ele>1194.5751953</ele>
        <time>2012-08-07T08:48:47Z</time>
      </trkpt>
      <trkpt lat="44.30827" lon="6.15895">
        <ele>1195.0559082</ele>
        <time>2012-08-07T08:48:54Z</time>
      </trkpt>
      <trkpt lat="44.30823" lon="6.15903">
        <ele>1195.5366211</ele>
        <time>2012-08-07T08:49:04Z</time>
      </trkpt>
      <trkpt lat="44.30822" lon="6.15905">
        <ele>1196.0175781</ele>
        <time>2012-08-07T08:49:10Z</time>
      </trkpt>
      <trkpt lat="44.30823" lon="6.15905">
        <ele>1195.0559082</ele>
        <time>2012-08-07T08:49:27Z</time>
      </trkpt>
      <trkpt lat="44.30822" lon="6.15905">
        <ele>1194.5751953</ele>
        <time>2012-08-07T08:49:43Z</time>
      </trkpt>
      <trkpt lat="44.30822" lon="6.15905">
        <ele>1197.4594727</ele>
        <time>2012-08-07T08:50:11Z</time>
      </trkpt>
      <trkpt lat="44.30822" lon="6.15905">
        <ele>1197.4594727</ele>
        <time>2012-08-07T08:50:12Z</time>
      </trkpt>
      <trkpt lat="44.30822" lon="6.15905">
        <ele>1194.5751953</ele>
        <time>2012-08-07T08:50:19Z</time>
      </trkpt>
      <trkpt lat="44.30822" lon="6.15905">
        <ele>1194.5751953</ele>
        <time>2012-08-07T08:50:20Z</time>
      </trkpt>
      <trkpt lat="44.30822" lon="6.15904">
        <ele>1198.4206543</ele>
        <time>2012-08-07T08:50:42Z</time>
      </trkpt>
      <trkpt lat="44.30822" lon="6.15904">
        <ele>1198.4206543</ele>
        <time>2012-08-07T08:50:43Z</time>
      </trkpt>
      <trkpt lat="44.30822" lon="6.15904">
        <ele>1196.0175781</ele>
        <time>2012-08-07T08:50:45Z</time>
      </trkpt>
      <trkpt lat="44.30822" lon="6.15904">
        <ele>1196.9787598</ele>
        <time>2012-08-07T08:50:52Z</time>
      </trkpt>
      <trkpt lat="44.30822" lon="6.15904">
        <ele>1196.9787598</ele>
        <time>2012-08-07T08:50:59Z</time>
      </trkpt>
      <trkpt lat="44.30822" lon="6.15904">
        <ele>1198.9013672</ele>
        <time>2012-08-07T08:51:06Z</time>
      </trkpt>
      <trkpt lat="44.30822" lon="6.15904">
        <ele>1196.0175781</ele>
        <time>2012-08-07T08:51:10Z</time>
      </trkpt>
      <trkpt lat="44.30822" lon="6.15904">
        <ele>1199.862793</ele>
        <time>2012-08-07T08:51:14Z</time>
      </trkpt>
      <trkpt lat="44.30822" lon="6.15904">
        <ele>1199.862793</ele>
        <time>2012-08-07T08:51:15Z</time>
      </trkpt>
      <trkpt lat="44.30822" lon="6.15904">
        <ele>1196.0175781</ele>
        <time>2012-08-07T08:51:16Z</time>
      </trkpt>
      <trkpt lat="44.30822" lon="6.15905">
        <ele>1196.0175781</ele>
        <time>2012-08-07T08:51:17Z</time>
      </trkpt>
      <trkpt lat="44.30822" lon="6.15905">
        <ele>1197.4594727</ele>
        <time>2012-08-07T08:51:20Z</time>
      </trkpt>
      <trkpt lat="44.30822" lon="6.15905">
        <ele>1199.3820801</ele>
        <time>2012-08-07T08:51:24Z</time>
      </trkpt>
      <trkpt lat="44.30822" lon="6.15904">
        <ele>1196.498291</ele>
        <time>2012-08-07T08:51:49Z</time>
      </trkpt>
      <trkpt lat="44.30822" lon="6.15904">
        <ele>1197.9401855</ele>
        <time>2012-08-07T08:51:52Z</time>
      </trkpt>
      <trkpt lat="44.30822" lon="6.15904">
        <ele>1198.9013672</ele>
        <time>2012-08-07T08:52:25Z</time>
      </trkpt>
      <trkpt lat="44.30822" lon="6.15904">
        <ele>1197.9401855</ele>
        <time>2012-08-07T08:52:29Z</time>
      </trkpt>
      <trkpt lat="44.30822" lon="6.15905">
        <ele>1199.3820801</ele>
        <time>2012-08-07T08:52:36Z</time>
      </trkpt>
      <trkpt lat="44.30822" lon="6.15905">
        <ele>1197.9401855</ele>
        <time>2012-08-07T08:52:38Z</time>
      </trkpt>
      <trkpt lat="44.30822" lon="6.15905">
        <ele>1197.4594727</ele>
        <time>2012-08-07T08:52:50Z</time>
      </trkpt>
      <trkpt lat="44.30822" lon="6.15905">
        <ele>1199.862793</ele>
        <time>2012-08-07T08:52:52Z</time>
      </trkpt>
      <trkpt lat="44.30822" lon="6.15905">
        <ele>1198.4206543</ele>
        <time>2012-08-07T08:52:55Z</time>
      </trkpt>
      <trkpt lat="44.30822" lon="6.15905">
        <ele>1199.3820801</ele>
        <time>2012-08-07T08:53:01Z</time>
      </trkpt>
      <trkpt lat="44.30822" lon="6.15905">
        <ele>1198.4206543</ele>
        <time>2012-08-07T08:53:20Z</time>
      </trkpt>
      <trkpt lat="44.30822" lon="6.15905">
        <ele>1197.9401855</ele>
        <time>2012-08-07T08:53:29Z</time>
      </trkpt>
      <trkpt lat="44.30822" lon="6.15905">
        <ele>1199.862793</ele>
        <time>2012-08-07T08:53:32Z</time>
      </trkpt>
      <trkpt lat="44.30822" lon="6.15905">
        <ele>1200.3435059</ele>
        <time>2012-08-07T08:53:39Z</time>
      </trkpt>
      <trkpt lat="44.30822" lon="6.15905">
        <ele>1201.7854004</ele>
        <time>2012-08-07T08:53:59Z</time>
      </trkpt>
      <trkpt lat="44.30822" lon="6.15905">
        <ele>1198.4206543</ele>
        <time>2012-08-07T08:54:21Z</time>
      </trkpt>
      <trkpt lat="44.30822" lon="6.15906">
        <ele>1200.8239746</ele>
        <time>2012-08-07T08:54:39Z</time>
      </trkpt>
      <trkpt lat="44.30822" lon="6.15906">
        <ele>1198.9013672</ele>
        <time>2012-08-07T08:54:41Z</time>
      </trkpt>
      <trkpt lat="44.30822" lon="6.15906">
        <ele>1200.8239746</ele>
        <time>2012-08-07T08:54:53Z</time>
      </trkpt>
      <trkpt lat="44.30822" lon="6.15906">
        <ele>1198.9013672</ele>
        <time>2012-08-07T08:54:55Z</time>
      </trkpt>
      <trkpt lat="44.30821" lon="6.15906">
        <ele>1200.3435059</ele>
        <time>2012-08-07T08:55:26Z</time>
      </trkpt>
      <trkpt lat="44.30821" lon="6.15906">
        <ele>1199.3820801</ele>
        <time>2012-08-07T08:55:37Z</time>
      </trkpt>
      <trkpt lat="44.30821" lon="6.15906">
        <ele>1201.7854004</ele>
        <time>2012-08-07T08:55:39Z</time>
      </trkpt>
      <trkpt lat="44.30821" lon="6.15906">
        <ele>1198.9013672</ele>
        <time>2012-08-07T08:55:42Z</time>
      </trkpt>
      <trkpt lat="44.30821" lon="6.15907">
        <ele>1200.8239746</ele>
        <time>2012-08-07T08:56:07Z</time>
      </trkpt>
      <trkpt lat="44.30819" lon="6.15908">
        <ele>1201.3046875</ele>
        <time>2012-08-07T08:56:28Z</time>
      </trkpt>
      <trkpt lat="44.30819" lon="6.15909">
        <ele>1199.3820801</ele>
        <time>2012-08-07T08:56:46Z</time>
      </trkpt>
      <trkpt lat="44.30819" lon="6.15909">
        <ele>1199.3820801</ele>
        <time>2012-08-07T08:56:53Z</time>
      </trkpt>
      <trkpt lat="44.30819" lon="6.15909">
        <ele>1202.2658691</ele>
        <time>2012-08-07T08:57:00Z</time>
      </trkpt>
      <trkpt lat="44.30819" lon="6.15909">
        <ele>1199.862793</ele>
        <time>2012-08-07T08:57:02Z</time>
      </trkpt>
      <trkpt lat="44.30819" lon="6.15909">
        <ele>1200.8239746</ele>
        <time>2012-08-07T08:57:16Z</time>
      </trkpt>
      <trkpt lat="44.30819" lon="6.15909">
        <ele>1198.9013672</ele>
        <time>2012-08-07T08:57:19Z</time>
      </trkpt>
      <trkpt lat="44.30819" lon="6.15909">
        <ele>1200.3435059</ele>
        <time>2012-08-07T08:57:21Z</time>
      </trkpt>
      <trkpt lat="44.30819" lon="6.15909">
        <ele>1202.2658691</ele>
        <time>2012-08-07T08:58:09Z</time>
      </trkpt>
      <trkpt lat="44.30819" lon="6.15909">
        <ele>1200.8239746</ele>
        <time>2012-08-07T08:58:11Z</time>
      </trkpt>
      <trkpt lat="44.30819" lon="6.15909">
        <ele>1202.746582</ele>
        <time>2012-08-07T08:58:26Z</time>
      </trkpt>
      <trkpt lat="44.30819" lon="6.15909">
        <ele>1203.2272949</ele>
        <time>2012-08-07T08:58:35Z</time>
      </trkpt>
      <trkpt lat="44.30819" lon="6.15908">
        <ele>1201.3046875</ele>
        <time>2012-08-07T08:58:37Z</time>
      </trkpt>
      <trkpt lat="44.3082" lon="6.15909">
        <ele>1201.7854004</ele>
        <time>2012-08-07T08:58:47Z</time>
      </trkpt>
      <trkpt lat="44.30821" lon="6.15905">
        <ele>1201.3046875</ele>
        <time>2012-08-07T08:58:58Z</time>
      </trkpt>
      <trkpt lat="44.30821" lon="6.15905">
        <ele>1199.862793</ele>
        <time>2012-08-07T08:59:01Z</time>
      </trkpt>
      <trkpt lat="44.30821" lon="6.15908">
        <ele>1199.3820801</ele>
        <time>2012-08-07T08:59:12Z</time>
      </trkpt>
      <trkpt lat="44.3082" lon="6.15909">
        <ele>1201.7854004</ele>
        <time>2012-08-07T08:59:24Z</time>
      </trkpt>
      <trkpt lat="44.3082" lon="6.15909">
        <ele>1200.3435059</ele>
        <time>2012-08-07T08:59:26Z</time>
      </trkpt>
      <trkpt lat="44.30822" lon="6.15906">
        <ele>1201.7854004</ele>
        <time>2012-08-07T08:59:49Z</time>
      </trkpt>
      <trkpt lat="44.30824" lon="6.15906">
        <ele>1201.7854004</ele>
        <time>2012-08-07T09:00:33Z</time>
      </trkpt>
      <trkpt lat="44.30822" lon="6.15905">
        <ele>1201.7854004</ele>
        <time>2012-08-07T09:01:17Z</time>
      </trkpt>
      <trkpt lat="44.30822" lon="6.159">
        <ele>1201.7854004</ele>
        <time>2012-08-07T09:01:43Z</time>
      </trkpt>
      <trkpt lat="44.30824" lon="6.1591">
        <ele>1202.2658691</ele>
        <time>2012-08-07T09:02:10Z</time>
      </trkpt>
      <trkpt lat="44.30821" lon="6.15911">
        <ele>1201.7854004</ele>
        <time>2012-08-07T09:02:39Z</time>
      </trkpt>
      <trkpt lat="44.30821" lon="6.15907">
        <ele>1202.746582</ele>
        <time>2012-08-07T09:02:58Z</time>
      </trkpt>
      <trkpt lat="44.30821" lon="6.15908">
        <ele>1202.746582</ele>
        <time>2012-08-07T09:03:46Z</time>
      </trkpt>
      <trkpt lat="44.30821" lon="6.1591">
        <ele>1203.2272949</ele>
        <time>2012-08-07T09:04:02Z</time>
      </trkpt>
      <trkpt lat="44.30814" lon="6.15913">
        <ele>1203.2272949</ele>
        <time>2012-08-07T09:04:06Z</time>
      </trkpt>
      <trkpt lat="44.30809" lon="6.15914">
        <ele>1203.2272949</ele>
        <time>2012-08-07T09:04:09Z</time>
      </trkpt>
      <trkpt lat="44.30801" lon="6.15925">
        <ele>1204.1887207</ele>
        <time>2012-08-07T09:04:15Z</time>
      </trkpt>
      <trkpt lat="44.30778" lon="6.15941">
        <ele>1205.6306152</ele>
        <time>2012-08-07T09:04:32Z</time>
      </trkpt>
      <trkpt lat="44.30764" lon="6.1595">
        <ele>1207.5532227</ele>
        <time>2012-08-07T09:04:47Z</time>
      </trkpt>
      <trkpt lat="44.30747" lon="6.15973">
        <ele>1208.5144043</ele>
        <time>2012-08-07T09:05:03Z</time>
      </trkpt>
      <trkpt lat="44.30742" lon="6.15991">
        <ele>1208.9951172</ele>
        <time>2012-08-07T09:05:12Z</time>
      </trkpt>
      <trkpt lat="44.30737" lon="6.16006">
        <ele>1209.4758301</ele>
        <time>2012-08-07T09:05:21Z</time>
      </trkpt>
      <trkpt lat="44.30735" lon="6.16011">
        <ele>1209.9562988</ele>
        <time>2012-08-07T09:05:25Z</time>
      </trkpt>
      <trkpt lat="44.3073" lon="6.16018">
        <ele>1210.9177246</ele>
        <time>2012-08-07T09:05:31Z</time>
      </trkpt>
      <trkpt lat="44.30725" lon="6.16021">
        <ele>1212.3598633</ele>
        <time>2012-08-07T09:05:37Z</time>
      </trkpt>
      <trkpt lat="44.30716" lon="6.16022">
        <ele>1212.8405762</ele>
        <time>2012-08-07T09:05:45Z</time>
      </trkpt>
      <trkpt lat="44.30714" lon="6.16027">
        <ele>1213.8017578</ele>
        <time>2012-08-07T09:05:49Z</time>
      </trkpt>
      <trkpt lat="44.30709" lon="6.1603">
        <ele>1214.2824707</ele>
        <time>2012-08-07T09:05:53Z</time>
      </trkpt>
      <trkpt lat="44.30696" lon="6.16052">
        <ele>1215.7246094</ele>
        <time>2012-08-07T09:06:10Z</time>
      </trkpt>
      <trkpt lat="44.30695" lon="6.16057">
        <ele>1215.7246094</ele>
        <time>2012-08-07T09:06:13Z</time>
      </trkpt>
      <trkpt lat="44.30692" lon="6.16066">
        <ele>1216.2050781</ele>
        <time>2012-08-07T09:06:19Z</time>
      </trkpt>
      <trkpt lat="44.30684" lon="6.16078">
        <ele>1216.2050781</ele>
        <time>2012-08-07T09:06:27Z</time>
      </trkpt>
      <trkpt lat="44.30656" lon="6.16081">
        <ele>1218.6083984</ele>
        <time>2012-08-07T09:06:48Z</time>
      </trkpt>
      <trkpt lat="44.30652" lon="6.16083">
        <ele>1219.0891113</ele>
        <time>2012-08-07T09:06:52Z</time>
      </trkpt>
      <trkpt lat="44.30643" lon="6.16092">
        <ele>1220.050293</ele>
        <time>2012-08-07T09:07:02Z</time>
      </trkpt>
      <trkpt lat="44.30632" lon="6.16109">
        <ele>1221.9729004</ele>
        <time>2012-08-07T09:07:15Z</time>
      </trkpt>
      <trkpt lat="44.3063" lon="6.16108">
        <ele>1221.9729004</ele>
        <time>2012-08-07T09:07:16Z</time>
      </trkpt>
      <trkpt lat="44.30627" lon="6.16115">
        <ele>1221.9729004</ele>
        <time>2012-08-07T09:07:22Z</time>
      </trkpt>
      <trkpt lat="44.30625" lon="6.16119">
        <ele>1222.4536133</ele>
        <time>2012-08-07T09:07:25Z</time>
      </trkpt>
      <trkpt lat="44.30622" lon="6.16121">
        <ele>1222.4536133</ele>
        <time>2012-08-07T09:07:27Z</time>
      </trkpt>
      <trkpt lat="44.30614" lon="6.16122">
        <ele>1223.4150391</ele>
        <time>2012-08-07T09:07:33Z</time>
      </trkpt>
      <trkpt lat="44.30604" lon="6.16126">
        <ele>1223.4150391</ele>
        <time>2012-08-07T09:07:42Z</time>
      </trkpt>
      <trkpt lat="44.30601" lon="6.1613">
        <ele>1223.4150391</ele>
        <time>2012-08-07T09:07:45Z</time>
      </trkpt>
      <trkpt lat="44.30592" lon="6.16135">
        <ele>1224.3762207</ele>
        <time>2012-08-07T09:07:53Z</time>
      </trkpt>
      <trkpt lat="44.3058" lon="6.16149">
        <ele>1225.8181152</ele>
        <time>2012-08-07T09:08:08Z</time>
      </trkpt>
      <trkpt lat="44.30576" lon="6.16145">
        <ele>1225.8181152</ele>
        <time>2012-08-07T09:08:09Z</time>
      </trkpt>
      <trkpt lat="44.30558" lon="6.16152">
        <ele>1226.779541</ele>
        <time>2012-08-07T09:08:24Z</time>
      </trkpt>
      <trkpt lat="44.30541" lon="6.16163">
        <ele>1228.7023926</ele>
        <time>2012-08-07T09:08:38Z</time>
      </trkpt>
      <trkpt lat="44.3054" lon="6.16166">
        <ele>1229.1828613</ele>
        <time>2012-08-07T09:08:41Z</time>
      </trkpt>
      <trkpt lat="44.3053" lon="6.16175">
        <ele>1229.6635742</ele>
        <time>2012-08-07T09:08:53Z</time>
      </trkpt>
      <trkpt lat="44.30517" lon="6.16198">
        <ele>1231.1057129</ele>
        <time>2012-08-07T09:09:07Z</time>
      </trkpt>
      <trkpt lat="44.30517" lon="6.16201">
        <ele>1231.5861816</ele>
        <time>2012-08-07T09:09:09Z</time>
      </trkpt>
      <trkpt lat="44.30505" lon="6.16224">
        <ele>1232.5476074</ele>
        <time>2012-08-07T09:09:25Z</time>
      </trkpt>
      <trkpt lat="44.30495" lon="6.16243">
        <ele>1233.989502</ele>
        <time>2012-08-07T09:09:39Z</time>
      </trkpt>
      <trkpt lat="44.3049" lon="6.16269">
        <ele>1234.9509277</ele>
        <time>2012-08-07T09:09:53Z</time>
      </trkpt>
      <trkpt lat="44.30478" lon="6.16275">
        <ele>1235.9121094</ele>
        <time>2012-08-07T09:10:03Z</time>
      </trkpt>
      <trkpt lat="44.30466" lon="6.16292">
        <ele>1237.3540039</ele>
        <time>2012-08-07T09:10:18Z</time>
      </trkpt>
      <trkpt lat="44.30453" lon="6.1631">
        <ele>1238.7961426</ele>
        <time>2012-08-07T09:10:35Z</time>
      </trkpt>
      <trkpt lat="44.30451" lon="6.16317">
        <ele>1239.2766113</ele>
        <time>2012-08-07T09:10:39Z</time>
      </trkpt>
      <trkpt lat="44.30447" lon="6.16342">
        <ele>1240.7185059</ele>
        <time>2012-08-07T09:10:52Z</time>
      </trkpt>
      <trkpt lat="44.30448" lon="6.16353">
        <ele>1242.1606445</ele>
        <time>2012-08-07T09:11:02Z</time>
      </trkpt>
      <trkpt lat="44.30445" lon="6.16362">
        <ele>1243.1218262</ele>
        <time>2012-08-07T09:11:08Z</time>
      </trkpt>
      <trkpt lat="44.3044" lon="6.16382">
        <ele>1243.6025391</ele>
        <time>2012-08-07T09:11:22Z</time>
      </trkpt>
      <trkpt lat="44.30437" lon="6.16388">
        <ele>1244.0834961</ele>
        <time>2012-08-07T09:11:25Z</time>
      </trkpt>
      <trkpt lat="44.30433" lon="6.16396">
        <ele>1244.5639648</ele>
        <time>2012-08-07T09:11:33Z</time>
      </trkpt>
      <trkpt lat="44.30426" lon="6.16422">
        <ele>1245.5253906</ele>
        <time>2012-08-07T09:11:48Z</time>
      </trkpt>
      <trkpt lat="44.30421" lon="6.16427">
        <ele>1246.0061035</ele>
        <time>2012-08-07T09:11:53Z</time>
      </trkpt>
      <trkpt lat="44.30418" lon="6.16432">
        <ele>1246.4868164</ele>
        <time>2012-08-07T09:11:58Z</time>
      </trkpt>
      <trkpt lat="44.30401" lon="6.1645">
        <ele>1247.9287109</ele>
        <time>2012-08-07T09:12:15Z</time>
      </trkpt>
      <trkpt lat="44.30392" lon="6.16454">
        <ele>1248.4091797</ele>
        <time>2012-08-07T09:12:21Z</time>
      </trkpt>
      <trkpt lat="44.30386" lon="6.16457">
        <ele>1248.8898926</ele>
        <time>2012-08-07T09:12:25Z</time>
      </trkpt>
      <trkpt lat="44.30382" lon="6.1646">
        <ele>1249.3706055</ele>
        <time>2012-08-07T09:12:31Z</time>
      </trkpt>
      <trkpt lat="44.30374" lon="6.16467">
        <ele>1250.3320313</ele>
        <time>2012-08-07T09:12:39Z</time>
      </trkpt>
      <trkpt lat="44.30364" lon="6.16473">
        <ele>1250.8125</ele>
        <time>2012-08-07T09:12:49Z</time>
      </trkpt>
      <trkpt lat="44.30346" lon="6.16488">
        <ele>1252.2543945</ele>
        <time>2012-08-07T09:13:06Z</time>
      </trkpt>
      <trkpt lat="44.30336" lon="6.16486">
        <ele>1252.7351074</ele>
        <time>2012-08-07T09:13:11Z</time>
      </trkpt>
      <trkpt lat="44.30319" lon="6.1648">
        <ele>1253.6965332</ele>
        <time>2012-08-07T09:13:24Z</time>
      </trkpt>
      <trkpt lat="44.30314" lon="6.1648">
        <ele>1254.1772461</ele>
        <time>2012-08-07T09:13:29Z</time>
      </trkpt>
      <trkpt lat="44.30299" lon="6.16486">
        <ele>1256.0996094</ele>
        <time>2012-08-07T09:13:44Z</time>
      </trkpt>
      <trkpt lat="44.30295" lon="6.1649">
        <ele>1255.6191406</ele>
        <time>2012-08-07T09:13:48Z</time>
      </trkpt>
      <trkpt lat="44.30281" lon="6.16506">
        <ele>1256.5803223</ele>
        <time>2012-08-07T09:14:05Z</time>
      </trkpt>
      <trkpt lat="44.30265" lon="6.16522">
        <ele>1258.9836426</ele>
        <time>2012-08-07T09:14:22Z</time>
      </trkpt>
      <trkpt lat="44.30261" lon="6.16532">
        <ele>1259.4643555</ele>
        <time>2012-08-07T09:14:28Z</time>
      </trkpt>
      <trkpt lat="44.30254" lon="6.16567">
        <ele>1261.387207</ele>
        <time>2012-08-07T09:14:47Z</time>
      </trkpt>
      <trkpt lat="44.30237" lon="6.16593">
        <ele>1263.3098145</ele>
        <time>2012-08-07T09:15:06Z</time>
      </trkpt>
      <trkpt lat="44.30232" lon="6.16598">
        <ele>1263.7902832</ele>
        <time>2012-08-07T09:15:11Z</time>
      </trkpt>
      <trkpt lat="44.30225" lon="6.16614">
        <ele>1265.2324219</ele>
        <time>2012-08-07T09:15:22Z</time>
      </trkpt>
      <trkpt lat="44.30222" lon="6.16621">
        <ele>1265.2324219</ele>
        <time>2012-08-07T09:15:29Z</time>
      </trkpt>
      <trkpt lat="44.30221" lon="6.16635">
        <ele>1266.6743164</ele>
        <time>2012-08-07T09:15:40Z</time>
      </trkpt>
      <trkpt lat="44.30211" lon="6.16653">
        <ele>1268.1162109</ele>
        <time>2012-08-07T09:15:51Z</time>
      </trkpt>
      <trkpt lat="44.30208" lon="6.16656">
        <ele>1268.1162109</ele>
        <time>2012-08-07T09:15:54Z</time>
      </trkpt>
      <trkpt lat="44.30199" lon="6.16665">
        <ele>1270.0388184</ele>
        <time>2012-08-07T09:16:03Z</time>
      </trkpt>
      <trkpt lat="44.30186" lon="6.16685">
        <ele>1271.9614258</ele>
        <time>2012-08-07T09:16:20Z</time>
      </trkpt>
      <trkpt lat="44.30178" lon="6.167">
        <ele>1273.8840332</ele>
        <time>2012-08-07T09:16:31Z</time>
      </trkpt>
      <trkpt lat="44.30172" lon="6.16703">
        <ele>1273.8840332</ele>
        <time>2012-08-07T09:16:37Z</time>
      </trkpt>
      <trkpt lat="44.30166" lon="6.16708">
        <ele>1274.845459</ele>
        <time>2012-08-07T09:16:43Z</time>
      </trkpt>
      <trkpt lat="44.3015" lon="6.16706">
        <ele>1277.7294922</ele>
        <time>2012-08-07T09:16:59Z</time>
      </trkpt>
      <trkpt lat="44.30139" lon="6.16708">
        <ele>1278.690918</ele>
        <time>2012-08-07T09:17:10Z</time>
      </trkpt>
      <trkpt lat="44.30135" lon="6.16712">
        <ele>1279.1713867</ele>
        <time>2012-08-07T09:17:12Z</time>
      </trkpt>
      <trkpt lat="44.30131" lon="6.16713">
        <ele>1279.1713867</ele>
        <time>2012-08-07T09:17:16Z</time>
      </trkpt>
      <trkpt lat="44.30119" lon="6.16719">
        <ele>1281.0942383</ele>
        <time>2012-08-07T09:17:32Z</time>
      </trkpt>
      <trkpt lat="44.30104" lon="6.16733">
        <ele>1282.5361328</ele>
        <time>2012-08-07T09:17:48Z</time>
      </trkpt>
      <trkpt lat="44.30102" lon="6.16744">
        <ele>1283.4973145</ele>
        <time>2012-08-07T09:17:52Z</time>
      </trkpt>
      <trkpt lat="44.30094" lon="6.16769">
        <ele>1285.4199219</ele>
        <time>2012-08-07T09:18:09Z</time>
      </trkpt>
      <trkpt lat="44.30084" lon="6.16777">
        <ele>1286.3813477</ele>
        <time>2012-08-07T09:18:18Z</time>
      </trkpt>
      <trkpt lat="44.3008" lon="6.16779">
        <ele>1286.8618164</ele>
        <time>2012-08-07T09:18:22Z</time>
      </trkpt>
      <trkpt lat="44.30065" lon="6.168">
        <ele>1288.3039551</ele>
        <time>2012-08-07T09:18:39Z</time>
      </trkpt>
      <trkpt lat="44.30062" lon="6.16821">
        <ele>1289.7458496</ele>
        <time>2012-08-07T09:18:51Z</time>
      </trkpt>
      <trkpt lat="44.30058" lon="6.16847">
        <ele>1291.1877441</ele>
        <time>2012-08-07T09:19:06Z</time>
      </trkpt>
      <trkpt lat="44.30059" lon="6.16864">
        <ele>1292.1494141</ele>
        <time>2012-08-07T09:19:17Z</time>
      </trkpt>
      <trkpt lat="44.30056" lon="6.16868">
        <ele>1292.1494141</ele>
        <time>2012-08-07T09:19:21Z</time>
      </trkpt>
      <trkpt lat="44.30049" lon="6.16897">
        <ele>1294.0720215</ele>
        <time>2012-08-07T09:19:38Z</time>
      </trkpt>
      <trkpt lat="44.30045" lon="6.16907">
        <ele>1295.0332031</ele>
        <time>2012-08-07T09:19:45Z</time>
      </trkpt>
      <trkpt lat="44.30037" lon="6.16918">
        <ele>1295.513916</ele>
        <time>2012-08-07T09:19:52Z</time>
      </trkpt>
      <trkpt lat="44.30035" lon="6.16922">
        <ele>1295.9946289</ele>
        <time>2012-08-07T09:19:56Z</time>
      </trkpt>
      <trkpt lat="44.30029" lon="6.16935">
        <ele>1296.4753418</ele>
        <time>2012-08-07T09:20:06Z</time>
      </trkpt>
      <trkpt lat="44.30023" lon="6.16949">
        <ele>1297.4365234</ele>
        <time>2012-08-07T09:20:15Z</time>
      </trkpt>
      <trkpt lat="44.30021" lon="6.16958">
        <ele>1297.9172363</ele>
        <time>2012-08-07T09:20:22Z</time>
      </trkpt>
      <trkpt lat="44.30016" lon="6.16975">
        <ele>1298.878418</ele>
        <time>2012-08-07T09:20:32Z</time>
      </trkpt>
      <trkpt lat="44.30017" lon="6.16992">
        <ele>1299.8398438</ele>
        <time>2012-08-07T09:20:42Z</time>
      </trkpt>
      <trkpt lat="44.30018" lon="6.16998">
        <ele>1299.3591309</ele>
        <time>2012-08-07T09:20:45Z</time>
      </trkpt>
      <trkpt lat="44.30011" lon="6.17015">
        <ele>1300.8010254</ele>
        <time>2012-08-07T09:20:56Z</time>
      </trkpt>
      <trkpt lat="44.30007" lon="6.1702">
        <ele>1300.8010254</ele>
        <time>2012-08-07T09:21:01Z</time>
      </trkpt>
      <trkpt lat="44.29999" lon="6.17026">
        <ele>1301.7624512</ele>
        <time>2012-08-07T09:21:09Z</time>
      </trkpt>
      <trkpt lat="44.2999" lon="6.17044">
        <ele>1303.2043457</ele>
        <time>2012-08-07T09:21:23Z</time>
      </trkpt>
      <trkpt lat="44.29989" lon="6.1705">
        <ele>1303.2043457</ele>
        <time>2012-08-07T09:21:27Z</time>
      </trkpt>
      <trkpt lat="44.29981" lon="6.17074">
        <ele>1303.6850586</ele>
        <time>2012-08-07T09:21:41Z</time>
      </trkpt>
      <trkpt lat="44.29975" lon="6.17093">
        <ele>1305.1269531</ele>
        <time>2012-08-07T09:21:54Z</time>
      </trkpt>
      <trkpt lat="44.29978" lon="6.17114">
        <ele>1306.0881348</ele>
        <time>2012-08-07T09:22:06Z</time>
      </trkpt>
      <trkpt lat="44.29979" lon="6.17119">
        <ele>1306.0881348</ele>
        <time>2012-08-07T09:22:09Z</time>
      </trkpt>
      <trkpt lat="44.29982" lon="6.17142">
        <ele>1308.0112305</ele>
        <time>2012-08-07T09:22:22Z</time>
      </trkpt>
      <trkpt lat="44.29981" lon="6.17154">
        <ele>1308.9724121</ele>
        <time>2012-08-07T09:22:29Z</time>
      </trkpt>
      <trkpt lat="44.2998" lon="6.17181">
        <ele>1311.3757324</ele>
        <time>2012-08-07T09:22:45Z</time>
      </trkpt>
      <trkpt lat="44.29979" lon="6.17191">
        <ele>1311.8564453</ele>
        <time>2012-08-07T09:22:51Z</time>
      </trkpt>
      <trkpt lat="44.29974" lon="6.17205">
        <ele>1313.7788086</ele>
        <time>2012-08-07T09:23:03Z</time>
      </trkpt>
      <trkpt lat="44.29972" lon="6.17233">
        <ele>1315.7016602</ele>
        <time>2012-08-07T09:23:22Z</time>
      </trkpt>
      <trkpt lat="44.29975" lon="6.17248">
        <ele>1317.1435547</ele>
        <time>2012-08-07T09:23:32Z</time>
      </trkpt>
      <trkpt lat="44.29969" lon="6.17272">
        <ele>1318.5854492</ele>
        <time>2012-08-07T09:23:48Z</time>
      </trkpt>
      <trkpt lat="44.29965" lon="6.17278">
        <ele>1318.5854492</ele>
        <time>2012-08-07T09:23:54Z</time>
      </trkpt>
      <trkpt lat="44.29955" lon="6.17299">
        <ele>1320.5080566</ele>
        <time>2012-08-07T09:24:10Z</time>
      </trkpt>
      <trkpt lat="44.29946" lon="6.17324">
        <ele>1322.4306641</ele>
        <time>2012-08-07T09:24:29Z</time>
      </trkpt>
      <trkpt lat="44.2994" lon="6.1734">
        <ele>1323.8725586</ele>
        <time>2012-08-07T09:24:39Z</time>
      </trkpt>
      <trkpt lat="44.29939" lon="6.17345">
        <ele>1324.3535156</ele>
        <time>2012-08-07T09:24:42Z</time>
      </trkpt>
      <trkpt lat="44.29932" lon="6.17358">
        <ele>1324.8342285</ele>
        <time>2012-08-07T09:24:52Z</time>
      </trkpt>
      <trkpt lat="44.29929" lon="6.17363">
        <ele>1325.7954102</ele>
        <time>2012-08-07T09:24:56Z</time>
      </trkpt>
      <trkpt lat="44.29924" lon="6.17371">
        <ele>1326.276123</ele>
        <time>2012-08-07T09:25:03Z</time>
      </trkpt>
      <trkpt lat="44.29921" lon="6.17379">
        <ele>1326.276123</ele>
        <time>2012-08-07T09:25:09Z</time>
      </trkpt>
      <trkpt lat="44.29918" lon="6.17382">
        <ele>1326.7568359</ele>
        <time>2012-08-07T09:25:12Z</time>
      </trkpt>
      <trkpt lat="44.29915" lon="6.17395">
        <ele>1327.2375488</ele>
        <time>2012-08-07T09:25:21Z</time>
      </trkpt>
      <trkpt lat="44.29911" lon="6.17403">
        <ele>1328.1987305</ele>
        <time>2012-08-07T09:25:26Z</time>
      </trkpt>
      <trkpt lat="44.299" lon="6.17415">
        <ele>1329.1599121</ele>
        <time>2012-08-07T09:25:38Z</time>
      </trkpt>
      <trkpt lat="44.2989" lon="6.17428">
        <ele>1330.1213379</ele>
        <time>2012-08-07T09:25:48Z</time>
      </trkpt>
      <trkpt lat="44.29885" lon="6.17437">
        <ele>1330.6020508</ele>
        <time>2012-08-07T09:25:55Z</time>
      </trkpt>
      <trkpt lat="44.29882" lon="6.17446">
        <ele>1331.0827637</ele>
        <time>2012-08-07T09:26:01Z</time>
      </trkpt>
      <trkpt lat="44.29878" lon="6.17452">
        <ele>1332.0439453</ele>
        <time>2012-08-07T09:26:07Z</time>
      </trkpt>
      <trkpt lat="44.29876" lon="6.17456">
        <ele>1332.0439453</ele>
        <time>2012-08-07T09:26:09Z</time>
      </trkpt>
      <trkpt lat="44.29863" lon="6.17468">
        <ele>1333.005127</ele>
        <time>2012-08-07T09:26:23Z</time>
      </trkpt>
      <trkpt lat="44.29858" lon="6.17477">
        <ele>1333.4858398</ele>
        <time>2012-08-07T09:26:29Z</time>
      </trkpt>
      <trkpt lat="44.29854" lon="6.17483">
        <ele>1333.9665527</ele>
        <time>2012-08-07T09:26:35Z</time>
      </trkpt>
      <trkpt lat="44.29851" lon="6.1751">
        <ele>1335.4084473</ele>
        <time>2012-08-07T09:26:49Z</time>
      </trkpt>
      <trkpt lat="44.29848" lon="6.17517">
        <ele>1335.8891602</ele>
        <time>2012-08-07T09:26:54Z</time>
      </trkpt>
      <trkpt lat="44.29848" lon="6.17521">
        <ele>1336.369873</ele>
        <time>2012-08-07T09:26:58Z</time>
      </trkpt>
      <trkpt lat="44.29847" lon="6.17526">
        <ele>1336.8503418</ele>
        <time>2012-08-07T09:27:02Z</time>
      </trkpt>
      <trkpt lat="44.29846" lon="6.17537">
        <ele>1336.8503418</ele>
        <time>2012-08-07T09:27:07Z</time>
      </trkpt>
      <trkpt lat="44.29843" lon="6.1755">
        <ele>1337.8117676</ele>
        <time>2012-08-07T09:27:16Z</time>
      </trkpt>
      <trkpt lat="44.29839" lon="6.17555">
        <ele>1337.8117676</ele>
        <time>2012-08-07T09:27:22Z</time>
      </trkpt>
      <trkpt lat="44.29838" lon="6.17557">
        <ele>1338.2924805</ele>
        <time>2012-08-07T09:27:24Z</time>
      </trkpt>
      <trkpt lat="44.29834" lon="6.1758">
        <ele>1340.215332</ele>
        <time>2012-08-07T09:27:40Z</time>
      </trkpt>
      <trkpt lat="44.29832" lon="6.17583">
        <ele>1340.215332</ele>
        <time>2012-08-07T09:27:43Z</time>
      </trkpt>
      <trkpt lat="44.29831" lon="6.17587">
        <ele>1340.6958008</ele>
        <time>2012-08-07T09:27:47Z</time>
      </trkpt>
      <trkpt lat="44.29829" lon="6.1761">
        <ele>1342.1379395</ele>
        <time>2012-08-07T09:28:01Z</time>
      </trkpt>
      <trkpt lat="44.29829" lon="6.17615">
        <ele>1342.1379395</ele>
        <time>2012-08-07T09:28:05Z</time>
      </trkpt>
      <trkpt lat="44.2983" lon="6.1762">
        <ele>1342.6186523</ele>
        <time>2012-08-07T09:28:08Z</time>
      </trkpt>
      <trkpt lat="44.29838" lon="6.17634">
        <ele>1343.0991211</ele>
        <time>2012-08-07T09:28:20Z</time>
      </trkpt>
      <trkpt lat="44.29842" lon="6.1767">
        <ele>1343.0991211</ele>
        <time>2012-08-07T09:28:34Z</time>
      </trkpt>
      <trkpt lat="44.29841" lon="6.17672">
        <ele>1343.0991211</ele>
        <time>2012-08-07T09:28:35Z</time>
      </trkpt>
      <trkpt lat="44.29833" lon="6.17703">
        <ele>1342.6186523</ele>
        <time>2012-08-07T09:28:48Z</time>
      </trkpt>
      <trkpt lat="44.29831" lon="6.1771">
        <ele>1343.0991211</ele>
        <time>2012-08-07T09:28:51Z</time>
      </trkpt>
      <trkpt lat="44.29825" lon="6.17722">
        <ele>1343.0991211</ele>
        <time>2012-08-07T09:28:58Z</time>
      </trkpt>
      <trkpt lat="44.29813" lon="6.17754">
        <ele>1343.0991211</ele>
        <time>2012-08-07T09:29:14Z</time>
      </trkpt>
      <trkpt lat="44.2983" lon="6.1779">
        <ele>1344.5410156</ele>
        <time>2012-08-07T09:29:33Z</time>
      </trkpt>
      <trkpt lat="44.29832" lon="6.17796">
        <ele>1345.0217285</ele>
        <time>2012-08-07T09:29:36Z</time>
      </trkpt>
      <trkpt lat="44.29834" lon="6.178">
        <ele>1345.0217285</ele>
        <time>2012-08-07T09:29:38Z</time>
      </trkpt>
      <trkpt lat="44.2984" lon="6.17827">
        <ele>1346.4638672</ele>
        <time>2012-08-07T09:29:52Z</time>
      </trkpt>
      <trkpt lat="44.29843" lon="6.17838">
        <ele>1346.4638672</ele>
        <time>2012-08-07T09:29:59Z</time>
      </trkpt>
      <trkpt lat="44.29844" lon="6.17843">
        <ele>1346.9443359</ele>
        <time>2012-08-07T09:30:02Z</time>
      </trkpt>
      <trkpt lat="44.29845" lon="6.17845">
        <ele>1347.4250488</ele>
        <time>2012-08-07T09:30:04Z</time>
      </trkpt>
      <trkpt lat="44.29846" lon="6.17865">
        <ele>1347.4250488</ele>
        <time>2012-08-07T09:30:16Z</time>
      </trkpt>
      <trkpt lat="44.29848" lon="6.17873">
        <ele>1347.9057617</ele>
        <time>2012-08-07T09:30:20Z</time>
      </trkpt>
      <trkpt lat="44.29854" lon="6.17889">
        <ele>1346.9443359</ele>
        <time>2012-08-07T09:30:27Z</time>
      </trkpt>
      <trkpt lat="44.29864" lon="6.17917">
        <ele>1346.4638672</ele>
        <time>2012-08-07T09:30:34Z</time>
      </trkpt>
      <trkpt lat="44.29858" lon="6.17934">
        <ele>1346.4638672</ele>
        <time>2012-08-07T09:30:43Z</time>
      </trkpt>
      <trkpt lat="44.29859" lon="6.17935">
        <ele>1346.4638672</ele>
        <time>2012-08-07T09:30:54Z</time>
      </trkpt>
      <trkpt lat="44.29857" lon="6.17938">
        <ele>1346.9443359</ele>
        <time>2012-08-07T09:31:11Z</time>
      </trkpt>
      <trkpt lat="44.29857" lon="6.17938">
        <ele>1346.9443359</ele>
        <time>2012-08-07T09:31:32Z</time>
      </trkpt>
      <trkpt lat="44.29845" lon="6.17936">
        <ele>1347.9057617</ele>
        <time>2012-08-07T09:31:42Z</time>
      </trkpt>
      <trkpt lat="44.29832" lon="6.17939">
        <ele>1349.3476563</ele>
        <time>2012-08-07T09:31:52Z</time>
      </trkpt>
      <trkpt lat="44.2983" lon="6.1794">
        <ele>1349.3476563</ele>
        <time>2012-08-07T09:31:54Z</time>
      </trkpt>
      <trkpt lat="44.29826" lon="6.17946">
        <ele>1349.8283691</ele>
        <time>2012-08-07T09:31:58Z</time>
      </trkpt>
      <trkpt lat="44.29814" lon="6.17963">
        <ele>1352.7121582</ele>
        <time>2012-08-07T09:32:14Z</time>
      </trkpt>
      <trkpt lat="44.29804" lon="6.17981">
        <ele>1354.1542969</ele>
        <time>2012-08-07T09:32:28Z</time>
      </trkpt>
      <trkpt lat="44.29798" lon="6.18001">
        <ele>1355.5961914</ele>
        <time>2012-08-07T09:32:43Z</time>
      </trkpt>
      <trkpt lat="44.29788" lon="6.18031">
        <ele>1356.5576172</ele>
        <time>2012-08-07T09:32:57Z</time>
      </trkpt>
      <trkpt lat="44.29782" lon="6.18045">
        <ele>1355.5961914</ele>
        <time>2012-08-07T09:33:03Z</time>
      </trkpt>
      <trkpt lat="44.29771" lon="6.18064">
        <ele>1354.1542969</ele>
        <time>2012-08-07T09:33:10Z</time>
      </trkpt>
      <trkpt lat="44.29758" lon="6.18102">
        <ele>1351.7509766</ele>
        <time>2012-08-07T09:33:20Z</time>
      </trkpt>
      <trkpt lat="44.29755" lon="6.18104">
        <ele>1351.7509766</ele>
        <time>2012-08-07T09:33:21Z</time>
      </trkpt>
      <trkpt lat="44.29743" lon="6.1812">
        <ele>1350.309082</ele>
        <time>2012-08-07T09:33:24Z</time>
      </trkpt>
      <trkpt lat="44.29734" lon="6.18124">
        <ele>1349.8283691</ele>
        <time>2012-08-07T09:33:26Z</time>
      </trkpt>
      <trkpt lat="44.29688" lon="6.18144">
        <ele>1350.309082</ele>
        <time>2012-08-07T09:33:38Z</time>
      </trkpt>
      <trkpt lat="44.29665" lon="6.18142">
        <ele>1350.309082</ele>
        <time>2012-08-07T09:33:51Z</time>
      </trkpt>
      <trkpt lat="44.29634" lon="6.1814">
        <ele>1351.2702637</ele>
        <time>2012-08-07T09:34:10Z</time>
      </trkpt>
      <trkpt lat="44.29608" lon="6.18152">
        <ele>1352.7121582</ele>
        <time>2012-08-07T09:34:23Z</time>
      </trkpt>
      <trkpt lat="44.29583" lon="6.18165">
        <ele>1354.6347656</ele>
        <time>2012-08-07T09:34:40Z</time>
      </trkpt>
      <trkpt lat="44.29574" lon="6.18169">
        <ele>1354.1542969</ele>
        <time>2012-08-07T09:34:45Z</time>
      </trkpt>
      <trkpt lat="44.29568" lon="6.18173">
        <ele>1355.1154785</ele>
        <time>2012-08-07T09:34:51Z</time>
      </trkpt>
      <trkpt lat="44.29561" lon="6.1818">
        <ele>1355.1154785</ele>
        <time>2012-08-07T09:34:55Z</time>
      </trkpt>
      <trkpt lat="44.29561" lon="6.1818">
        <ele>1355.5961914</ele>
        <time>2012-08-07T09:34:59Z</time>
      </trkpt>
      <trkpt lat="44.29538" lon="6.18215">
        <ele>1356.0769043</ele>
        <time>2012-08-07T09:35:15Z</time>
      </trkpt>
      <trkpt lat="44.29531" lon="6.18231">
        <ele>1356.5576172</ele>
        <time>2012-08-07T09:35:19Z</time>
      </trkpt>
      <trkpt lat="44.29518" lon="6.18237">
        <ele>1357.9997559</ele>
        <time>2012-08-07T09:35:37Z</time>
      </trkpt>
      <trkpt lat="44.29518" lon="6.18237">
        <ele>1358.4802246</ele>
        <time>2012-08-07T09:35:45Z</time>
      </trkpt>
      <trkpt lat="44.29513" lon="6.18292">
        <ele>1359.9221191</ele>
        <time>2012-08-07T09:36:02Z</time>
      </trkpt>
      <trkpt lat="44.29513" lon="6.18292">
        <ele>1362.8061523</ele>
        <time>2012-08-07T09:36:22Z</time>
      </trkpt>
      <trkpt lat="44.29513" lon="6.18292">
        <ele>1365.2094727</ele>
        <time>2012-08-07T09:36:40Z</time>
      </trkpt>
      <trkpt lat="44.29513" lon="6.18292">
        <ele>1367.1320801</ele>
        <time>2012-08-07T09:36:53Z</time>
      </trkpt>
      <trkpt lat="44.29513" lon="6.18292">
        <ele>1368.5739746</ele>
        <time>2012-08-07T09:37:07Z</time>
      </trkpt>
      <trkpt lat="44.29513" lon="6.18292">
        <ele>1368.5739746</ele>
        <time>2012-08-07T09:37:11Z</time>
      </trkpt>
      <trkpt lat="44.29431" lon="6.18379">
        <ele>1369.5354004</ele>
        <time>2012-08-07T09:37:18Z</time>
      </trkpt>
      <trkpt lat="44.29429" lon="6.18381">
        <ele>1369.5354004</ele>
        <time>2012-08-07T09:37:20Z</time>
      </trkpt>
      <trkpt lat="44.29427" lon="6.18382">
        <ele>1370.0158691</ele>
        <time>2012-08-07T09:37:22Z</time>
      </trkpt>
      <trkpt lat="44.29424" lon="6.18383">
        <ele>1370.0158691</ele>
        <time>2012-08-07T09:37:25Z</time>
      </trkpt>
      <trkpt lat="44.29409" lon="6.18393">
        <ele>1371.4577637</ele>
        <time>2012-08-07T09:37:43Z</time>
      </trkpt>
      <trkpt lat="44.29406" lon="6.18399">
        <ele>1372.4194336</ele>
        <time>2012-08-07T09:37:48Z</time>
      </trkpt>
      <trkpt lat="44.29397" lon="6.18424">
        <ele>1373.8613281</ele>
        <time>2012-08-07T09:38:04Z</time>
      </trkpt>
      <trkpt lat="44.29386" lon="6.1844">
        <ele>1374.342041</ele>
        <time>2012-08-07T09:38:13Z</time>
      </trkpt>
      <trkpt lat="44.29367" lon="6.1845">
        <ele>1375.3032227</ele>
        <time>2012-08-07T09:38:31Z</time>
      </trkpt>
      <trkpt lat="44.2936" lon="6.18468">
        <ele>1377.2260742</ele>
        <time>2012-08-07T09:38:45Z</time>
      </trkpt>
      <trkpt lat="44.29352" lon="6.18489">
        <ele>1379.1484375</ele>
        <time>2012-08-07T09:38:50Z</time>
      </trkpt>
      <trkpt lat="44.2935" lon="6.18493">
        <ele>1377.2260742</ele>
        <time>2012-08-07T09:38:52Z</time>
      </trkpt>
      <trkpt lat="44.29348" lon="6.18497">
        <ele>1379.1484375</ele>
        <time>2012-08-07T09:38:54Z</time>
      </trkpt>
      <trkpt lat="44.29346" lon="6.18497">
        <ele>1378.1872559</ele>
        <time>2012-08-07T09:39:06Z</time>
      </trkpt>
      <trkpt lat="44.29335" lon="6.1851">
        <ele>1379.1484375</ele>
        <time>2012-08-07T09:39:34Z</time>
      </trkpt>
      <trkpt lat="44.29316" lon="6.18524">
        <ele>1380.5905762</ele>
        <time>2012-08-07T09:39:53Z</time>
      </trkpt>
      <trkpt lat="44.29314" lon="6.18524">
        <ele>1382.5131836</ele>
        <time>2012-08-07T09:39:55Z</time>
      </trkpt>
      <trkpt lat="44.29312" lon="6.18524">
        <ele>1381.0712891</ele>
        <time>2012-08-07T09:39:57Z</time>
      </trkpt>
      <trkpt lat="44.29307" lon="6.18525">
        <ele>1380.5905762</ele>
        <time>2012-08-07T09:40:01Z</time>
      </trkpt>
      <trkpt lat="44.29305" lon="6.18527">
        <ele>1382.5131836</ele>
        <time>2012-08-07T09:40:03Z</time>
      </trkpt>
      <trkpt lat="44.293" lon="6.18528">
        <ele>1382.5131836</ele>
        <time>2012-08-07T09:40:07Z</time>
      </trkpt>
      <trkpt lat="44.29297" lon="6.1853">
        <ele>1381.5517578</ele>
        <time>2012-08-07T09:40:11Z</time>
      </trkpt>
      <trkpt lat="44.29295" lon="6.18531">
        <ele>1381.0712891</ele>
        <time>2012-08-07T09:40:13Z</time>
      </trkpt>
      <trkpt lat="44.29293" lon="6.18534">
        <ele>1382.5131836</ele>
        <time>2012-08-07T09:40:16Z</time>
      </trkpt>
      <trkpt lat="44.29291" lon="6.18537">
        <ele>1383.9550781</ele>
        <time>2012-08-07T09:40:18Z</time>
      </trkpt>
      <trkpt lat="44.2929" lon="6.1854">
        <ele>1382.0324707</ele>
        <time>2012-08-07T09:40:20Z</time>
      </trkpt>
      <trkpt lat="44.29286" lon="6.18546">
        <ele>1384.9165039</ele>
        <time>2012-08-07T09:40:26Z</time>
      </trkpt>
      <trkpt lat="44.29286" lon="6.18547">
        <ele>1384.9165039</ele>
        <time>2012-08-07T09:40:27Z</time>
      </trkpt>
      <trkpt lat="44.29284" lon="6.18547">
        <ele>1382.9936523</ele>
        <time>2012-08-07T09:40:29Z</time>
      </trkpt>
      <trkpt lat="44.29271" lon="6.18551">
        <ele>1382.9936523</ele>
        <time>2012-08-07T09:40:39Z</time>
      </trkpt>
      <trkpt lat="44.29272" lon="6.18542">
        <ele>1385.3969727</ele>
        <time>2012-08-07T09:40:43Z</time>
      </trkpt>
      <trkpt lat="44.29273" lon="6.18538">
        <ele>1385.3969727</ele>
        <time>2012-08-07T09:40:45Z</time>
      </trkpt>
      <trkpt lat="44.29279" lon="6.18522">
        <ele>1384.9165039</ele>
        <time>2012-08-07T09:40:55Z</time>
      </trkpt>
      <trkpt lat="44.29283" lon="6.18508">
        <ele>1385.3969727</ele>
        <time>2012-08-07T09:41:06Z</time>
      </trkpt>
      <trkpt lat="44.29291" lon="6.18498">
        <ele>1385.8776855</ele>
        <time>2012-08-07T09:41:13Z</time>
      </trkpt>
      <trkpt lat="44.29293" lon="6.18494">
        <ele>1386.3583984</ele>
        <time>2012-08-07T09:41:18Z</time>
      </trkpt>
      <trkpt lat="44.29295" lon="6.18491">
        <ele>1386.8388672</ele>
        <time>2012-08-07T09:41:20Z</time>
      </trkpt>
      <trkpt lat="44.29298" lon="6.18483">
        <ele>1387.3195801</ele>
        <time>2012-08-07T09:41:28Z</time>
      </trkpt>
      <trkpt lat="44.293" lon="6.18478">
        <ele>1387.800293</ele>
        <time>2012-08-07T09:41:30Z</time>
      </trkpt>
      <trkpt lat="44.2931" lon="6.18449">
        <ele>1389.2424316</ele>
        <time>2012-08-07T09:41:44Z</time>
      </trkpt>
      <trkpt lat="44.29315" lon="6.18428">
        <ele>1389.7231445</ele>
        <time>2012-08-07T09:42:02Z</time>
      </trkpt>
      <trkpt lat="44.29315" lon="6.18427">
        <ele>1390.6843262</ele>
        <time>2012-08-07T09:42:04Z</time>
      </trkpt>
      <trkpt lat="44.29315" lon="6.1842">
        <ele>1391.1650391</ele>
        <time>2012-08-07T09:42:08Z</time>
      </trkpt>
      <trkpt lat="44.29313" lon="6.18415">
        <ele>1390.6843262</ele>
        <time>2012-08-07T09:42:11Z</time>
      </trkpt>
      <trkpt lat="44.29302" lon="6.18402">
        <ele>1392.1264648</ele>
        <time>2012-08-07T09:42:27Z</time>
      </trkpt>
      <trkpt lat="44.29299" lon="6.18399">
        <ele>1393.5683594</ele>
        <time>2012-08-07T09:42:30Z</time>
      </trkpt>
      <trkpt lat="44.29288" lon="6.18394">
        <ele>1393.5683594</ele>
        <time>2012-08-07T09:42:39Z</time>
      </trkpt>
      <trkpt lat="44.29287" lon="6.18393">
        <ele>1393.5683594</ele>
        <time>2012-08-07T09:42:41Z</time>
      </trkpt>
      <trkpt lat="44.29273" lon="6.18389">
        <ele>1394.529541</ele>
        <time>2012-08-07T09:42:56Z</time>
      </trkpt>
      <trkpt lat="44.29269" lon="6.18389">
        <ele>1395.0102539</ele>
        <time>2012-08-07T09:42:58Z</time>
      </trkpt>
      <trkpt lat="44.29246" lon="6.18363">
        <ele>1397.4135742</ele>
        <time>2012-08-07T09:43:20Z</time>
      </trkpt>
      <trkpt lat="44.29246" lon="6.1836">
        <ele>1396.9328613</ele>
        <time>2012-08-07T09:43:23Z</time>
      </trkpt>
      <trkpt lat="44.2925" lon="6.18354">
        <ele>1397.8942871</ele>
        <time>2012-08-07T09:43:29Z</time>
      </trkpt>
      <trkpt lat="44.29263" lon="6.18351">
        <ele>1398.8554688</ele>
        <time>2012-08-07T09:43:39Z</time>
      </trkpt>
      <trkpt lat="44.29268" lon="6.1835">
        <ele>1399.3361816</ele>
        <time>2012-08-07T09:43:43Z</time>
      </trkpt>
      <trkpt lat="44.29278" lon="6.18331">
        <ele>1399.8168945</ele>
        <time>2012-08-07T09:43:54Z</time>
      </trkpt>
      <trkpt lat="44.29277" lon="6.18316">
        <ele>1400.7780762</ele>
        <time>2012-08-07T09:44:04Z</time>
      </trkpt>
      <trkpt lat="44.2928" lon="6.18285">
        <ele>1403.1813965</ele>
        <time>2012-08-07T09:44:22Z</time>
      </trkpt>
      <trkpt lat="44.29287" lon="6.18271">
        <ele>1404.1430664</ele>
        <time>2012-08-07T09:44:32Z</time>
      </trkpt>
      <trkpt lat="44.29289" lon="6.18267">
        <ele>1404.1430664</ele>
        <time>2012-08-07T09:44:34Z</time>
      </trkpt>
      <trkpt lat="44.29292" lon="6.18263">
        <ele>1404.6235352</ele>
        <time>2012-08-07T09:44:38Z</time>
      </trkpt>
      <trkpt lat="44.29295" lon="6.18255">
        <ele>1405.5849609</ele>
        <time>2012-08-07T09:44:43Z</time>
      </trkpt>
      <trkpt lat="44.29295" lon="6.18242">
        <ele>1406.0654297</ele>
        <time>2012-08-07T09:44:50Z</time>
      </trkpt>
      <trkpt lat="44.29297" lon="6.18223">
        <ele>1406.5461426</ele>
        <time>2012-08-07T09:45:01Z</time>
      </trkpt>
      <trkpt lat="44.29298" lon="6.18212">
        <ele>1407.9882813</ele>
        <time>2012-08-07T09:45:09Z</time>
      </trkpt>
      <trkpt lat="44.29299" lon="6.18202">
        <ele>1407.9882813</ele>
        <time>2012-08-07T09:45:22Z</time>
      </trkpt>
      <trkpt lat="44.29297" lon="6.18201">
        <ele>1407.5075684</ele>
        <time>2012-08-07T09:46:00Z</time>
      </trkpt>
      <trkpt lat="44.29297" lon="6.18201">
        <ele>1407.5075684</ele>
        <time>2012-08-07T09:46:01Z</time>
      </trkpt>
      <trkpt lat="44.29297" lon="6.18201">
        <ele>1408.9494629</ele>
        <time>2012-08-07T09:46:03Z</time>
      </trkpt>
      <trkpt lat="44.29297" lon="6.18201">
        <ele>1410.8720703</ele>
        <time>2012-08-07T09:46:24Z</time>
      </trkpt>
      <trkpt lat="44.29297" lon="6.18201">
        <ele>1409.4301758</ele>
        <time>2012-08-07T09:46:26Z</time>
      </trkpt>
      <trkpt lat="44.29297" lon="6.18201">
        <ele>1409.9106445</ele>
        <time>2012-08-07T09:46:38Z</time>
      </trkpt>
      <trkpt lat="44.29297" lon="6.18201">
        <ele>1408.9494629</ele>
        <time>2012-08-07T09:46:40Z</time>
      </trkpt>
      <trkpt lat="44.29297" lon="6.18202">
        <ele>1408.9494629</ele>
        <time>2012-08-07T09:47:48Z</time>
      </trkpt>
      <trkpt lat="44.29284" lon="6.18222">
        <ele>1409.9106445</ele>
        <time>2012-08-07T09:48:04Z</time>
      </trkpt>
      <trkpt lat="44.29283" lon="6.18223">
        <ele>1410.3913574</ele>
        <time>2012-08-07T09:48:05Z</time>
      </trkpt>
      <trkpt lat="44.29272" lon="6.18244">
        <ele>1411.3527832</ele>
        <time>2012-08-07T09:48:18Z</time>
      </trkpt>
      <trkpt lat="44.29272" lon="6.18245">
        <ele>1410.8720703</ele>
        <time>2012-08-07T09:48:19Z</time>
      </trkpt>
      <trkpt lat="44.29254" lon="6.18259">
        <ele>1412.3139648</ele>
        <time>2012-08-07T09:48:34Z</time>
      </trkpt>
      <trkpt lat="44.29249" lon="6.18261">
        <ele>1413.2753906</ele>
        <time>2012-08-07T09:48:38Z</time>
      </trkpt>
      <trkpt lat="44.29242" lon="6.18264">
        <ele>1413.2753906</ele>
        <time>2012-08-07T09:48:44Z</time>
      </trkpt>
      <trkpt lat="44.29231" lon="6.18265">
        <ele>1413.7558594</ele>
        <time>2012-08-07T09:48:52Z</time>
      </trkpt>
      <trkpt lat="44.29218" lon="6.18262">
        <ele>1414.7172852</ele>
        <time>2012-08-07T09:49:04Z</time>
      </trkpt>
      <trkpt lat="44.29201" lon="6.18266">
        <ele>1417.1206055</ele>
        <time>2012-08-07T09:49:18Z</time>
      </trkpt>
      <trkpt lat="44.29186" lon="6.18256">
        <ele>1418.5625</ele>
        <time>2012-08-07T09:49:32Z</time>
      </trkpt>
      <trkpt lat="44.29164" lon="6.18262">
        <ele>1420.4853516</ele>
        <time>2012-08-07T09:49:50Z</time>
      </trkpt>
      <trkpt lat="44.29161" lon="6.18268">
        <ele>1420.9660645</ele>
        <time>2012-08-07T09:49:53Z</time>
      </trkpt>
      <trkpt lat="44.2916" lon="6.18293">
        <ele>1421.4465332</ele>
        <time>2012-08-07T09:50:06Z</time>
      </trkpt>
      <trkpt lat="44.2916" lon="6.183">
        <ele>1422.407959</ele>
        <time>2012-08-07T09:50:11Z</time>
      </trkpt>
      <trkpt lat="44.29156" lon="6.18313">
        <ele>1422.8886719</ele>
        <time>2012-08-07T09:50:17Z</time>
      </trkpt>
      <trkpt lat="44.29146" lon="6.18337">
        <ele>1424.8112793</ele>
        <time>2012-08-07T09:50:33Z</time>
      </trkpt>
      <trkpt lat="44.29146" lon="6.18367">
        <ele>1426.2531738</ele>
        <time>2012-08-07T09:50:46Z</time>
      </trkpt>
      <trkpt lat="44.29147" lon="6.18368">
        <ele>1426.7338867</ele>
        <time>2012-08-07T09:50:47Z</time>
      </trkpt>
      <trkpt lat="44.29154" lon="6.18382">
        <ele>1427.6950684</ele>
        <time>2012-08-07T09:50:55Z</time>
      </trkpt>
      <trkpt lat="44.29157" lon="6.18387">
        <ele>1428.1757813</ele>
        <time>2012-08-07T09:50:59Z</time>
      </trkpt>
      <trkpt lat="44.29159" lon="6.18405">
        <ele>1430.5791016</ele>
        <time>2012-08-07T09:51:12Z</time>
      </trkpt>
      <trkpt lat="44.29159" lon="6.18408">
        <ele>1430.5791016</ele>
        <time>2012-08-07T09:51:14Z</time>
      </trkpt>
      <trkpt lat="44.29157" lon="6.18413">
        <ele>1431.0598145</ele>
        <time>2012-08-07T09:51:17Z</time>
      </trkpt>
      <trkpt lat="44.29152" lon="6.18422">
        <ele>1431.5402832</ele>
        <time>2012-08-07T09:51:22Z</time>
      </trkpt>
      <trkpt lat="44.29135" lon="6.18427">
        <ele>1432.9821777</ele>
        <time>2012-08-07T09:51:35Z</time>
      </trkpt>
      <trkpt lat="44.29128" lon="6.18425">
        <ele>1433.4628906</ele>
        <time>2012-08-07T09:51:41Z</time>
      </trkpt>
      <trkpt lat="44.29109" lon="6.18418">
        <ele>1435.385498</ele>
        <time>2012-08-07T09:51:57Z</time>
      </trkpt>
      <trkpt lat="44.29106" lon="6.18416">
        <ele>1435.8662109</ele>
        <time>2012-08-07T09:52:00Z</time>
      </trkpt>
      <trkpt lat="44.29103" lon="6.18417">
        <ele>1435.8662109</ele>
        <time>2012-08-07T09:52:02Z</time>
      </trkpt>
      <trkpt lat="44.29091" lon="6.18428">
        <ele>1436.8276367</ele>
        <time>2012-08-07T09:52:17Z</time>
      </trkpt>
      <trkpt lat="44.29074" lon="6.18435">
        <ele>1438.2697754</ele>
        <time>2012-08-07T09:52:31Z</time>
      </trkpt>
      <trkpt lat="44.29058" lon="6.18452">
        <ele>1439.7116699</ele>
        <time>2012-08-07T09:52:48Z</time>
      </trkpt>
      <trkpt lat="44.29053" lon="6.18459">
        <ele>1440.6728516</ele>
        <time>2012-08-07T09:52:55Z</time>
      </trkpt>
      <trkpt lat="44.29041" lon="6.18468">
        <ele>1441.6342773</ele>
        <time>2012-08-07T09:53:07Z</time>
      </trkpt>
      <trkpt lat="44.29035" lon="6.18473">
        <ele>1442.1149902</ele>
        <time>2012-08-07T09:53:12Z</time>
      </trkpt>
      <trkpt lat="44.29026" lon="6.18476">
        <ele>1442.1149902</ele>
        <time>2012-08-07T09:53:18Z</time>
      </trkpt>
      <trkpt lat="44.29009" lon="6.18479">
        <ele>1443.5568848</ele>
        <time>2012-08-07T09:53:30Z</time>
      </trkpt>
      <trkpt lat="44.29005" lon="6.18479">
        <ele>1444.0375977</ele>
        <time>2012-08-07T09:53:34Z</time>
      </trkpt>
      <trkpt lat="44.29002" lon="6.18479">
        <ele>1444.5180664</ele>
        <time>2012-08-07T09:53:36Z</time>
      </trkpt>
      <trkpt lat="44.28994" lon="6.18478">
        <ele>1444.9987793</ele>
        <time>2012-08-07T09:53:42Z</time>
      </trkpt>
      <trkpt lat="44.2899" lon="6.18478">
        <ele>1445.4794922</ele>
        <time>2012-08-07T09:53:45Z</time>
      </trkpt>
      <trkpt lat="44.28987" lon="6.18477">
        <ele>1444.9987793</ele>
        <time>2012-08-07T09:53:48Z</time>
      </trkpt>
      <trkpt lat="44.28983" lon="6.18478">
        <ele>1444.9987793</ele>
        <time>2012-08-07T09:53:51Z</time>
      </trkpt>
      <trkpt lat="44.28979" lon="6.18475">
        <ele>1445.9602051</ele>
        <time>2012-08-07T09:53:55Z</time>
      </trkpt>
      <trkpt lat="44.28965" lon="6.18476">
        <ele>1446.440918</ele>
        <time>2012-08-07T09:54:05Z</time>
      </trkpt>
      <trkpt lat="44.28957" lon="6.18476">
        <ele>1446.9213867</ele>
        <time>2012-08-07T09:54:10Z</time>
      </trkpt>
      <trkpt lat="44.28954" lon="6.18478">
        <ele>1446.9213867</ele>
        <time>2012-08-07T09:54:12Z</time>
      </trkpt>
      <trkpt lat="44.28931" lon="6.18473">
        <ele>1446.440918</ele>
        <time>2012-08-07T09:54:25Z</time>
      </trkpt>
      <trkpt lat="44.28924" lon="6.1847">
        <ele>1446.9213867</ele>
        <time>2012-08-07T09:54:30Z</time>
      </trkpt>
      <trkpt lat="44.28903" lon="6.18453">
        <ele>1445.9602051</ele>
        <time>2012-08-07T09:54:42Z</time>
      </trkpt>
      <trkpt lat="44.28882" lon="6.18456">
        <ele>1445.4794922</ele>
        <time>2012-08-07T09:54:49Z</time>
      </trkpt>
      <trkpt lat="44.28871" lon="6.18449">
        <ele>1445.4794922</ele>
        <time>2012-08-07T09:54:53Z</time>
      </trkpt>
      <trkpt lat="44.28861" lon="6.18506">
        <ele>1444.5180664</ele>
        <time>2012-08-07T09:55:05Z</time>
      </trkpt>
      <trkpt lat="44.2885" lon="6.18515">
        <ele>1444.5180664</ele>
        <time>2012-08-07T09:55:11Z</time>
      </trkpt>
      <trkpt lat="44.28838" lon="6.18527">
        <ele>1444.5180664</ele>
        <time>2012-08-07T09:55:18Z</time>
      </trkpt>
      <trkpt lat="44.28823" lon="6.18537">
        <ele>1443.5568848</ele>
        <time>2012-08-07T09:55:25Z</time>
      </trkpt>
      <trkpt lat="44.28815" lon="6.18547">
        <ele>1443.5568848</ele>
        <time>2012-08-07T09:55:29Z</time>
      </trkpt>
      <trkpt lat="44.2881" lon="6.18555">
        <ele>1443.0761719</ele>
        <time>2012-08-07T09:55:33Z</time>
      </trkpt>
      <trkpt lat="44.28774" lon="6.1859">
        <ele>1441.1535645</ele>
        <time>2012-08-07T09:55:44Z</time>
      </trkpt>
      <trkpt lat="44.2874" lon="6.18611">
        <ele>1441.1535645</ele>
        <time>2012-08-07T09:55:59Z</time>
      </trkpt>
      <trkpt lat="44.28715" lon="6.18621">
        <ele>1441.1535645</ele>
        <time>2012-08-07T09:56:09Z</time>
      </trkpt>
      <trkpt lat="44.28694" lon="6.18624">
        <ele>1442.5957031</ele>
        <time>2012-08-07T09:56:17Z</time>
      </trkpt>
      <trkpt lat="44.28668" lon="6.18622">
        <ele>1442.5957031</ele>
        <time>2012-08-07T09:56:27Z</time>
      </trkpt>
      <trkpt lat="44.28663" lon="6.18641">
        <ele>1442.5957031</ele>
        <time>2012-08-07T09:56:32Z</time>
      </trkpt>
      <trkpt lat="44.28669" lon="6.18654">
        <ele>1442.1149902</ele>
        <time>2012-08-07T09:56:38Z</time>
      </trkpt>
      <trkpt lat="44.28699" lon="6.18696">
        <ele>1443.5568848</ele>
        <time>2012-08-07T09:56:56Z</time>
      </trkpt>
      <trkpt lat="44.28725" lon="6.18726">
        <ele>1444.0375977</ele>
        <time>2012-08-07T09:57:12Z</time>
      </trkpt>
      <trkpt lat="44.28742" lon="6.18766">
        <ele>1444.5180664</ele>
        <time>2012-08-07T09:57:30Z</time>
      </trkpt>
      <trkpt lat="44.28742" lon="6.18787">
        <ele>1444.0375977</ele>
        <time>2012-08-07T09:57:42Z</time>
      </trkpt>
      <trkpt lat="44.28743" lon="6.18792">
        <ele>1444.9987793</ele>
        <time>2012-08-07T09:58:01Z</time>
      </trkpt>
      <trkpt lat="44.28737" lon="6.18796">
        <ele>1444.5180664</ele>
        <time>2012-08-07T09:58:17Z</time>
      </trkpt>
      <trkpt lat="44.28729" lon="6.1882">
        <ele>1444.0375977</ele>
        <time>2012-08-07T09:58:27Z</time>
      </trkpt>
      <trkpt lat="44.28715" lon="6.18861">
        <ele>1444.0375977</ele>
        <time>2012-08-07T09:58:41Z</time>
      </trkpt>
      <trkpt lat="44.28711" lon="6.18885">
        <ele>1443.5568848</ele>
        <time>2012-08-07T09:58:52Z</time>
      </trkpt>
      <trkpt lat="44.28704" lon="6.18903">
        <ele>1441.6342773</ele>
        <time>2012-08-07T09:58:59Z</time>
      </trkpt>
      <trkpt lat="44.28692" lon="6.18926">
        <ele>1440.6728516</ele>
        <time>2012-08-07T09:59:11Z</time>
      </trkpt>
      <trkpt lat="44.28698" lon="6.18951">
        <ele>1441.1535645</ele>
        <time>2012-08-07T09:59:21Z</time>
      </trkpt>
      <trkpt lat="44.287" lon="6.18954">
        <ele>1440.6728516</ele>
        <time>2012-08-07T09:59:23Z</time>
      </trkpt>
      <trkpt lat="44.28738" lon="6.18958">
        <ele>1441.1535645</ele>
        <time>2012-08-07T09:59:40Z</time>
      </trkpt>
      <trkpt lat="44.28747" lon="6.18954">
        <ele>1440.6728516</ele>
        <time>2012-08-07T09:59:45Z</time>
      </trkpt>
      <trkpt lat="44.28756" lon="6.18954">
        <ele>1442.1149902</ele>
        <time>2012-08-07T09:59:49Z</time>
      </trkpt>
      <trkpt lat="44.28763" lon="6.18958">
        <ele>1442.5957031</ele>
        <time>2012-08-07T09:59:53Z</time>
      </trkpt>
      <trkpt lat="44.28774" lon="6.18968">
        <ele>1443.0761719</ele>
        <time>2012-08-07T09:59:59Z</time>
      </trkpt>
      <trkpt lat="44.2878" lon="6.18997">
        <ele>1442.5957031</ele>
        <time>2012-08-07T10:00:10Z</time>
      </trkpt>
      <trkpt lat="44.28779" lon="6.19009">
        <ele>1443.0761719</ele>
        <time>2012-08-07T10:00:14Z</time>
      </trkpt>
      <trkpt lat="44.28772" lon="6.19036">
        <ele>1443.0761719</ele>
        <time>2012-08-07T10:00:24Z</time>
      </trkpt>
      <trkpt lat="44.28777" lon="6.19055">
        <ele>1441.1535645</ele>
        <time>2012-08-07T10:00:31Z</time>
      </trkpt>
      <trkpt lat="44.28781" lon="6.19071">
        <ele>1442.1149902</ele>
        <time>2012-08-07T10:00:38Z</time>
      </trkpt>
      <trkpt lat="44.28776" lon="6.19097">
        <ele>1441.6342773</ele>
        <time>2012-08-07T10:00:48Z</time>
      </trkpt>
      <trkpt lat="44.28761" lon="6.19119">
        <ele>1443.0761719</ele>
        <time>2012-08-07T10:00:59Z</time>
      </trkpt>
      <trkpt lat="44.28749" lon="6.19144">
        <ele>1442.5957031</ele>
        <time>2012-08-07T10:01:10Z</time>
      </trkpt>
      <trkpt lat="44.28732" lon="6.19173">
        <ele>1444.0375977</ele>
        <time>2012-08-07T10:01:24Z</time>
      </trkpt>
      <trkpt lat="44.28719" lon="6.19198">
        <ele>1444.0375977</ele>
        <time>2012-08-07T10:01:36Z</time>
      </trkpt>
      <trkpt lat="44.28697" lon="6.19212">
        <ele>1444.5180664</ele>
        <time>2012-08-07T10:01:47Z</time>
      </trkpt>
      <trkpt lat="44.2869" lon="6.19215">
        <ele>1444.9987793</ele>
        <time>2012-08-07T10:01:51Z</time>
      </trkpt>
      <trkpt lat="44.28677" lon="6.19218">
        <ele>1445.4794922</ele>
        <time>2012-08-07T10:01:57Z</time>
      </trkpt>
      <trkpt lat="44.28664" lon="6.19222">
        <ele>1444.9987793</ele>
        <time>2012-08-07T10:02:04Z</time>
      </trkpt>
      <trkpt lat="44.28627" lon="6.19238">
        <ele>1445.4794922</ele>
        <time>2012-08-07T10:02:21Z</time>
      </trkpt>
      <trkpt lat="44.28605" lon="6.19248">
        <ele>1445.4794922</ele>
        <time>2012-08-07T10:02:35Z</time>
      </trkpt>
      <trkpt lat="44.28602" lon="6.19249">
        <ele>1445.4794922</ele>
        <time>2012-08-07T10:02:37Z</time>
      </trkpt>
      <trkpt lat="44.2859" lon="6.1929">
        <ele>1445.4794922</ele>
        <time>2012-08-07T10:02:52Z</time>
      </trkpt>
      <trkpt lat="44.28588" lon="6.19314">
        <ele>1446.440918</ele>
        <time>2012-08-07T10:03:00Z</time>
      </trkpt>
      <trkpt lat="44.2858" lon="6.19318">
        <ele>1444.9987793</ele>
        <time>2012-08-07T10:03:04Z</time>
      </trkpt>
      <trkpt lat="44.28569" lon="6.19318">
        <ele>1446.440918</ele>
        <time>2012-08-07T10:03:09Z</time>
      </trkpt>
      <trkpt lat="44.28562" lon="6.1932">
        <ele>1446.440918</ele>
        <time>2012-08-07T10:03:13Z</time>
      </trkpt>
      <trkpt lat="44.28541" lon="6.19359">
        <ele>1447.4020996</ele>
        <time>2012-08-07T10:03:29Z</time>
      </trkpt>
      <trkpt lat="44.28529" lon="6.19387">
        <ele>1448.8439941</ele>
        <time>2012-08-07T10:03:44Z</time>
      </trkpt>
      <trkpt lat="44.28521" lon="6.19391">
        <ele>1448.3632813</ele>
        <time>2012-08-07T10:03:48Z</time>
      </trkpt>
      <trkpt lat="44.2851" lon="6.19392">
        <ele>1448.8439941</ele>
        <time>2012-08-07T10:03:53Z</time>
      </trkpt>
      <trkpt lat="44.28502" lon="6.19388">
        <ele>1448.8439941</ele>
        <time>2012-08-07T10:03:58Z</time>
      </trkpt>
      <trkpt lat="44.28496" lon="6.19386">
        <ele>1448.8439941</ele>
        <time>2012-08-07T10:04:01Z</time>
      </trkpt>
      <trkpt lat="44.28489" lon="6.19386">
        <ele>1448.8439941</ele>
        <time>2012-08-07T10:04:04Z</time>
      </trkpt>
      <trkpt lat="44.28464" lon="6.19397">
        <ele>1448.3632813</ele>
        <time>2012-08-07T10:04:14Z</time>
      </trkpt>
      <trkpt lat="44.2843" lon="6.19408">
        <ele>1447.8828125</ele>
        <time>2012-08-07T10:04:31Z</time>
      </trkpt>
      <trkpt lat="44.28403" lon="6.19414">
        <ele>1448.3632813</ele>
        <time>2012-08-07T10:04:45Z</time>
      </trkpt>
      <trkpt lat="44.28392" lon="6.19417">
        <ele>1447.8828125</ele>
        <time>2012-08-07T10:04:50Z</time>
      </trkpt>
      <trkpt lat="44.28386" lon="6.19424">
        <ele>1448.3632813</ele>
        <time>2012-08-07T10:04:55Z</time>
      </trkpt>
      <trkpt lat="44.28377" lon="6.19452">
        <ele>1448.8439941</ele>
        <time>2012-08-07T10:05:06Z</time>
      </trkpt>
      <trkpt lat="44.28381" lon="6.19479">
        <ele>1449.8054199</ele>
        <time>2012-08-07T10:05:14Z</time>
      </trkpt>
      <trkpt lat="44.28385" lon="6.19494">
        <ele>1449.8054199</ele>
        <time>2012-08-07T10:05:19Z</time>
      </trkpt>
      <trkpt lat="44.28376" lon="6.19522">
        <ele>1450.2861328</ele>
        <time>2012-08-07T10:05:29Z</time>
      </trkpt>
      <trkpt lat="44.28374" lon="6.19553">
        <ele>1451.2473145</ele>
        <time>2012-08-07T10:05:42Z</time>
      </trkpt>
      <trkpt lat="44.28372" lon="6.19561">
        <ele>1451.2473145</ele>
        <time>2012-08-07T10:05:46Z</time>
      </trkpt>
      <trkpt lat="44.2837" lon="6.19579">
        <ele>1451.2473145</ele>
        <time>2012-08-07T10:05:55Z</time>
      </trkpt>
      <trkpt lat="44.2837" lon="6.19612">
        <ele>1451.2473145</ele>
        <time>2012-08-07T10:06:11Z</time>
      </trkpt>
      <trkpt lat="44.28373" lon="6.19612">
        <ele>1450.2861328</ele>
        <time>2012-08-07T10:06:55Z</time>
      </trkpt>
      <trkpt lat="44.28401" lon="6.19602">
        <ele>1449.8054199</ele>
        <time>2012-08-07T10:07:11Z</time>
      </trkpt>
      <trkpt lat="44.28423" lon="6.19591">
        <ele>1451.2473145</ele>
        <time>2012-08-07T10:07:29Z</time>
      </trkpt>
      <trkpt lat="44.2844" lon="6.196">
        <ele>1452.2087402</ele>
        <time>2012-08-07T10:07:41Z</time>
      </trkpt>
      <trkpt lat="44.28444" lon="6.19604">
        <ele>1450.7666016</ele>
        <time>2012-08-07T10:07:44Z</time>
      </trkpt>
      <trkpt lat="44.28454" lon="6.1962">
        <ele>1451.7280273</ele>
        <time>2012-08-07T10:07:57Z</time>
      </trkpt>
      <trkpt lat="44.28469" lon="6.19641">
        <ele>1451.7280273</ele>
        <time>2012-08-07T10:08:12Z</time>
      </trkpt>
      <trkpt lat="44.28472" lon="6.19647">
        <ele>1453.170166</ele>
        <time>2012-08-07T10:08:15Z</time>
      </trkpt>
      <trkpt lat="44.28474" lon="6.1965">
        <ele>1452.2087402</ele>
        <time>2012-08-07T10:08:17Z</time>
      </trkpt>
      <trkpt lat="44.28475" lon="6.19656">
        <ele>1453.170166</ele>
        <time>2012-08-07T10:08:21Z</time>
      </trkpt>
      <trkpt lat="44.28475" lon="6.19657">
        <ele>1454.1315918</ele>
        <time>2012-08-07T10:08:22Z</time>
      </trkpt>
      <trkpt lat="44.28476" lon="6.19689">
        <ele>1453.170166</ele>
        <time>2012-08-07T10:08:34Z</time>
      </trkpt>
      <trkpt lat="44.28471" lon="6.19703">
        <ele>1452.6894531</ele>
        <time>2012-08-07T10:08:43Z</time>
      </trkpt>
      <trkpt lat="44.28469" lon="6.19708">
        <ele>1453.170166</ele>
        <time>2012-08-07T10:08:46Z</time>
      </trkpt>
      <trkpt lat="44.28465" lon="6.19712">
        <ele>1453.170166</ele>
        <time>2012-08-07T10:08:49Z</time>
      </trkpt>
      <trkpt lat="44.28465" lon="6.1972">
        <ele>1452.6894531</ele>
        <time>2012-08-07T10:08:56Z</time>
      </trkpt>
      <trkpt lat="44.28467" lon="6.19727">
        <ele>1452.6894531</ele>
        <time>2012-08-07T10:09:01Z</time>
      </trkpt>
      <trkpt lat="44.2849" lon="6.19733">
        <ele>1453.170166</ele>
        <time>2012-08-07T10:09:16Z</time>
      </trkpt>
      <trkpt lat="44.28506" lon="6.19742">
        <ele>1453.6508789</ele>
        <time>2012-08-07T10:09:29Z</time>
      </trkpt>
      <trkpt lat="44.28508" lon="6.19744">
        <ele>1454.1315918</ele>
        <time>2012-08-07T10:09:31Z</time>
      </trkpt>
      <trkpt lat="44.28508" lon="6.19753">
        <ele>1454.6120605</ele>
        <time>2012-08-07T10:09:35Z</time>
      </trkpt>
      <trkpt lat="44.28507" lon="6.19765">
        <ele>1454.6120605</ele>
        <time>2012-08-07T10:09:41Z</time>
      </trkpt>
      <trkpt lat="44.28508" lon="6.19776">
        <ele>1454.1315918</ele>
        <time>2012-08-07T10:09:47Z</time>
      </trkpt>
      <trkpt lat="44.28508" lon="6.19783">
        <ele>1454.6120605</ele>
        <time>2012-08-07T10:09:51Z</time>
      </trkpt>
      <trkpt lat="44.28506" lon="6.1979">
        <ele>1454.1315918</ele>
        <time>2012-08-07T10:09:55Z</time>
      </trkpt>
      <trkpt lat="44.28516" lon="6.19817">
        <ele>1454.1315918</ele>
        <time>2012-08-07T10:10:07Z</time>
      </trkpt>
      <trkpt lat="44.28513" lon="6.19828">
        <ele>1454.6120605</ele>
        <time>2012-08-07T10:10:14Z</time>
      </trkpt>
      <trkpt lat="44.28489" lon="6.19834">
        <ele>1455.0927734</ele>
        <time>2012-08-07T10:10:27Z</time>
      </trkpt>
      <trkpt lat="44.28478" lon="6.19838">
        <ele>1455.0927734</ele>
        <time>2012-08-07T10:10:34Z</time>
      </trkpt>
      <trkpt lat="44.28467" lon="6.19842">
        <ele>1455.0927734</ele>
        <time>2012-08-07T10:10:42Z</time>
      </trkpt>
      <trkpt lat="44.28459" lon="6.19848">
        <ele>1455.5734863</ele>
        <time>2012-08-07T10:10:53Z</time>
      </trkpt>
      <trkpt lat="44.28458" lon="6.19856">
        <ele>1455.0927734</ele>
        <time>2012-08-07T10:10:58Z</time>
      </trkpt>
      <trkpt lat="44.28455" lon="6.19861">
        <ele>1455.5734863</ele>
        <time>2012-08-07T10:11:01Z</time>
      </trkpt>
      <trkpt lat="44.28454" lon="6.19866">
        <ele>1455.0927734</ele>
        <time>2012-08-07T10:11:04Z</time>
      </trkpt>
      <trkpt lat="44.28438" lon="6.19875">
        <ele>1455.0927734</ele>
        <time>2012-08-07T10:11:13Z</time>
      </trkpt>
      <trkpt lat="44.28427" lon="6.1988">
        <ele>1455.0927734</ele>
        <time>2012-08-07T10:11:20Z</time>
      </trkpt>
      <trkpt lat="44.28426" lon="6.19896">
        <ele>1454.1315918</ele>
        <time>2012-08-07T10:11:26Z</time>
      </trkpt>
      <trkpt lat="44.28425" lon="6.19905">
        <ele>1454.6120605</ele>
        <time>2012-08-07T10:11:29Z</time>
      </trkpt>
      <trkpt lat="44.28422" lon="6.19915">
        <ele>1454.1315918</ele>
        <time>2012-08-07T10:11:33Z</time>
      </trkpt>
      <trkpt lat="44.28425" lon="6.19931">
        <ele>1454.1315918</ele>
        <time>2012-08-07T10:11:40Z</time>
      </trkpt>
      <trkpt lat="44.28433" lon="6.19939">
        <ele>1454.6120605</ele>
        <time>2012-08-07T10:11:45Z</time>
      </trkpt>
      <trkpt lat="44.28438" lon="6.19941">
        <ele>1454.1315918</ele>
        <time>2012-08-07T10:11:48Z</time>
      </trkpt>
      <trkpt lat="44.28441" lon="6.19941">
        <ele>1454.1315918</ele>
        <time>2012-08-07T10:11:50Z</time>
      </trkpt>
      <trkpt lat="44.28444" lon="6.19942">
        <ele>1454.1315918</ele>
        <time>2012-08-07T10:11:52Z</time>
      </trkpt>
      <trkpt lat="44.28472" lon="6.19952">
        <ele>1454.1315918</ele>
        <time>2012-08-07T10:12:07Z</time>
      </trkpt>
      <trkpt lat="44.28492" lon="6.19961">
        <ele>1454.1315918</ele>
        <time>2012-08-07T10:12:21Z</time>
      </trkpt>
      <trkpt lat="44.2851" lon="6.19971">
        <ele>1454.1315918</ele>
        <time>2012-08-07T10:12:34Z</time>
      </trkpt>
      <trkpt lat="44.28541" lon="6.19987">
        <ele>1454.1315918</ele>
        <time>2012-08-07T10:12:53Z</time>
      </trkpt>
      <trkpt lat="44.28559" lon="6.20004">
        <ele>1454.6120605</ele>
        <time>2012-08-07T10:13:05Z</time>
      </trkpt>
      <trkpt lat="44.2857" lon="6.20027">
        <ele>1454.1315918</ele>
        <time>2012-08-07T10:13:18Z</time>
      </trkpt>
      <trkpt lat="44.28567" lon="6.20039">
        <ele>1454.6120605</ele>
        <time>2012-08-07T10:13:27Z</time>
      </trkpt>
      <trkpt lat="44.28566" lon="6.20053">
        <ele>1454.6120605</ele>
        <time>2012-08-07T10:13:39Z</time>
      </trkpt>
      <trkpt lat="44.28565" lon="6.20054">
        <ele>1455.0927734</ele>
        <time>2012-08-07T10:13:40Z</time>
      </trkpt>
      <trkpt lat="44.28562" lon="6.20059">
        <ele>1455.0927734</ele>
        <time>2012-08-07T10:13:46Z</time>
      </trkpt>
      <trkpt lat="44.28562" lon="6.20061">
        <ele>1455.5734863</ele>
        <time>2012-08-07T10:13:48Z</time>
      </trkpt>
      <trkpt lat="44.28563" lon="6.20068">
        <ele>1455.0927734</ele>
        <time>2012-08-07T10:13:52Z</time>
      </trkpt>
      <trkpt lat="44.28563" lon="6.20081">
        <ele>1455.5734863</ele>
        <time>2012-08-07T10:14:00Z</time>
      </trkpt>
      <trkpt lat="44.28561" lon="6.20091">
        <ele>1457.0153809</ele>
        <time>2012-08-07T10:14:10Z</time>
      </trkpt>
      <trkpt lat="44.28561" lon="6.20094">
        <ele>1455.5734863</ele>
        <time>2012-08-07T10:14:12Z</time>
      </trkpt>
      <trkpt lat="44.28553" lon="6.20103">
        <ele>1455.5734863</ele>
        <time>2012-08-07T10:14:18Z</time>
      </trkpt>
      <trkpt lat="44.28546" lon="6.20108">
        <ele>1457.4960938</ele>
        <time>2012-08-07T10:14:25Z</time>
      </trkpt>
      <trkpt lat="44.28544" lon="6.20109">
        <ele>1456.534668</ele>
        <time>2012-08-07T10:14:27Z</time>
      </trkpt>
      <trkpt lat="44.2854" lon="6.20113">
        <ele>1456.534668</ele>
        <time>2012-08-07T10:14:31Z</time>
      </trkpt>
      <trkpt lat="44.28535" lon="6.20122">
        <ele>1455.0927734</ele>
        <time>2012-08-07T10:14:38Z</time>
      </trkpt>
      <trkpt lat="44.28528" lon="6.20128">
        <ele>1457.0153809</ele>
        <time>2012-08-07T10:14:44Z</time>
      </trkpt>
      <trkpt lat="44.28528" lon="6.20135">
        <ele>1456.0539551</ele>
        <time>2012-08-07T10:14:50Z</time>
      </trkpt>
      <trkpt lat="44.28523" lon="6.20137">
        <ele>1457.4960938</ele>
        <time>2012-08-07T10:14:53Z</time>
      </trkpt>
      <trkpt lat="44.28522" lon="6.20143">
        <ele>1457.4960938</ele>
        <time>2012-08-07T10:14:58Z</time>
      </trkpt>
      <trkpt lat="44.28518" lon="6.2015">
        <ele>1457.9768066</ele>
        <time>2012-08-07T10:15:04Z</time>
      </trkpt>
      <trkpt lat="44.28513" lon="6.20154">
        <ele>1457.4960938</ele>
        <time>2012-08-07T10:15:09Z</time>
      </trkpt>
      <trkpt lat="44.28506" lon="6.2016">
        <ele>1457.9768066</ele>
        <time>2012-08-07T10:15:16Z</time>
      </trkpt>
      <trkpt lat="44.28502" lon="6.20163">
        <ele>1457.9768066</ele>
        <time>2012-08-07T10:15:20Z</time>
      </trkpt>
      <trkpt lat="44.28493" lon="6.20171">
        <ele>1459.8991699</ele>
        <time>2012-08-07T10:15:31Z</time>
      </trkpt>
      <trkpt lat="44.28494" lon="6.20177">
        <ele>1459.4187012</ele>
        <time>2012-08-07T10:15:34Z</time>
      </trkpt>
      <trkpt lat="44.28493" lon="6.20181">
        <ele>1459.8991699</ele>
        <time>2012-08-07T10:15:37Z</time>
      </trkpt>
      <trkpt lat="44.28486" lon="6.20188">
        <ele>1460.8605957</ele>
        <time>2012-08-07T10:15:45Z</time>
      </trkpt>
      <trkpt lat="44.28489" lon="6.20205">
        <ele>1460.3798828</ele>
        <time>2012-08-07T10:15:56Z</time>
      </trkpt>
      <trkpt lat="44.28478" lon="6.20221">
        <ele>1461.8220215</ele>
        <time>2012-08-07T10:16:04Z</time>
      </trkpt>
      <trkpt lat="44.28475" lon="6.20225">
        <ele>1461.3413086</ele>
        <time>2012-08-07T10:16:07Z</time>
      </trkpt>
      <trkpt lat="44.28426" lon="6.20241">
        <ele>1462.3024902</ele>
        <time>2012-08-07T10:16:13Z</time>
      </trkpt>
      <trkpt lat="44.28436" lon="6.20317">
        <ele>1462.7832031</ele>
        <time>2012-08-07T10:16:24Z</time>
      </trkpt>
      <trkpt lat="44.28471" lon="6.20355">
        <ele>1463.7443848</ele>
        <time>2012-08-07T10:16:38Z</time>
      </trkpt>
      <trkpt lat="44.2846" lon="6.2036">
        <ele>1462.7832031</ele>
        <time>2012-08-07T10:16:46Z</time>
      </trkpt>
      <trkpt lat="44.28459" lon="6.20363">
        <ele>1463.263916</ele>
        <time>2012-08-07T10:16:48Z</time>
      </trkpt>
      <trkpt lat="44.28454" lon="6.20365">
        <ele>1464.7058105</ele>
        <time>2012-08-07T10:16:51Z</time>
      </trkpt>
      <trkpt lat="44.28446" lon="6.20364">
        <ele>1463.7443848</ele>
        <time>2012-08-07T10:16:53Z</time>
      </trkpt>
      <trkpt lat="44.28441" lon="6.20368">
        <ele>1463.7443848</ele>
        <time>2012-08-07T10:16:59Z</time>
      </trkpt>
      <trkpt lat="44.28437" lon="6.20367">
        <ele>1464.7058105</ele>
        <time>2012-08-07T10:17:01Z</time>
      </trkpt>
      <trkpt lat="44.28441" lon="6.2036">
        <ele>1464.2250977</ele>
        <time>2012-08-07T10:17:14Z</time>
      </trkpt>
      <trkpt lat="44.28441" lon="6.2036">
        <ele>1465.1865234</ele>
        <time>2012-08-07T10:17:26Z</time>
      </trkpt>
      <trkpt lat="44.28442" lon="6.20358">
        <ele>1461.8220215</ele>
        <time>2012-08-07T10:18:20Z</time>
      </trkpt>
      <trkpt lat="44.28436" lon="6.20348">
        <ele>1458.9379883</ele>
        <time>2012-08-07T10:19:24Z</time>
      </trkpt>
      <trkpt lat="44.28431" lon="6.20341">
        <ele>1458.4572754</ele>
        <time>2012-08-07T10:19:29Z</time>
      </trkpt>
      <trkpt lat="44.28429" lon="6.20337">
        <ele>1458.9379883</ele>
        <time>2012-08-07T10:19:32Z</time>
      </trkpt>
      <trkpt lat="44.28415" lon="6.20325">
        <ele>1459.4187012</ele>
        <time>2012-08-07T10:19:40Z</time>
      </trkpt>
      <trkpt lat="44.28407" lon="6.20304">
        <ele>1460.3798828</ele>
        <time>2012-08-07T10:19:53Z</time>
      </trkpt>
      <trkpt lat="44.28401" lon="6.203">
        <ele>1460.8605957</ele>
        <time>2012-08-07T10:19:55Z</time>
      </trkpt>
      <trkpt lat="44.28396" lon="6.2029">
        <ele>1461.3413086</ele>
        <time>2012-08-07T10:20:03Z</time>
      </trkpt>
      <trkpt lat="44.2839" lon="6.20281">
        <ele>1462.7832031</ele>
        <time>2012-08-07T10:20:10Z</time>
      </trkpt>
      <trkpt lat="44.28389" lon="6.20262">
        <ele>1464.7058105</ele>
        <time>2012-08-07T10:20:26Z</time>
      </trkpt>
      <trkpt lat="44.28386" lon="6.2025">
        <ele>1466.1477051</ele>
        <time>2012-08-07T10:20:33Z</time>
      </trkpt>
      <trkpt lat="44.28383" lon="6.20244">
        <ele>1466.1477051</ele>
        <time>2012-08-07T10:20:37Z</time>
      </trkpt>
      <trkpt lat="44.28383" lon="6.20241">
        <ele>1467.1091309</ele>
        <time>2012-08-07T10:20:39Z</time>
      </trkpt>
      <trkpt lat="44.28375" lon="6.20221">
        <ele>1469.0319824</ele>
        <time>2012-08-07T10:20:55Z</time>
      </trkpt>
      <trkpt lat="44.28372" lon="6.20213">
        <ele>1469.0319824</ele>
        <time>2012-08-07T10:21:01Z</time>
      </trkpt>
      <trkpt lat="44.28363" lon="6.20192">
        <ele>1469.9931641</ele>
        <time>2012-08-07T10:21:19Z</time>
      </trkpt>
      <trkpt lat="44.28359" lon="6.20179">
        <ele>1470.9545898</ele>
        <time>2012-08-07T10:21:30Z</time>
      </trkpt>
      <trkpt lat="44.28356" lon="6.20169">
        <ele>1471.4350586</ele>
        <time>2012-08-07T10:21:37Z</time>
      </trkpt>
      <trkpt lat="44.28353" lon="6.20152">
        <ele>1472.3964844</ele>
        <time>2012-08-07T10:21:50Z</time>
      </trkpt>
      <trkpt lat="44.28347" lon="6.2014">
        <ele>1473.3579102</ele>
        <time>2012-08-07T10:22:02Z</time>
      </trkpt>
      <trkpt lat="44.28337" lon="6.20123">
        <ele>1474.3190918</ele>
        <time>2012-08-07T10:22:17Z</time>
      </trkpt>
      <trkpt lat="44.28331" lon="6.20123">
        <ele>1474.7998047</ele>
        <time>2012-08-07T10:22:23Z</time>
      </trkpt>
      <trkpt lat="44.28322" lon="6.20122">
        <ele>1475.2802734</ele>
        <time>2012-08-07T10:22:35Z</time>
      </trkpt>
      <trkpt lat="44.28316" lon="6.20126">
        <ele>1476.2416992</ele>
        <time>2012-08-07T10:22:46Z</time>
      </trkpt>
      <trkpt lat="44.28307" lon="6.20127">
        <ele>1476.7224121</ele>
        <time>2012-08-07T10:22:55Z</time>
      </trkpt>
      <trkpt lat="44.28298" lon="6.20129">
        <ele>1478.1643066</ele>
        <time>2012-08-07T10:23:07Z</time>
      </trkpt>
      <trkpt lat="44.28298" lon="6.20138">
        <ele>1479.1254883</ele>
        <time>2012-08-07T10:23:22Z</time>
      </trkpt>
      <trkpt lat="44.28338" lon="6.20142">
        <ele>1480.0869141</ele>
        <time>2012-08-07T10:23:33Z</time>
      </trkpt>
      <trkpt lat="44.28341" lon="6.20147">
        <ele>1480.567627</ele>
        <time>2012-08-07T10:23:36Z</time>
      </trkpt>
      <trkpt lat="44.28346" lon="6.20168">
        <ele>1481.5288086</ele>
        <time>2012-08-07T10:23:50Z</time>
      </trkpt>
      <trkpt lat="44.28364" lon="6.20187">
        <ele>1482.4902344</ele>
        <time>2012-08-07T10:23:59Z</time>
      </trkpt>
      <trkpt lat="44.28351" lon="6.20186">
        <ele>1483.451416</ele>
        <time>2012-08-07T10:24:13Z</time>
      </trkpt>
      <trkpt lat="44.28339" lon="6.20192">
        <ele>1484.8937988</ele>
        <time>2012-08-07T10:24:25Z</time>
      </trkpt>
      <trkpt lat="44.28318" lon="6.20201">
        <ele>1485.8549805</ele>
        <time>2012-08-07T10:24:39Z</time>
      </trkpt>
      <trkpt lat="44.28314" lon="6.20193">
        <ele>1486.3356934</ele>
        <time>2012-08-07T10:24:42Z</time>
      </trkpt>
      <trkpt lat="44.28293" lon="6.20186">
        <ele>1487.7775879</ele>
        <time>2012-08-07T10:24:58Z</time>
      </trkpt>
      <trkpt lat="44.28275" lon="6.20188">
        <ele>1490.1809082</ele>
        <time>2012-08-07T10:25:17Z</time>
      </trkpt>
      <trkpt lat="44.28274" lon="6.20191">
        <ele>1490.1809082</ele>
        <time>2012-08-07T10:25:19Z</time>
      </trkpt>
      <trkpt lat="44.28269" lon="6.20194">
        <ele>1491.1420898</ele>
        <time>2012-08-07T10:25:26Z</time>
      </trkpt>
      <trkpt lat="44.28257" lon="6.20205">
        <ele>1493.0646973</ele>
        <time>2012-08-07T10:25:43Z</time>
      </trkpt>
      <trkpt lat="44.28248" lon="6.20203">
        <ele>1494.026123</ele>
        <time>2012-08-07T10:25:51Z</time>
      </trkpt>
      <trkpt lat="44.28246" lon="6.20204">
        <ele>1494.5065918</ele>
        <time>2012-08-07T10:25:53Z</time>
      </trkpt>
      <trkpt lat="44.28231" lon="6.20208">
        <ele>1496.4294434</ele>
        <time>2012-08-07T10:26:10Z</time>
      </trkpt>
      <trkpt lat="44.28225" lon="6.2021">
        <ele>1498.3518066</ele>
        <time>2012-08-07T10:26:28Z</time>
      </trkpt>
      <trkpt lat="44.28217" lon="6.20194">
        <ele>1499.7939453</ele>
        <time>2012-08-07T10:26:42Z</time>
      </trkpt>
      <trkpt lat="44.28211" lon="6.20192">
        <ele>1499.7939453</ele>
        <time>2012-08-07T10:26:46Z</time>
      </trkpt>
      <trkpt lat="44.2819" lon="6.20189">
        <ele>1499.7939453</ele>
        <time>2012-08-07T10:26:59Z</time>
      </trkpt>
      <trkpt lat="44.28188" lon="6.20191">
        <ele>1500.2749023</ele>
        <time>2012-08-07T10:27:01Z</time>
      </trkpt>
      <trkpt lat="44.28189" lon="6.2019">
        <ele>1499.3132324</ele>
        <time>2012-08-07T10:27:21Z</time>
      </trkpt>
      <trkpt lat="44.28188" lon="6.20193">
        <ele>1499.7939453</ele>
        <time>2012-08-07T10:27:45Z</time>
      </trkpt>
      <trkpt lat="44.2819" lon="6.20192">
        <ele>1499.7939453</ele>
        <time>2012-08-07T10:28:04Z</time>
      </trkpt>
      <trkpt lat="44.28192" lon="6.20194">
        <ele>1501.236084</ele>
        <time>2012-08-07T10:28:14Z</time>
      </trkpt>
      <trkpt lat="44.28192" lon="6.20195">
        <ele>1500.7553711</ele>
        <time>2012-08-07T10:29:13Z</time>
      </trkpt>
      <trkpt lat="44.28193" lon="6.20198">
        <ele>1501.7167969</ele>
        <time>2012-08-07T10:29:17Z</time>
      </trkpt>
      <trkpt lat="44.28199" lon="6.20202">
        <ele>1502.6779785</ele>
        <time>2012-08-07T10:29:22Z</time>
      </trkpt>
      <trkpt lat="44.28206" lon="6.20207">
        <ele>1504.6005859</ele>
        <time>2012-08-07T10:29:33Z</time>
      </trkpt>
      <trkpt lat="44.28215" lon="6.20216">
        <ele>1504.6005859</ele>
        <time>2012-08-07T10:29:43Z</time>
      </trkpt>
      <trkpt lat="44.28226" lon="6.20226">
        <ele>1506.5231934</ele>
        <time>2012-08-07T10:29:55Z</time>
      </trkpt>
      <trkpt lat="44.28237" lon="6.20234">
        <ele>1507.965332</ele>
        <time>2012-08-07T10:30:09Z</time>
      </trkpt>
      <trkpt lat="44.28239" lon="6.20237">
        <ele>1508.4458008</ele>
        <time>2012-08-07T10:30:11Z</time>
      </trkpt>
      <trkpt lat="44.28254" lon="6.2026">
        <ele>1508.9265137</ele>
        <time>2012-08-07T10:30:26Z</time>
      </trkpt>
      <trkpt lat="44.28267" lon="6.20275">
        <ele>1509.8876953</ele>
        <time>2012-08-07T10:30:42Z</time>
      </trkpt>
      <trkpt lat="44.28278" lon="6.20287">
        <ele>1513.2524414</ele>
        <time>2012-08-07T10:30:55Z</time>
      </trkpt>
      <trkpt lat="44.2828" lon="6.20285">
        <ele>1513.2524414</ele>
        <time>2012-08-07T10:30:57Z</time>
      </trkpt>
      <trkpt lat="44.28306" lon="6.20298">
        <ele>1514.6943359</ele>
        <time>2012-08-07T10:31:16Z</time>
      </trkpt>
      <trkpt lat="44.28325" lon="6.20291">
        <ele>1517.0979004</ele>
        <time>2012-08-07T10:31:31Z</time>
      </trkpt>
      <trkpt lat="44.2833" lon="6.20289">
        <ele>1518.5397949</ele>
        <time>2012-08-07T10:31:42Z</time>
      </trkpt>
      <trkpt lat="44.2833" lon="6.20289">
        <ele>1515.1750488</ele>
        <time>2012-08-07T10:31:51Z</time>
      </trkpt>
      <trkpt lat="44.2833" lon="6.20289">
        <ele>1515.1750488</ele>
        <time>2012-08-07T10:31:52Z</time>
      </trkpt>
      <trkpt lat="44.2833" lon="6.20289">
        <ele>1517.5783691</ele>
        <time>2012-08-07T10:31:56Z</time>
      </trkpt>
      <trkpt lat="44.28331" lon="6.2029">
        <ele>1515.6557617</ele>
        <time>2012-08-07T10:31:59Z</time>
      </trkpt>
      <trkpt lat="44.28332" lon="6.2029">
        <ele>1519.0205078</ele>
        <time>2012-08-07T10:32:00Z</time>
      </trkpt>
      <trkpt lat="44.28333" lon="6.2029">
        <ele>1519.0205078</ele>
        <time>2012-08-07T10:32:01Z</time>
      </trkpt>
      <trkpt lat="44.28335" lon="6.2029">
        <ele>1517.5783691</ele>
        <time>2012-08-07T10:32:03Z</time>
      </trkpt>
      <trkpt lat="44.28338" lon="6.20289">
        <ele>1519.0205078</ele>
        <time>2012-08-07T10:32:08Z</time>
      </trkpt>
      <trkpt lat="44.28342" lon="6.20287">
        <ele>1520.9431152</ele>
        <time>2012-08-07T10:32:12Z</time>
      </trkpt>
      <trkpt lat="44.28351" lon="6.20281">
        <ele>1519.5012207</ele>
        <time>2012-08-07T10:32:24Z</time>
      </trkpt>
      <trkpt lat="44.28354" lon="6.20282">
        <ele>1521.423584</ele>
        <time>2012-08-07T10:32:28Z</time>
      </trkpt>
      <trkpt lat="44.28356" lon="6.20283">
        <ele>1522.8657227</ele>
        <time>2012-08-07T10:32:31Z</time>
      </trkpt>
      <trkpt lat="44.28362" lon="6.20291">
        <ele>1521.423584</ele>
        <time>2012-08-07T10:32:42Z</time>
      </trkpt>
      <trkpt lat="44.28363" lon="6.20295">
        <ele>1522.8657227</ele>
        <time>2012-08-07T10:32:45Z</time>
      </trkpt>
      <trkpt lat="44.28362" lon="6.20297">
        <ele>1521.423584</ele>
        <time>2012-08-07T10:32:47Z</time>
      </trkpt>
      <trkpt lat="44.2836" lon="6.20305">
        <ele>1523.8269043</ele>
        <time>2012-08-07T10:32:54Z</time>
      </trkpt>
      <trkpt lat="44.28357" lon="6.20311">
        <ele>1525.2687988</ele>
        <time>2012-08-07T10:32:59Z</time>
      </trkpt>
      <trkpt lat="44.28355" lon="6.20313">
        <ele>1523.8269043</ele>
        <time>2012-08-07T10:33:02Z</time>
      </trkpt>
      <trkpt lat="44.28352" lon="6.20316">
        <ele>1525.2687988</ele>
        <time>2012-08-07T10:33:06Z</time>
      </trkpt>
      <trkpt lat="44.2835" lon="6.20321">
        <ele>1526.2302246</ele>
        <time>2012-08-07T10:33:10Z</time>
      </trkpt>
      <trkpt lat="44.28346" lon="6.20324">
        <ele>1526.7109375</ele>
        <time>2012-08-07T10:33:16Z</time>
      </trkpt>
      <trkpt lat="44.28347" lon="6.20325">
        <ele>1528.152832</ele>
        <time>2012-08-07T10:33:45Z</time>
      </trkpt>
      <trkpt lat="44.28347" lon="6.20325">
        <ele>1526.2302246</ele>
        <time>2012-08-07T10:34:10Z</time>
      </trkpt>
      <trkpt lat="44.28342" lon="6.20329">
        <ele>1527.1916504</ele>
        <time>2012-08-07T10:34:17Z</time>
      </trkpt>
      <trkpt lat="44.2834" lon="6.2033">
        <ele>1528.6335449</ele>
        <time>2012-08-07T10:34:19Z</time>
      </trkpt>
      <trkpt lat="44.28339" lon="6.20332">
        <ele>1528.6335449</ele>
        <time>2012-08-07T10:34:20Z</time>
      </trkpt>
      <trkpt lat="44.28333" lon="6.20343">
        <ele>1529.5947266</ele>
        <time>2012-08-07T10:34:29Z</time>
      </trkpt>
      <trkpt lat="44.28332" lon="6.20345">
        <ele>1530.5561523</ele>
        <time>2012-08-07T10:34:31Z</time>
      </trkpt>
      <trkpt lat="44.28329" lon="6.2035">
        <ele>1529.1140137</ele>
        <time>2012-08-07T10:34:36Z</time>
      </trkpt>
      <trkpt lat="44.28328" lon="6.20351">
        <ele>1529.1140137</ele>
        <time>2012-08-07T10:34:37Z</time>
      </trkpt>
      <trkpt lat="44.28327" lon="6.20354">
        <ele>1530.5561523</ele>
        <time>2012-08-07T10:34:40Z</time>
      </trkpt>
      <trkpt lat="44.28326" lon="6.20355">
        <ele>1530.5561523</ele>
        <time>2012-08-07T10:34:41Z</time>
      </trkpt>
      <trkpt lat="44.28324" lon="6.20357">
        <ele>1531.9980469</ele>
        <time>2012-08-07T10:34:43Z</time>
      </trkpt>
      <trkpt lat="44.28322" lon="6.20362">
        <ele>1532.4790039</ele>
        <time>2012-08-07T10:34:47Z</time>
      </trkpt>
      <trkpt lat="44.2832" lon="6.20378">
        <ele>1531.9980469</ele>
        <time>2012-08-07T10:34:59Z</time>
      </trkpt>
      <trkpt lat="44.2832" lon="6.20385">
        <ele>1533.4401855</ele>
        <time>2012-08-07T10:35:05Z</time>
      </trkpt>
      <trkpt lat="44.28321" lon="6.20395">
        <ele>1533.4401855</ele>
        <time>2012-08-07T10:35:13Z</time>
      </trkpt>
      <trkpt lat="44.2832" lon="6.20397">
        <ele>1535.362793</ele>
        <time>2012-08-07T10:35:15Z</time>
      </trkpt>
      <trkpt lat="44.28319" lon="6.20407">
        <ele>1537.2854004</ele>
        <time>2012-08-07T10:35:26Z</time>
      </trkpt>
      <trkpt lat="44.28317" lon="6.20406">
        <ele>1537.2854004</ele>
        <time>2012-08-07T10:35:27Z</time>
      </trkpt>
      <trkpt lat="44.28318" lon="6.20409">
        <ele>1537.2854004</ele>
        <time>2012-08-07T10:35:34Z</time>
      </trkpt>
      <trkpt lat="44.28317" lon="6.20414">
        <ele>1539.2080078</ele>
        <time>2012-08-07T10:35:39Z</time>
      </trkpt>
      <trkpt lat="44.28316" lon="6.20416">
        <ele>1537.2854004</ele>
        <time>2012-08-07T10:35:41Z</time>
      </trkpt>
      <trkpt lat="44.28316" lon="6.20428">
        <ele>1538.2468262</ele>
        <time>2012-08-07T10:35:46Z</time>
      </trkpt>
      <trkpt lat="44.28321" lon="6.20446">
        <ele>1540.1694336</ele>
        <time>2012-08-07T10:36:01Z</time>
      </trkpt>
      <trkpt lat="44.28328" lon="6.2046">
        <ele>1542.092041</ele>
        <time>2012-08-07T10:36:17Z</time>
      </trkpt>
      <trkpt lat="44.2834" lon="6.20475">
        <ele>1543.0532227</ele>
        <time>2012-08-07T10:36:35Z</time>
      </trkpt>
      <trkpt lat="44.2835" lon="6.20494">
        <ele>1546.4179688</ele>
        <time>2012-08-07T10:36:58Z</time>
      </trkpt>
      <trkpt lat="44.28363" lon="6.20523">
        <ele>1549.302002</ele>
        <time>2012-08-07T10:37:27Z</time>
      </trkpt>
      <trkpt lat="44.28374" lon="6.20545">
        <ele>1551.7053223</ele>
        <time>2012-08-07T10:37:50Z</time>
      </trkpt>
      <trkpt lat="44.28379" lon="6.20559">
        <ele>1553.6279297</ele>
        <time>2012-08-07T10:38:14Z</time>
      </trkpt>
      <trkpt lat="44.28381" lon="6.20557">
        <ele>1553.1472168</ele>
        <time>2012-08-07T10:38:30Z</time>
      </trkpt>
      <trkpt lat="44.28381" lon="6.20557">
        <ele>1554.5891113</ele>
        <time>2012-08-07T10:38:39Z</time>
      </trkpt>
      <trkpt lat="44.28381" lon="6.20557">
        <ele>1555.0698242</ele>
        <time>2012-08-07T10:39:14Z</time>
      </trkpt>
      <trkpt lat="44.28381" lon="6.20557">
        <ele>1558.4343262</ele>
        <time>2012-08-07T10:40:10Z</time>
      </trkpt>
      <trkpt lat="44.28397" lon="6.20582">
        <ele>1561.3183594</ele>
        <time>2012-08-07T10:40:31Z</time>
      </trkpt>
      <trkpt lat="44.28418" lon="6.20605">
        <ele>1563.7214355</ele>
        <time>2012-08-07T10:40:46Z</time>
      </trkpt>
      <trkpt lat="44.28425" lon="6.20628">
        <ele>1564.6831055</ele>
        <time>2012-08-07T10:40:54Z</time>
      </trkpt>
      <trkpt lat="44.28425" lon="6.20632">
        <ele>1565.6445313</ele>
        <time>2012-08-07T10:40:56Z</time>
      </trkpt>
      <trkpt lat="44.2842" lon="6.20645">
        <ele>1566.6057129</ele>
        <time>2012-08-07T10:41:05Z</time>
      </trkpt>
      <trkpt lat="44.28415" lon="6.2066">
        <ele>1567.5668945</ele>
        <time>2012-08-07T10:41:19Z</time>
      </trkpt>
      <trkpt lat="44.28412" lon="6.20667">
        <ele>1568.5283203</ele>
        <time>2012-08-07T10:41:26Z</time>
      </trkpt>
      <trkpt lat="44.28406" lon="6.20684">
        <ele>1569.4897461</ele>
        <time>2012-08-07T10:41:48Z</time>
      </trkpt>
      <trkpt lat="44.28408" lon="6.2069">
        <ele>1571.4121094</ele>
        <time>2012-08-07T10:42:58Z</time>
      </trkpt>
      <trkpt lat="44.28402" lon="6.20711">
        <ele>1573.8154297</ele>
        <time>2012-08-07T10:43:17Z</time>
      </trkpt>
      <trkpt lat="44.28392" lon="6.20735">
        <ele>1575.7380371</ele>
        <time>2012-08-07T10:43:37Z</time>
      </trkpt>
      <trkpt lat="44.28394" lon="6.2075">
        <ele>1577.1801758</ele>
        <time>2012-08-07T10:43:50Z</time>
      </trkpt>
      <trkpt lat="44.28392" lon="6.20772">
        <ele>1579.583252</ele>
        <time>2012-08-07T10:44:11Z</time>
      </trkpt>
      <trkpt lat="44.28392" lon="6.20774">
        <ele>1581.0256348</ele>
        <time>2012-08-07T10:44:13Z</time>
      </trkpt>
      <trkpt lat="44.28388" lon="6.20784">
        <ele>1581.9868164</ele>
        <time>2012-08-07T10:44:26Z</time>
      </trkpt>
      <trkpt lat="44.28377" lon="6.20802">
        <ele>1584.3901367</ele>
        <time>2012-08-07T10:44:47Z</time>
      </trkpt>
      <trkpt lat="44.28368" lon="6.20814">
        <ele>1585.8320313</ele>
        <time>2012-08-07T10:45:01Z</time>
      </trkpt>
      <trkpt lat="44.28367" lon="6.20818">
        <ele>1586.7932129</ele>
        <time>2012-08-07T10:45:25Z</time>
      </trkpt>
      <trkpt lat="44.28367" lon="6.20818">
        <ele>1587.2739258</ele>
        <time>2012-08-07T10:45:45Z</time>
      </trkpt>
      <trkpt lat="44.28369" lon="6.20829">
        <ele>1588.7160645</ele>
        <time>2012-08-07T10:45:56Z</time>
      </trkpt>
      <trkpt lat="44.28369" lon="6.20835">
        <ele>1588.7160645</ele>
        <time>2012-08-07T10:46:00Z</time>
      </trkpt>
      <trkpt lat="44.2837" lon="6.20842">
        <ele>1589.6772461</ele>
        <time>2012-08-07T10:46:04Z</time>
      </trkpt>
      <trkpt lat="44.28373" lon="6.20856">
        <ele>1591.1191406</ele>
        <time>2012-08-07T10:46:15Z</time>
      </trkpt>
      <trkpt lat="44.28378" lon="6.2087">
        <ele>1592.5612793</ele>
        <time>2012-08-07T10:46:27Z</time>
      </trkpt>
      <trkpt lat="44.2838" lon="6.20875">
        <ele>1591.1191406</ele>
        <time>2012-08-07T10:46:31Z</time>
      </trkpt>
      <trkpt lat="44.28382" lon="6.20887">
        <ele>1593.5224609</ele>
        <time>2012-08-07T10:46:41Z</time>
      </trkpt>
      <trkpt lat="44.28381" lon="6.20914">
        <ele>1596.887207</ele>
        <time>2012-08-07T10:47:07Z</time>
      </trkpt>
      <trkpt lat="44.28381" lon="6.2093">
        <ele>1597.8486328</ele>
        <time>2012-08-07T10:47:24Z</time>
      </trkpt>
      <trkpt lat="44.28378" lon="6.2095">
        <ele>1599.7712402</ele>
        <time>2012-08-07T10:47:43Z</time>
      </trkpt>
      <trkpt lat="44.28377" lon="6.20967">
        <ele>1600.7324219</ele>
        <time>2012-08-07T10:47:59Z</time>
      </trkpt>
      <trkpt lat="44.28381" lon="6.20996">
        <ele>1603.1357422</ele>
        <time>2012-08-07T10:48:21Z</time>
      </trkpt>
      <trkpt lat="44.28382" lon="6.21012">
        <ele>1603.6164551</ele>
        <time>2012-08-07T10:48:43Z</time>
      </trkpt>
      <trkpt lat="44.28402" lon="6.21037">
        <ele>1604.5776367</ele>
        <time>2012-08-07T10:49:00Z</time>
      </trkpt>
      <trkpt lat="44.28402" lon="6.2104">
        <ele>1605.0583496</ele>
        <time>2012-08-07T10:49:16Z</time>
      </trkpt>
      <trkpt lat="44.28407" lon="6.21039">
        <ele>1603.6164551</ele>
        <time>2012-08-07T10:49:27Z</time>
      </trkpt>
      <trkpt lat="44.28424" lon="6.21032">
        <ele>1604.097168</ele>
        <time>2012-08-07T10:49:39Z</time>
      </trkpt>
      <trkpt lat="44.28427" lon="6.21032">
        <ele>1605.5390625</ele>
        <time>2012-08-07T10:49:41Z</time>
      </trkpt>
      <trkpt lat="44.28422" lon="6.21026">
        <ele>1604.097168</ele>
        <time>2012-08-07T10:50:01Z</time>
      </trkpt>
      <trkpt lat="44.28409" lon="6.21007">
        <ele>1604.5776367</ele>
        <time>2012-08-07T10:50:23Z</time>
      </trkpt>
      <trkpt lat="44.28409" lon="6.21">
        <ele>1603.6164551</ele>
        <time>2012-08-07T10:50:35Z</time>
      </trkpt>
      <trkpt lat="44.28412" lon="6.20987">
        <ele>1603.1357422</ele>
        <time>2012-08-07T10:50:43Z</time>
      </trkpt>
      <trkpt lat="44.28413" lon="6.2098">
        <ele>1601.2131348</ele>
        <time>2012-08-07T10:50:48Z</time>
      </trkpt>
      <trkpt lat="44.28411" lon="6.20954">
        <ele>1598.8098145</ele>
        <time>2012-08-07T10:51:02Z</time>
      </trkpt>
      <trkpt lat="44.28406" lon="6.20949">
        <ele>1597.8486328</ele>
        <time>2012-08-07T10:51:04Z</time>
      </trkpt>
      <trkpt lat="44.28399" lon="6.20932">
        <ele>1595.9257813</ele>
        <time>2012-08-07T10:51:12Z</time>
      </trkpt>
      <trkpt lat="44.28384" lon="6.20897">
        <ele>1593.5224609</ele>
        <time>2012-08-07T10:51:27Z</time>
      </trkpt>
      <trkpt lat="44.28381" lon="6.20832">
        <ele>1591.5998535</ele>
        <time>2012-08-07T10:51:38Z</time>
      </trkpt>
      <trkpt lat="44.28387" lon="6.20818">
        <ele>1593.5224609</ele>
        <time>2012-08-07T10:51:46Z</time>
      </trkpt>
      <trkpt lat="44.28394" lon="6.20801">
        <ele>1594.4836426</ele>
        <time>2012-08-07T10:51:57Z</time>
      </trkpt>
      <trkpt lat="44.28389" lon="6.20777">
        <ele>1595.9257813</ele>
        <time>2012-08-07T10:52:03Z</time>
      </trkpt>
      <trkpt lat="44.2839" lon="6.20772">
        <ele>1594.4836426</ele>
        <time>2012-08-07T10:52:05Z</time>
      </trkpt>
      <trkpt lat="44.28381" lon="6.20751">
        <ele>1596.887207</ele>
        <time>2012-08-07T10:52:18Z</time>
      </trkpt>
      <trkpt lat="44.28378" lon="6.20728">
        <ele>1598.8098145</ele>
        <time>2012-08-07T10:52:35Z</time>
      </trkpt>
      <trkpt lat="44.28375" lon="6.2071">
        <ele>1601.2131348</ele>
        <time>2012-08-07T10:53:20Z</time>
      </trkpt>
      <trkpt lat="44.28369" lon="6.20698">
        <ele>1602.6550293</ele>
        <time>2012-08-07T10:53:29Z</time>
      </trkpt>
      <trkpt lat="44.28364" lon="6.2069">
        <ele>1603.1357422</ele>
        <time>2012-08-07T10:53:34Z</time>
      </trkpt>
      <trkpt lat="44.28359" lon="6.20676">
        <ele>1604.5776367</ele>
        <time>2012-08-07T10:53:41Z</time>
      </trkpt>
      <trkpt lat="44.28344" lon="6.20658">
        <ele>1606.5002441</ele>
        <time>2012-08-07T10:53:50Z</time>
      </trkpt>
      <trkpt lat="44.28336" lon="6.2064">
        <ele>1607.9423828</ele>
        <time>2012-08-07T10:54:04Z</time>
      </trkpt>
      <trkpt lat="44.28329" lon="6.20631">
        <ele>1608.4228516</ele>
        <time>2012-08-07T10:54:17Z</time>
      </trkpt>
      <trkpt lat="44.28315" lon="6.20623">
        <ele>1610.345459</ele>
        <time>2012-08-07T10:54:32Z</time>
      </trkpt>
      <trkpt lat="44.28302" lon="6.20623">
        <ele>1611.7875977</ele>
        <time>2012-08-07T10:54:46Z</time>
      </trkpt>
      <trkpt lat="44.28289" lon="6.20625">
        <ele>1613.2297363</ele>
        <time>2012-08-07T10:54:59Z</time>
      </trkpt>
      <trkpt lat="44.28275" lon="6.20627">
        <ele>1614.190918</ele>
        <time>2012-08-07T10:55:14Z</time>
      </trkpt>
      <trkpt lat="44.28272" lon="6.20629">
        <ele>1612.7490234</ele>
        <time>2012-08-07T10:55:17Z</time>
      </trkpt>
      <trkpt lat="44.28269" lon="6.20631">
        <ele>1613.7102051</ele>
        <time>2012-08-07T10:55:21Z</time>
      </trkpt>
      <trkpt lat="44.28266" lon="6.20635">
        <ele>1616.5942383</ele>
        <time>2012-08-07T10:55:26Z</time>
      </trkpt>
      <trkpt lat="44.28254" lon="6.20646">
        <ele>1618.0361328</ele>
        <time>2012-08-07T10:55:44Z</time>
      </trkpt>
      <trkpt lat="44.28244" lon="6.2066">
        <ele>1619.9587402</ele>
        <time>2012-08-07T10:56:04Z</time>
      </trkpt>
      <trkpt lat="44.28232" lon="6.20672">
        <ele>1621.8813477</ele>
        <time>2012-08-07T10:56:20Z</time>
      </trkpt>
      <trkpt lat="44.28222" lon="6.20694">
        <ele>1623.8039551</ele>
        <time>2012-08-07T10:56:40Z</time>
      </trkpt>
      <trkpt lat="44.28215" lon="6.20712">
        <ele>1625.7265625</ele>
        <time>2012-08-07T10:56:58Z</time>
      </trkpt>
      <trkpt lat="44.2821" lon="6.20724">
        <ele>1627.1687012</ele>
        <time>2012-08-07T10:57:11Z</time>
      </trkpt>
      <trkpt lat="44.28205" lon="6.2073">
        <ele>1627.6491699</ele>
        <time>2012-08-07T10:57:18Z</time>
      </trkpt>
      <trkpt lat="44.28198" lon="6.20742">
        <ele>1628.6108398</ele>
        <time>2012-08-07T10:57:30Z</time>
      </trkpt>
      <trkpt lat="44.28196" lon="6.20744">
        <ele>1629.0913086</ele>
        <time>2012-08-07T10:57:33Z</time>
      </trkpt>
      <trkpt lat="44.28185" lon="6.20755">
        <ele>1630.5334473</ele>
        <time>2012-08-07T10:57:48Z</time>
      </trkpt>
      <trkpt lat="44.2818" lon="6.2076">
        <ele>1631.0141602</ele>
        <time>2012-08-07T10:58:03Z</time>
      </trkpt>
      <trkpt lat="44.28173" lon="6.20763">
        <ele>1631.4946289</ele>
        <time>2012-08-07T10:58:13Z</time>
      </trkpt>
      <trkpt lat="44.28169" lon="6.20767">
        <ele>1631.9753418</ele>
        <time>2012-08-07T10:58:17Z</time>
      </trkpt>
      <trkpt lat="44.28163" lon="6.20774">
        <ele>1632.9365234</ele>
        <time>2012-08-07T10:58:28Z</time>
      </trkpt>
      <trkpt lat="44.28157" lon="6.20777">
        <ele>1633.4172363</ele>
        <time>2012-08-07T10:58:34Z</time>
      </trkpt>
      <trkpt lat="44.28142" lon="6.20781">
        <ele>1634.859375</ele>
        <time>2012-08-07T10:58:51Z</time>
      </trkpt>
      <trkpt lat="44.28137" lon="6.20791">
        <ele>1635.8205566</ele>
        <time>2012-08-07T10:59:06Z</time>
      </trkpt>
      <trkpt lat="44.28139" lon="6.20795">
        <ele>1636.7817383</ele>
        <time>2012-08-07T10:59:22Z</time>
      </trkpt>
      <trkpt lat="44.28142" lon="6.20795">
        <ele>1637.2624512</ele>
        <time>2012-08-07T10:59:36Z</time>
      </trkpt>
      <trkpt lat="44.28142" lon="6.20795">
        <ele>1635.8205566</ele>
        <time>2012-08-07T10:59:50Z</time>
      </trkpt>
      <trkpt lat="44.28142" lon="6.20795">
        <ele>1637.2624512</ele>
        <time>2012-08-07T10:59:52Z</time>
      </trkpt>
      <trkpt lat="44.2814" lon="6.20799">
        <ele>1634.859375</ele>
        <time>2012-08-07T11:00:18Z</time>
      </trkpt>
      <trkpt lat="44.28138" lon="6.20798">
        <ele>1637.7431641</ele>
        <time>2012-08-07T11:00:27Z</time>
      </trkpt>
      <trkpt lat="44.28139" lon="6.20798">
        <ele>1639.6657715</ele>
        <time>2012-08-07T11:00:30Z</time>
      </trkpt>
      <trkpt lat="44.28139" lon="6.20798">
        <ele>1637.7431641</ele>
        <time>2012-08-07T11:00:46Z</time>
      </trkpt>
      <trkpt lat="44.28138" lon="6.20807">
        <ele>1637.7431641</ele>
        <time>2012-08-07T11:00:52Z</time>
      </trkpt>
      <trkpt lat="44.28132" lon="6.20815">
        <ele>1639.6657715</ele>
        <time>2012-08-07T11:01:04Z</time>
      </trkpt>
      <trkpt lat="44.28126" lon="6.20826">
        <ele>1641.107666</ele>
        <time>2012-08-07T11:01:22Z</time>
      </trkpt>
      <trkpt lat="44.2812" lon="6.20817">
        <ele>1639.6657715</ele>
        <time>2012-08-07T11:01:37Z</time>
      </trkpt>
      <trkpt lat="44.28118" lon="6.20816">
        <ele>1641.5883789</ele>
        <time>2012-08-07T11:01:39Z</time>
      </trkpt>
      <trkpt lat="44.28113" lon="6.20813">
        <ele>1639.6657715</ele>
        <time>2012-08-07T11:01:41Z</time>
      </trkpt>
      <trkpt lat="44.2811" lon="6.2081">
        <ele>1642.5498047</ele>
        <time>2012-08-07T11:01:44Z</time>
      </trkpt>
      <trkpt lat="44.2811" lon="6.2081">
        <ele>1641.5883789</ele>
        <time>2012-08-07T11:01:46Z</time>
      </trkpt>
      <trkpt lat="44.28102" lon="6.20821">
        <ele>1638.223877</ele>
        <time>2012-08-07T11:02:06Z</time>
      </trkpt>
      <trkpt lat="44.2807" lon="6.20822">
        <ele>1638.223877</ele>
        <time>2012-08-07T11:02:30Z</time>
      </trkpt>
      <trkpt lat="44.28061" lon="6.20819">
        <ele>1636.7817383</ele>
        <time>2012-08-07T11:02:41Z</time>
      </trkpt>
      <trkpt lat="44.28053" lon="6.20818">
        <ele>1636.3012695</ele>
        <time>2012-08-07T11:02:55Z</time>
      </trkpt>
      <trkpt lat="44.28044" lon="6.20819">
        <ele>1635.8205566</ele>
        <time>2012-08-07T11:03:15Z</time>
      </trkpt>
      <trkpt lat="44.28039" lon="6.20821">
        <ele>1635.8205566</ele>
        <time>2012-08-07T11:03:32Z</time>
      </trkpt>
      <trkpt lat="44.28037" lon="6.2082">
        <ele>1635.8205566</ele>
        <time>2012-08-07T11:03:34Z</time>
      </trkpt>
      <trkpt lat="44.28027" lon="6.20823">
        <ele>1635.3398438</ele>
        <time>2012-08-07T11:03:43Z</time>
      </trkpt>
      <trkpt lat="44.28024" lon="6.20822">
        <ele>1635.3398438</ele>
        <time>2012-08-07T11:03:45Z</time>
      </trkpt>
      <trkpt lat="44.28012" lon="6.20824">
        <ele>1634.859375</ele>
        <time>2012-08-07T11:03:55Z</time>
      </trkpt>
      <trkpt lat="44.2801" lon="6.20823">
        <ele>1634.3786621</ele>
        <time>2012-08-07T11:03:57Z</time>
      </trkpt>
      <trkpt lat="44.28001" lon="6.20826">
        <ele>1634.3786621</ele>
        <time>2012-08-07T11:04:10Z</time>
      </trkpt>
      <trkpt lat="44.27989" lon="6.20826">
        <ele>1633.8979492</ele>
        <time>2012-08-07T11:04:26Z</time>
      </trkpt>
      <trkpt lat="44.27979" lon="6.20826">
        <ele>1633.8979492</ele>
        <time>2012-08-07T11:04:37Z</time>
      </trkpt>
      <trkpt lat="44.27977" lon="6.20827">
        <ele>1632.9365234</ele>
        <time>2012-08-07T11:04:49Z</time>
      </trkpt>
      <trkpt lat="44.27973" lon="6.20831">
        <ele>1631.4946289</ele>
        <time>2012-08-07T11:05:01Z</time>
      </trkpt>
      <trkpt lat="44.27971" lon="6.20831">
        <ele>1631.0141602</ele>
        <time>2012-08-07T11:05:03Z</time>
      </trkpt>
      <trkpt lat="44.27961" lon="6.20827">
        <ele>1631.9753418</ele>
        <time>2012-08-07T11:05:15Z</time>
      </trkpt>
      <trkpt lat="44.2796" lon="6.20828">
        <ele>1631.4946289</ele>
        <time>2012-08-07T11:05:37Z</time>
      </trkpt>
      <trkpt lat="44.2796" lon="6.20828">
        <ele>1632.9365234</ele>
        <time>2012-08-07T11:05:42Z</time>
      </trkpt>
      <trkpt lat="44.2796" lon="6.20828">
        <ele>1631.0141602</ele>
        <time>2012-08-07T11:05:54Z</time>
      </trkpt>
      <trkpt lat="44.2796" lon="6.20828">
        <ele>1632.4560547</ele>
        <time>2012-08-07T11:05:56Z</time>
      </trkpt>
      <trkpt lat="44.2796" lon="6.20828">
        <ele>1631.0141602</ele>
        <time>2012-08-07T11:06:36Z</time>
      </trkpt>
      <trkpt lat="44.2796" lon="6.20828">
        <ele>1631.9753418</ele>
        <time>2012-08-07T11:06:47Z</time>
      </trkpt>
      <trkpt lat="44.2796" lon="6.20827">
        <ele>1633.8979492</ele>
        <time>2012-08-07T11:07:06Z</time>
      </trkpt>
      <trkpt lat="44.27959" lon="6.20827">
        <ele>1631.9753418</ele>
        <time>2012-08-07T11:07:08Z</time>
      </trkpt>
      <trkpt lat="44.2796" lon="6.20828">
        <ele>1633.8979492</ele>
        <time>2012-08-07T11:07:10Z</time>
      </trkpt>
      <trkpt lat="44.27956" lon="6.20826">
        <ele>1630.5334473</ele>
        <time>2012-08-07T11:07:18Z</time>
      </trkpt>
      <trkpt lat="44.2795" lon="6.20824">
        <ele>1628.6108398</ele>
        <time>2012-08-07T11:07:29Z</time>
      </trkpt>
      <trkpt lat="44.27944" lon="6.20822">
        <ele>1626.6879883</ele>
        <time>2012-08-07T11:07:45Z</time>
      </trkpt>
      <trkpt lat="44.27944" lon="6.20822">
        <ele>1625.7265625</ele>
        <time>2012-08-07T11:07:49Z</time>
      </trkpt>
      <trkpt lat="44.27943" lon="6.2082">
        <ele>1625.7265625</ele>
        <time>2012-08-07T11:07:59Z</time>
      </trkpt>
      <trkpt lat="44.2794" lon="6.20812">
        <ele>1624.7653809</ele>
        <time>2012-08-07T11:08:04Z</time>
      </trkpt>
      <trkpt lat="44.27938" lon="6.20803">
        <ele>1621.8813477</ele>
        <time>2012-08-07T11:08:08Z</time>
      </trkpt>
      <trkpt lat="44.27936" lon="6.20801">
        <ele>1621.8813477</ele>
        <time>2012-08-07T11:08:09Z</time>
      </trkpt>
      <trkpt lat="44.27935" lon="6.20798">
        <ele>1620.920166</ele>
        <time>2012-08-07T11:08:11Z</time>
      </trkpt>
      <trkpt lat="44.27928" lon="6.20792">
        <ele>1619.9587402</ele>
        <time>2012-08-07T11:08:17Z</time>
      </trkpt>
      <trkpt lat="44.27909" lon="6.20783">
        <ele>1618.0361328</ele>
        <time>2012-08-07T11:08:24Z</time>
      </trkpt>
      <trkpt lat="44.27898" lon="6.20773">
        <ele>1617.5554199</ele>
        <time>2012-08-07T11:08:34Z</time>
      </trkpt>
      <trkpt lat="44.27892" lon="6.20772">
        <ele>1618.5168457</ele>
        <time>2012-08-07T11:08:38Z</time>
      </trkpt>
      <trkpt lat="44.27891" lon="6.20773">
        <ele>1618.0361328</ele>
        <time>2012-08-07T11:08:40Z</time>
      </trkpt>
      <trkpt lat="44.27867" lon="6.20773">
        <ele>1618.5168457</ele>
        <time>2012-08-07T11:08:57Z</time>
      </trkpt>
      <trkpt lat="44.27861" lon="6.2078">
        <ele>1621.4006348</ele>
        <time>2012-08-07T11:09:13Z</time>
      </trkpt>
      <trkpt lat="44.27846" lon="6.20787">
        <ele>1624.7653809</ele>
        <time>2012-08-07T11:09:35Z</time>
      </trkpt>
      <trkpt lat="44.27838" lon="6.20794">
        <ele>1625.7265625</ele>
        <time>2012-08-07T11:09:48Z</time>
      </trkpt>
      <trkpt lat="44.27832" lon="6.20815">
        <ele>1627.1687012</ele>
        <time>2012-08-07T11:10:04Z</time>
      </trkpt>
      <trkpt lat="44.27819" lon="6.20834">
        <ele>1627.6491699</ele>
        <time>2012-08-07T11:10:24Z</time>
      </trkpt>
      <trkpt lat="44.27817" lon="6.20838">
        <ele>1627.6491699</ele>
        <time>2012-08-07T11:10:27Z</time>
      </trkpt>
      <trkpt lat="44.2781" lon="6.20866">
        <ele>1628.130127</ele>
        <time>2012-08-07T11:10:49Z</time>
      </trkpt>
      <trkpt lat="44.27809" lon="6.2089">
        <ele>1627.6491699</ele>
        <time>2012-08-07T11:11:08Z</time>
      </trkpt>
      <trkpt lat="44.27801" lon="6.209">
        <ele>1626.2072754</ele>
        <time>2012-08-07T11:11:20Z</time>
      </trkpt>
      <trkpt lat="44.27794" lon="6.20905">
        <ele>1625.7265625</ele>
        <time>2012-08-07T11:11:34Z</time>
      </trkpt>
      <trkpt lat="44.2778" lon="6.20918">
        <ele>1625.7265625</ele>
        <time>2012-08-07T11:11:51Z</time>
      </trkpt>
      <trkpt lat="44.27759" lon="6.20927">
        <ele>1626.2072754</ele>
        <time>2012-08-07T11:12:11Z</time>
      </trkpt>
      <trkpt lat="44.27741" lon="6.20937">
        <ele>1627.1687012</ele>
        <time>2012-08-07T11:12:31Z</time>
      </trkpt>
      <trkpt lat="44.27727" lon="6.20949">
        <ele>1627.6491699</ele>
        <time>2012-08-07T11:12:50Z</time>
      </trkpt>
      <trkpt lat="44.27724" lon="6.20954">
        <ele>1628.6108398</ele>
        <time>2012-08-07T11:13:06Z</time>
      </trkpt>
      <trkpt lat="44.27724" lon="6.20954">
        <ele>1628.130127</ele>
        <time>2012-08-07T11:13:21Z</time>
      </trkpt>
      <trkpt lat="44.27724" lon="6.20954">
        <ele>1628.6108398</ele>
        <time>2012-08-07T11:13:28Z</time>
      </trkpt>
      <trkpt lat="44.27725" lon="6.20954">
        <ele>1628.6108398</ele>
        <time>2012-08-07T11:13:53Z</time>
      </trkpt>
      <trkpt lat="44.27722" lon="6.20959">
        <ele>1627.6491699</ele>
        <time>2012-08-07T11:14:14Z</time>
      </trkpt>
      <trkpt lat="44.27721" lon="6.20961">
        <ele>1629.5720215</ele>
        <time>2012-08-07T11:14:16Z</time>
      </trkpt>
      <trkpt lat="44.27716" lon="6.2097">
        <ele>1630.0527344</ele>
        <time>2012-08-07T11:14:25Z</time>
      </trkpt>
      <trkpt lat="44.27715" lon="6.20975">
        <ele>1629.5720215</ele>
        <time>2012-08-07T11:14:28Z</time>
      </trkpt>
      <trkpt lat="44.27713" lon="6.20981">
        <ele>1631.9753418</ele>
        <time>2012-08-07T11:14:33Z</time>
      </trkpt>
      <trkpt lat="44.27704" lon="6.20985">
        <ele>1633.4172363</ele>
        <time>2012-08-07T11:14:46Z</time>
      </trkpt>
      <trkpt lat="44.27698" lon="6.20988">
        <ele>1634.3786621</ele>
        <time>2012-08-07T11:15:00Z</time>
      </trkpt>
      <trkpt lat="44.27692" lon="6.20989">
        <ele>1637.7431641</ele>
        <time>2012-08-07T11:15:09Z</time>
      </trkpt>
      <trkpt lat="44.27692" lon="6.20989">
        <ele>1637.7431641</ele>
        <time>2012-08-07T11:15:10Z</time>
      </trkpt>
      <trkpt lat="44.27683" lon="6.20989">
        <ele>1638.7045898</ele>
        <time>2012-08-07T11:15:23Z</time>
      </trkpt>
      <trkpt lat="44.27677" lon="6.20994">
        <ele>1639.6657715</ele>
        <time>2012-08-07T11:15:39Z</time>
      </trkpt>
      <trkpt lat="44.27678" lon="6.20993">
        <ele>1639.1850586</ele>
        <time>2012-08-07T11:16:02Z</time>
      </trkpt>
      <trkpt lat="44.27678" lon="6.20993">
        <ele>1640.1464844</ele>
        <time>2012-08-07T11:16:10Z</time>
      </trkpt>
      <trkpt lat="44.27679" lon="6.20999">
        <ele>1640.1464844</ele>
        <time>2012-08-07T11:16:26Z</time>
      </trkpt>
      <trkpt lat="44.2768" lon="6.21011">
        <ele>1642.0690918</ele>
        <time>2012-08-07T11:16:40Z</time>
      </trkpt>
      <trkpt lat="44.27683" lon="6.21022">
        <ele>1644.4724121</ele>
        <time>2012-08-07T11:16:54Z</time>
      </trkpt>
      <trkpt lat="44.27681" lon="6.2103">
        <ele>1645.9145508</ele>
        <time>2012-08-07T11:17:08Z</time>
      </trkpt>
      <trkpt lat="44.27679" lon="6.21042">
        <ele>1647.8371582</ele>
        <time>2012-08-07T11:17:27Z</time>
      </trkpt>
      <trkpt lat="44.27678" lon="6.2105">
        <ele>1650.2404785</ele>
        <time>2012-08-07T11:17:38Z</time>
      </trkpt>
      <trkpt lat="44.27673" lon="6.21059">
        <ele>1653.1242676</ele>
        <time>2012-08-07T11:17:57Z</time>
      </trkpt>
      <trkpt lat="44.27673" lon="6.2106">
        <ele>1652.6435547</ele>
        <time>2012-08-07T11:17:59Z</time>
      </trkpt>
      <trkpt lat="44.27665" lon="6.21058">
        <ele>1653.6049805</ele>
        <time>2012-08-07T11:18:11Z</time>
      </trkpt>
      <trkpt lat="44.27658" lon="6.21051">
        <ele>1656.0080566</ele>
        <time>2012-08-07T11:18:25Z</time>
      </trkpt>
      <trkpt lat="44.27651" lon="6.21051">
        <ele>1656.9694824</ele>
        <time>2012-08-07T11:18:37Z</time>
      </trkpt>
      <trkpt lat="44.27646" lon="6.21062">
        <ele>1658.411377</ele>
        <time>2012-08-07T11:18:52Z</time>
      </trkpt>
      <trkpt lat="44.27641" lon="6.21078">
        <ele>1659.8532715</ele>
        <time>2012-08-07T11:19:09Z</time>
      </trkpt>
      <trkpt lat="44.27639" lon="6.21091">
        <ele>1660.8149414</ele>
        <time>2012-08-07T11:19:22Z</time>
      </trkpt>
      <trkpt lat="44.27638" lon="6.21109">
        <ele>1661.2956543</ele>
        <time>2012-08-07T11:19:39Z</time>
      </trkpt>
      <trkpt lat="44.27638" lon="6.21125">
        <ele>1664.1794434</ele>
        <time>2012-08-07T11:19:54Z</time>
      </trkpt>
      <trkpt lat="44.27633" lon="6.2114">
        <ele>1666.1020508</ele>
        <time>2012-08-07T11:20:10Z</time>
      </trkpt>
      <trkpt lat="44.2763" lon="6.21141">
        <ele>1665.621582</ele>
        <time>2012-08-07T11:20:33Z</time>
      </trkpt>
      <trkpt lat="44.27622" lon="6.21132">
        <ele>1665.621582</ele>
        <time>2012-08-07T11:20:45Z</time>
      </trkpt>
      <trkpt lat="44.27607" lon="6.21122">
        <ele>1666.5827637</ele>
        <time>2012-08-07T11:21:02Z</time>
      </trkpt>
      <trkpt lat="44.27601" lon="6.21119">
        <ele>1666.1020508</ele>
        <time>2012-08-07T11:21:10Z</time>
      </trkpt>
      <trkpt lat="44.27595" lon="6.21115">
        <ele>1667.5439453</ele>
        <time>2012-08-07T11:21:20Z</time>
      </trkpt>
      <trkpt lat="44.27584" lon="6.2111">
        <ele>1667.5439453</ele>
        <time>2012-08-07T11:21:35Z</time>
      </trkpt>
      <trkpt lat="44.27581" lon="6.21109">
        <ele>1668.986084</ele>
        <time>2012-08-07T11:21:39Z</time>
      </trkpt>
      <trkpt lat="44.27571" lon="6.21105">
        <ele>1668.0246582</ele>
        <time>2012-08-07T11:21:56Z</time>
      </trkpt>
      <trkpt lat="44.27559" lon="6.21097">
        <ele>1670.4279785</ele>
        <time>2012-08-07T11:22:16Z</time>
      </trkpt>
      <trkpt lat="44.27555" lon="6.21094">
        <ele>1670.9086914</ele>
        <time>2012-08-07T11:22:23Z</time>
      </trkpt>
      <trkpt lat="44.2755" lon="6.21092">
        <ele>1672.8312988</ele>
        <time>2012-08-07T11:22:30Z</time>
      </trkpt>
      <trkpt lat="44.27541" lon="6.21088">
        <ele>1674.2731934</ele>
        <time>2012-08-07T11:22:49Z</time>
      </trkpt>
      <trkpt lat="44.27541" lon="6.21088">
        <ele>1676.1960449</ele>
        <time>2012-08-07T11:22:55Z</time>
      </trkpt>
      <trkpt lat="44.27541" lon="6.21088">
        <ele>1677.6379395</ele>
        <time>2012-08-07T11:23:00Z</time>
      </trkpt>
      <trkpt lat="44.27541" lon="6.21087">
        <ele>1675.234375</ele>
        <time>2012-08-07T11:23:13Z</time>
      </trkpt>
      <trkpt lat="44.27531" lon="6.21088">
        <ele>1677.1574707</ele>
        <time>2012-08-07T11:23:48Z</time>
      </trkpt>
      <trkpt lat="44.27516" lon="6.21089">
        <ele>1679.079834</ele>
        <time>2012-08-07T11:24:09Z</time>
      </trkpt>
      <trkpt lat="44.27511" lon="6.21089">
        <ele>1680.5219727</ele>
        <time>2012-08-07T11:24:16Z</time>
      </trkpt>
      <trkpt lat="44.27504" lon="6.21089">
        <ele>1682.4445801</ele>
        <time>2012-08-07T11:24:25Z</time>
      </trkpt>
      <trkpt lat="44.275" lon="6.21088">
        <ele>1682.9250488</ele>
        <time>2012-08-07T11:24:33Z</time>
      </trkpt>
      <trkpt lat="44.27493" lon="6.21087">
        <ele>1684.3671875</ele>
        <time>2012-08-07T11:24:44Z</time>
      </trkpt>
      <trkpt lat="44.27485" lon="6.21085">
        <ele>1686.2897949</ele>
        <time>2012-08-07T11:25:01Z</time>
      </trkpt>
      <trkpt lat="44.27477" lon="6.21084">
        <ele>1688.2124023</ele>
        <time>2012-08-07T11:25:17Z</time>
      </trkpt>
      <trkpt lat="44.27473" lon="6.21085">
        <ele>1689.173584</ele>
        <time>2012-08-07T11:25:23Z</time>
      </trkpt>
      <trkpt lat="44.27467" lon="6.21084">
        <ele>1688.2124023</ele>
        <time>2012-08-07T11:25:38Z</time>
      </trkpt>
      <trkpt lat="44.27466" lon="6.21084">
        <ele>1684.3671875</ele>
        <time>2012-08-07T11:25:41Z</time>
      </trkpt>
      <trkpt lat="44.27466" lon="6.21084">
        <ele>1684.3671875</ele>
        <time>2012-08-07T11:25:42Z</time>
      </trkpt>
      <trkpt lat="44.27466" lon="6.21084">
        <ele>1685.809082</ele>
        <time>2012-08-07T11:25:44Z</time>
      </trkpt>
      <trkpt lat="44.27465" lon="6.21085">
        <ele>1689.173584</ele>
        <time>2012-08-07T11:25:47Z</time>
      </trkpt>
      <trkpt lat="44.27463" lon="6.21085">
        <ele>1690.1350098</ele>
        <time>2012-08-07T11:25:49Z</time>
      </trkpt>
      <trkpt lat="44.27457" lon="6.21082">
        <ele>1692.0578613</ele>
        <time>2012-08-07T11:26:03Z</time>
      </trkpt>
      <trkpt lat="44.27457" lon="6.21082">
        <ele>1690.6154785</ele>
        <time>2012-08-07T11:26:16Z</time>
      </trkpt>
      <trkpt lat="44.27447" lon="6.21081">
        <ele>1692.5385742</ele>
        <time>2012-08-07T11:26:33Z</time>
      </trkpt>
      <trkpt lat="44.27438" lon="6.21073">
        <ele>1693.9804688</ele>
        <time>2012-08-07T11:26:51Z</time>
      </trkpt>
      <trkpt lat="44.27436" lon="6.21072">
        <ele>1692.5385742</ele>
        <time>2012-08-07T11:26:54Z</time>
      </trkpt>
      <trkpt lat="44.27426" lon="6.21069">
        <ele>1694.9416504</ele>
        <time>2012-08-07T11:27:14Z</time>
      </trkpt>
      <trkpt lat="44.27411" lon="6.21066">
        <ele>1696.8642578</ele>
        <time>2012-08-07T11:27:36Z</time>
      </trkpt>
      <trkpt lat="44.27408" lon="6.21061">
        <ele>1697.8256836</ele>
        <time>2012-08-07T11:27:42Z</time>
      </trkpt>
      <trkpt lat="44.27405" lon="6.2106">
        <ele>1699.2675781</ele>
        <time>2012-08-07T11:27:46Z</time>
      </trkpt>
      <trkpt lat="44.2739" lon="6.21056">
        <ele>1700.2290039</ele>
        <time>2012-08-07T11:28:06Z</time>
      </trkpt>
      <trkpt lat="44.27384" lon="6.21059">
        <ele>1700.7094727</ele>
        <time>2012-08-07T11:28:27Z</time>
      </trkpt>
      <trkpt lat="44.27383" lon="6.21058">
        <ele>1702.1513672</ele>
        <time>2012-08-07T11:29:10Z</time>
      </trkpt>
      <trkpt lat="44.27381" lon="6.21057">
        <ele>1701.1901855</ele>
        <time>2012-08-07T11:29:32Z</time>
      </trkpt>
      <trkpt lat="44.27379" lon="6.21057">
        <ele>1700.2290039</ele>
        <time>2012-08-07T11:30:01Z</time>
      </trkpt>
      <trkpt lat="44.27378" lon="6.21056">
        <ele>1698.7868652</ele>
        <time>2012-08-07T11:30:03Z</time>
      </trkpt>
      <trkpt lat="44.27376" lon="6.21049">
        <ele>1696.3837891</ele>
        <time>2012-08-07T11:30:17Z</time>
      </trkpt>
      <trkpt lat="44.27376" lon="6.21046">
        <ele>1698.3061523</ele>
        <time>2012-08-07T11:30:20Z</time>
      </trkpt>
      <trkpt lat="44.27376" lon="6.21042">
        <ele>1696.3837891</ele>
        <time>2012-08-07T11:30:24Z</time>
      </trkpt>
      <trkpt lat="44.27376" lon="6.21042">
        <ele>1693.4997559</ele>
        <time>2012-08-07T11:30:26Z</time>
      </trkpt>
      <trkpt lat="44.27375" lon="6.21042">
        <ele>1693.4997559</ele>
        <time>2012-08-07T11:30:27Z</time>
      </trkpt>
      <trkpt lat="44.27372" lon="6.21037">
        <ele>1692.5385742</ele>
        <time>2012-08-07T11:30:38Z</time>
      </trkpt>
      <trkpt lat="44.2737" lon="6.21036">
        <ele>1692.5385742</ele>
        <time>2012-08-07T11:30:55Z</time>
      </trkpt>
      <trkpt lat="44.27368" lon="6.21037">
        <ele>1691.5769043</ele>
        <time>2012-08-07T11:31:01Z</time>
      </trkpt>
      <trkpt lat="44.27355" lon="6.21038">
        <ele>1688.2124023</ele>
        <time>2012-08-07T11:31:10Z</time>
      </trkpt>
      <trkpt lat="44.27354" lon="6.21038">
        <ele>1688.2124023</ele>
        <time>2012-08-07T11:31:11Z</time>
      </trkpt>
      <trkpt lat="44.27339" lon="6.21042">
        <ele>1684.8479004</ele>
        <time>2012-08-07T11:31:18Z</time>
      </trkpt>
      <trkpt lat="44.27333" lon="6.21044">
        <ele>1683.8864746</ele>
        <time>2012-08-07T11:31:20Z</time>
      </trkpt>
      <trkpt lat="44.27317" lon="6.21045">
        <ele>1684.8479004</ele>
        <time>2012-08-07T11:31:27Z</time>
      </trkpt>
      <trkpt lat="44.27315" lon="6.21045">
        <ele>1683.4057617</ele>
        <time>2012-08-07T11:31:29Z</time>
      </trkpt>
      <trkpt lat="44.27306" lon="6.21047">
        <ele>1683.8864746</ele>
        <time>2012-08-07T11:31:42Z</time>
      </trkpt>
      <trkpt lat="44.27305" lon="6.21047">
        <ele>1682.4445801</ele>
        <time>2012-08-07T11:31:44Z</time>
      </trkpt>
      <trkpt lat="44.27299" lon="6.21043">
        <ele>1681.0026855</ele>
        <time>2012-08-07T11:31:48Z</time>
      </trkpt>
      <trkpt lat="44.27297" lon="6.21042">
        <ele>1679.5605469</ele>
        <time>2012-08-07T11:31:50Z</time>
      </trkpt>
      <trkpt lat="44.27285" lon="6.21041">
        <ele>1678.1186523</ele>
        <time>2012-08-07T11:31:57Z</time>
      </trkpt>
      <trkpt lat="44.27279" lon="6.21055">
        <ele>1676.1960449</ele>
        <time>2012-08-07T11:32:07Z</time>
      </trkpt>
      <trkpt lat="44.27279" lon="6.21057">
        <ele>1676.1960449</ele>
        <time>2012-08-07T11:32:08Z</time>
      </trkpt>
      <trkpt lat="44.27279" lon="6.2106">
        <ele>1676.1960449</ele>
        <time>2012-08-07T11:32:11Z</time>
      </trkpt>
      <trkpt lat="44.27277" lon="6.21078">
        <ele>1679.5605469</ele>
        <time>2012-08-07T11:32:28Z</time>
      </trkpt>
      <trkpt lat="44.27279" lon="6.21082">
        <ele>1679.5605469</ele>
        <time>2012-08-07T11:32:44Z</time>
      </trkpt>
      <trkpt lat="44.27277" lon="6.21083">
        <ele>1678.5993652</ele>
        <time>2012-08-07T11:32:59Z</time>
      </trkpt>
      <trkpt lat="44.27277" lon="6.21085">
        <ele>1678.5993652</ele>
        <time>2012-08-07T11:33:14Z</time>
      </trkpt>
      <trkpt lat="44.27279" lon="6.21086">
        <ele>1679.5605469</ele>
        <time>2012-08-07T11:35:30Z</time>
      </trkpt>
      <trkpt lat="44.27279" lon="6.21086">
        <ele>1679.079834</ele>
        <time>2012-08-07T11:39:05Z</time>
      </trkpt>
      <trkpt lat="44.27279" lon="6.21086">
        <ele>1681.9638672</ele>
        <time>2012-08-07T11:39:22Z</time>
      </trkpt>
      <trkpt lat="44.27278" lon="6.21086">
        <ele>1681.4831543</ele>
        <time>2012-08-07T11:39:56Z</time>
      </trkpt>
      <trkpt lat="44.27278" lon="6.21086">
        <ele>1683.4057617</ele>
        <time>2012-08-07T11:40:03Z</time>
      </trkpt>
      <trkpt lat="44.27278" lon="6.21086">
        <ele>1684.8479004</ele>
        <time>2012-08-07T11:40:08Z</time>
      </trkpt>
      <trkpt lat="44.27278" lon="6.21086">
        <ele>1681.4831543</ele>
        <time>2012-08-07T11:40:09Z</time>
      </trkpt>
      <trkpt lat="44.27278" lon="6.21086">
        <ele>1681.4831543</ele>
        <time>2012-08-07T11:40:10Z</time>
      </trkpt>
      <trkpt lat="44.27278" lon="6.21086">
        <ele>1679.5605469</ele>
        <time>2012-08-07T11:40:12Z</time>
      </trkpt>
      <trkpt lat="44.27278" lon="6.21086">
        <ele>1683.4057617</ele>
        <time>2012-08-07T11:40:14Z</time>
      </trkpt>
      <trkpt lat="44.27278" lon="6.21086">
        <ele>1683.4057617</ele>
        <time>2012-08-07T11:40:15Z</time>
      </trkpt>
      <trkpt lat="44.27278" lon="6.21086">
        <ele>1681.4831543</ele>
        <time>2012-08-07T11:40:17Z</time>
      </trkpt>
      <trkpt lat="44.27278" lon="6.21086">
        <ele>1680.5219727</ele>
        <time>2012-08-07T11:40:19Z</time>
      </trkpt>
      <trkpt lat="44.27278" lon="6.21086">
        <ele>1680.0412598</ele>
        <time>2012-08-07T11:40:24Z</time>
      </trkpt>
      <trkpt lat="44.27278" lon="6.21086">
        <ele>1681.9638672</ele>
        <time>2012-08-07T11:41:20Z</time>
      </trkpt>
      <trkpt lat="44.27278" lon="6.21086">
        <ele>1682.4445801</ele>
        <time>2012-08-07T11:41:29Z</time>
      </trkpt>
      <trkpt lat="44.27281" lon="6.21085">
        <ele>1685.3283691</ele>
        <time>2012-08-07T11:51:04Z</time>
      </trkpt>
      <trkpt lat="44.2728" lon="6.21084">
        <ele>1686.2897949</ele>
        <time>2012-08-07T11:54:50Z</time>
      </trkpt>
      <trkpt lat="44.27281" lon="6.21083">
        <ele>1685.809082</ele>
        <time>2012-08-07T11:55:04Z</time>
      </trkpt>
      <trkpt lat="44.27281" lon="6.21083">
        <ele>1687.2509766</ele>
        <time>2012-08-07T11:55:06Z</time>
      </trkpt>
      <trkpt lat="44.27281" lon="6.21083">
        <ele>1684.3671875</ele>
        <time>2012-08-07T11:55:08Z</time>
      </trkpt>
      <trkpt lat="44.27281" lon="6.21083">
        <ele>1684.8479004</ele>
        <time>2012-08-07T11:55:18Z</time>
      </trkpt>
      <trkpt lat="44.27281" lon="6.21081">
        <ele>1688.6931152</ele>
        <time>2012-08-07T11:55:38Z</time>
      </trkpt>
      <trkpt lat="44.2728" lon="6.2108">
        <ele>1688.6931152</ele>
        <time>2012-08-07T11:55:39Z</time>
      </trkpt>
      <trkpt lat="44.27282" lon="6.21081">
        <ele>1688.6931152</ele>
        <time>2012-08-07T11:55:51Z</time>
      </trkpt>
      <trkpt lat="44.27278" lon="6.21074">
        <ele>1686.2897949</ele>
        <time>2012-08-07T11:56:08Z</time>
      </trkpt>
      <trkpt lat="44.27278" lon="6.21055">
        <ele>1684.8479004</ele>
        <time>2012-08-07T11:56:27Z</time>
      </trkpt>
      <trkpt lat="44.27278" lon="6.21037">
        <ele>1684.3671875</ele>
        <time>2012-08-07T11:56:43Z</time>
      </trkpt>
      <trkpt lat="44.27275" lon="6.21015">
        <ele>1684.8479004</ele>
        <time>2012-08-07T11:57:04Z</time>
      </trkpt>
      <trkpt lat="44.27272" lon="6.2099">
        <ele>1683.4057617</ele>
        <time>2012-08-07T11:57:27Z</time>
      </trkpt>
      <trkpt lat="44.27271" lon="6.20972">
        <ele>1682.9250488</ele>
        <time>2012-08-07T11:57:44Z</time>
      </trkpt>
      <trkpt lat="44.27272" lon="6.20963">
        <ele>1681.4831543</ele>
        <time>2012-08-07T11:57:58Z</time>
      </trkpt>
      <trkpt lat="44.27274" lon="6.20957">
        <ele>1680.0412598</ele>
        <time>2012-08-07T11:58:02Z</time>
      </trkpt>
      <trkpt lat="44.27276" lon="6.20953">
        <ele>1680.0412598</ele>
        <time>2012-08-07T11:58:04Z</time>
      </trkpt>
      <trkpt lat="44.27278" lon="6.20938">
        <ele>1676.6767578</ele>
        <time>2012-08-07T11:58:18Z</time>
      </trkpt>
      <trkpt lat="44.27278" lon="6.20932">
        <ele>1675.234375</ele>
        <time>2012-08-07T11:58:21Z</time>
      </trkpt>
      <trkpt lat="44.27278" lon="6.20928">
        <ele>1674.2731934</ele>
        <time>2012-08-07T11:58:23Z</time>
      </trkpt>
      <trkpt lat="44.27279" lon="6.20909">
        <ele>1670.9086914</ele>
        <time>2012-08-07T11:58:34Z</time>
      </trkpt>
      <trkpt lat="44.27282" lon="6.20883">
        <ele>1667.5439453</ele>
        <time>2012-08-07T11:58:45Z</time>
      </trkpt>
      <trkpt lat="44.27283" lon="6.20875">
        <ele>1666.5827637</ele>
        <time>2012-08-07T11:58:49Z</time>
      </trkpt>
      <trkpt lat="44.27284" lon="6.20867">
        <ele>1666.1020508</ele>
        <time>2012-08-07T11:58:54Z</time>
      </trkpt>
      <trkpt lat="44.27286" lon="6.20847">
        <ele>1664.1794434</ele>
        <time>2012-08-07T11:59:05Z</time>
      </trkpt>
      <trkpt lat="44.27284" lon="6.20838">
        <ele>1663.2182617</ele>
        <time>2012-08-07T11:59:15Z</time>
      </trkpt>
      <trkpt lat="44.27304" lon="6.20822">
        <ele>1659.8532715</ele>
        <time>2012-08-07T11:59:27Z</time>
      </trkpt>
      <trkpt lat="44.27311" lon="6.20823">
        <ele>1659.3728027</ele>
        <time>2012-08-07T11:59:31Z</time>
      </trkpt>
      <trkpt lat="44.27329" lon="6.20809">
        <ele>1655.5275879</ele>
        <time>2012-08-07T11:59:41Z</time>
      </trkpt>
      <trkpt lat="44.27337" lon="6.20806">
        <ele>1654.0856934</ele>
        <time>2012-08-07T11:59:54Z</time>
      </trkpt>
      <trkpt lat="44.27337" lon="6.20805">
        <ele>1654.0856934</ele>
        <time>2012-08-07T12:00:12Z</time>
      </trkpt>
      <trkpt lat="44.27351" lon="6.20808">
        <ele>1652.6435547</ele>
        <time>2012-08-07T12:00:23Z</time>
      </trkpt>
      <trkpt lat="44.27353" lon="6.20805">
        <ele>1650.2404785</ele>
        <time>2012-08-07T12:00:26Z</time>
      </trkpt>
      <trkpt lat="44.27355" lon="6.20799">
        <ele>1647.8371582</ele>
        <time>2012-08-07T12:00:37Z</time>
      </trkpt>
      <trkpt lat="44.27353" lon="6.20795">
        <ele>1648.317627</ele>
        <time>2012-08-07T12:00:48Z</time>
      </trkpt>
      <trkpt lat="44.27371" lon="6.20787">
        <ele>1644.4724121</ele>
        <time>2012-08-07T12:00:57Z</time>
      </trkpt>
      <trkpt lat="44.2738" lon="6.20783">
        <ele>1643.0302734</ele>
        <time>2012-08-07T12:01:01Z</time>
      </trkpt>
      <trkpt lat="44.27382" lon="6.2078">
        <ele>1642.0690918</ele>
        <time>2012-08-07T12:01:03Z</time>
      </trkpt>
      <trkpt lat="44.2739" lon="6.20769">
        <ele>1638.7045898</ele>
        <time>2012-08-07T12:01:09Z</time>
      </trkpt>
      <trkpt lat="44.27392" lon="6.20766">
        <ele>1638.7045898</ele>
        <time>2012-08-07T12:01:10Z</time>
      </trkpt>
      <trkpt lat="44.27402" lon="6.20757">
        <ele>1635.8205566</ele>
        <time>2012-08-07T12:01:15Z</time>
      </trkpt>
      <trkpt lat="44.27421" lon="6.20744">
        <ele>1632.4560547</ele>
        <time>2012-08-07T12:01:22Z</time>
      </trkpt>
      <trkpt lat="44.27426" lon="6.20739">
        <ele>1631.4946289</ele>
        <time>2012-08-07T12:01:24Z</time>
      </trkpt>
      <trkpt lat="44.27434" lon="6.20732">
        <ele>1631.0141602</ele>
        <time>2012-08-07T12:01:28Z</time>
      </trkpt>
      <trkpt lat="44.27438" lon="6.20723">
        <ele>1629.5720215</ele>
        <time>2012-08-07T12:01:33Z</time>
      </trkpt>
      <trkpt lat="44.27445" lon="6.20714">
        <ele>1627.1687012</ele>
        <time>2012-08-07T12:01:40Z</time>
      </trkpt>
      <trkpt lat="44.2745" lon="6.20706">
        <ele>1625.7265625</ele>
        <time>2012-08-07T12:01:44Z</time>
      </trkpt>
      <trkpt lat="44.27453" lon="6.20696">
        <ele>1623.8039551</ele>
        <time>2012-08-07T12:01:47Z</time>
      </trkpt>
      <trkpt lat="44.2745" lon="6.20691">
        <ele>1623.3234863</ele>
        <time>2012-08-07T12:01:57Z</time>
      </trkpt>
      <trkpt lat="44.27452" lon="6.20687">
        <ele>1622.3620605</ele>
        <time>2012-08-07T12:02:11Z</time>
      </trkpt>
      <trkpt lat="44.27453" lon="6.20683">
        <ele>1622.8427734</ele>
        <time>2012-08-07T12:02:17Z</time>
      </trkpt>
      <trkpt lat="44.27456" lon="6.20679">
        <ele>1623.3234863</ele>
        <time>2012-08-07T12:02:21Z</time>
      </trkpt>
      <trkpt lat="44.27456" lon="6.20677">
        <ele>1624.284668</ele>
        <time>2012-08-07T12:02:32Z</time>
      </trkpt>
      <trkpt lat="44.27484" lon="6.20666">
        <ele>1622.8427734</ele>
        <time>2012-08-07T12:02:50Z</time>
      </trkpt>
      <trkpt lat="44.27499" lon="6.20655">
        <ele>1621.4006348</ele>
        <time>2012-08-07T12:02:56Z</time>
      </trkpt>
      <trkpt lat="44.27511" lon="6.20638">
        <ele>1618.5168457</ele>
        <time>2012-08-07T12:03:08Z</time>
      </trkpt>
      <trkpt lat="44.27512" lon="6.20634">
        <ele>1618.5168457</ele>
        <time>2012-08-07T12:03:13Z</time>
      </trkpt>
      <trkpt lat="44.27515" lon="6.2063">
        <ele>1618.0361328</ele>
        <time>2012-08-07T12:03:18Z</time>
      </trkpt>
      <trkpt lat="44.27519" lon="6.20629">
        <ele>1618.5168457</ele>
        <time>2012-08-07T12:03:22Z</time>
      </trkpt>
      <trkpt lat="44.27528" lon="6.20624">
        <ele>1618.5168457</ele>
        <time>2012-08-07T12:03:32Z</time>
      </trkpt>
      <trkpt lat="44.27543" lon="6.20609">
        <ele>1617.5554199</ele>
        <time>2012-08-07T12:03:50Z</time>
      </trkpt>
      <trkpt lat="44.27545" lon="6.20606">
        <ele>1618.0361328</ele>
        <time>2012-08-07T12:04:04Z</time>
      </trkpt>
      <trkpt lat="44.27545" lon="6.20606">
        <ele>1618.0361328</ele>
        <time>2012-08-07T12:04:08Z</time>
      </trkpt>
      <trkpt lat="44.27565" lon="6.20569">
        <ele>1615.6330566</ele>
        <time>2012-08-07T12:04:21Z</time>
      </trkpt>
      <trkpt lat="44.2758" lon="6.20534">
        <ele>1612.2683105</ele>
        <time>2012-08-07T12:04:32Z</time>
      </trkpt>
      <trkpt lat="44.27598" lon="6.20504">
        <ele>1610.345459</ele>
        <time>2012-08-07T12:04:43Z</time>
      </trkpt>
      <trkpt lat="44.276" lon="6.20486">
        <ele>1607.4616699</ele>
        <time>2012-08-07T12:04:49Z</time>
      </trkpt>
      <trkpt lat="44.27606" lon="6.20474">
        <ele>1607.4616699</ele>
        <time>2012-08-07T12:04:53Z</time>
      </trkpt>
      <trkpt lat="44.27612" lon="6.20467">
        <ele>1606.980957</ele>
        <time>2012-08-07T12:04:56Z</time>
      </trkpt>
      <trkpt lat="44.27613" lon="6.20457">
        <ele>1607.9423828</ele>
        <time>2012-08-07T12:05:08Z</time>
      </trkpt>
      <trkpt lat="44.27621" lon="6.20438">
        <ele>1606.5002441</ele>
        <time>2012-08-07T12:05:27Z</time>
      </trkpt>
      <trkpt lat="44.27628" lon="6.20428">
        <ele>1606.980957</ele>
        <time>2012-08-07T12:05:50Z</time>
      </trkpt>
      <trkpt lat="44.27627" lon="6.20428">
        <ele>1606.5002441</ele>
        <time>2012-08-07T12:06:18Z</time>
      </trkpt>
      <trkpt lat="44.2765" lon="6.20404">
        <ele>1604.097168</ele>
        <time>2012-08-07T12:06:30Z</time>
      </trkpt>
      <trkpt lat="44.27666" lon="6.20376">
        <ele>1601.2131348</ele>
        <time>2012-08-07T12:06:40Z</time>
      </trkpt>
      <trkpt lat="44.27698" lon="6.20327">
        <ele>1599.7712402</ele>
        <time>2012-08-07T12:06:54Z</time>
      </trkpt>
      <trkpt lat="44.27708" lon="6.20316">
        <ele>1598.8098145</ele>
        <time>2012-08-07T12:06:59Z</time>
      </trkpt>
      <trkpt lat="44.27724" lon="6.20274">
        <ele>1595.9257813</ele>
        <time>2012-08-07T12:07:12Z</time>
      </trkpt>
      <trkpt lat="44.27737" lon="6.20226">
        <ele>1594.4836426</ele>
        <time>2012-08-07T12:07:27Z</time>
      </trkpt>
      <trkpt lat="44.27737" lon="6.20184">
        <ele>1592.0805664</ele>
        <time>2012-08-07T12:07:38Z</time>
      </trkpt>
      <trkpt lat="44.27754" lon="6.20142">
        <ele>1591.1191406</ele>
        <time>2012-08-07T12:07:51Z</time>
      </trkpt>
      <trkpt lat="44.27766" lon="6.20112">
        <ele>1591.5998535</ele>
        <time>2012-08-07T12:08:04Z</time>
      </trkpt>
      <trkpt lat="44.27773" lon="6.2007">
        <ele>1590.6384277</ele>
        <time>2012-08-07T12:08:21Z</time>
      </trkpt>
      <trkpt lat="44.27768" lon="6.20056">
        <ele>1589.6772461</ele>
        <time>2012-08-07T12:08:32Z</time>
      </trkpt>
      <trkpt lat="44.2776" lon="6.20046">
        <ele>1588.2353516</ele>
        <time>2012-08-07T12:08:48Z</time>
      </trkpt>
      <trkpt lat="44.27747" lon="6.20022">
        <ele>1587.2739258</ele>
        <time>2012-08-07T12:09:00Z</time>
      </trkpt>
      <trkpt lat="44.27748" lon="6.19974">
        <ele>1586.7932129</ele>
        <time>2012-08-07T12:09:19Z</time>
      </trkpt>
      <trkpt lat="44.27743" lon="6.19954">
        <ele>1586.7932129</ele>
        <time>2012-08-07T12:09:29Z</time>
      </trkpt>
      <trkpt lat="44.27741" lon="6.19942">
        <ele>1585.8320313</ele>
        <time>2012-08-07T12:09:41Z</time>
      </trkpt>
      <trkpt lat="44.27748" lon="6.19939">
        <ele>1585.8320313</ele>
        <time>2012-08-07T12:09:49Z</time>
      </trkpt>
      <trkpt lat="44.27754" lon="6.19939">
        <ele>1586.7932129</ele>
        <time>2012-08-07T12:09:56Z</time>
      </trkpt>
      <trkpt lat="44.27761" lon="6.19941">
        <ele>1586.7932129</ele>
        <time>2012-08-07T12:10:02Z</time>
      </trkpt>
      <trkpt lat="44.27775" lon="6.19939">
        <ele>1587.7546387</ele>
        <time>2012-08-07T12:10:15Z</time>
      </trkpt>
      <trkpt lat="44.27784" lon="6.19935">
        <ele>1588.7160645</ele>
        <time>2012-08-07T12:10:26Z</time>
      </trkpt>
      <trkpt lat="44.27794" lon="6.19935">
        <ele>1589.6772461</ele>
        <time>2012-08-07T12:10:42Z</time>
      </trkpt>
      <trkpt lat="44.27799" lon="6.19942">
        <ele>1590.157959</ele>
        <time>2012-08-07T12:11:09Z</time>
      </trkpt>
      <trkpt lat="44.27811" lon="6.19926">
        <ele>1591.5998535</ele>
        <time>2012-08-07T12:11:29Z</time>
      </trkpt>
      <trkpt lat="44.27815" lon="6.19906">
        <ele>1593.041748</ele>
        <time>2012-08-07T12:11:44Z</time>
      </trkpt>
      <trkpt lat="44.27824" lon="6.19898">
        <ele>1593.041748</ele>
        <time>2012-08-07T12:11:54Z</time>
      </trkpt>
      <trkpt lat="44.27829" lon="6.19894">
        <ele>1592.5612793</ele>
        <time>2012-08-07T12:11:57Z</time>
      </trkpt>
      <trkpt lat="44.27841" lon="6.19873">
        <ele>1593.5224609</ele>
        <time>2012-08-07T12:12:08Z</time>
      </trkpt>
      <trkpt lat="44.27842" lon="6.19856">
        <ele>1594.0031738</ele>
        <time>2012-08-07T12:12:15Z</time>
      </trkpt>
      <trkpt lat="44.27848" lon="6.1985">
        <ele>1594.9643555</ele>
        <time>2012-08-07T12:12:19Z</time>
      </trkpt>
      <trkpt lat="44.27858" lon="6.19837">
        <ele>1595.4450684</ele>
        <time>2012-08-07T12:12:26Z</time>
      </trkpt>
      <trkpt lat="44.27863" lon="6.19826">
        <ele>1596.4067383</ele>
        <time>2012-08-07T12:12:31Z</time>
      </trkpt>
      <trkpt lat="44.27879" lon="6.19792">
        <ele>1596.4067383</ele>
        <time>2012-08-07T12:12:49Z</time>
      </trkpt>
      <trkpt lat="44.27874" lon="6.19758">
        <ele>1594.0031738</ele>
        <time>2012-08-07T12:13:04Z</time>
      </trkpt>
      <trkpt lat="44.27872" lon="6.19752">
        <ele>1594.0031738</ele>
        <time>2012-08-07T12:13:08Z</time>
      </trkpt>
      <trkpt lat="44.27864" lon="6.19739">
        <ele>1594.4836426</ele>
        <time>2012-08-07T12:13:20Z</time>
      </trkpt>
      <trkpt lat="44.2786" lon="6.19733">
        <ele>1593.041748</ele>
        <time>2012-08-07T12:13:31Z</time>
      </trkpt>
      <trkpt lat="44.27854" lon="6.19736">
        <ele>1592.5612793</ele>
        <time>2012-08-07T12:13:47Z</time>
      </trkpt>
      <trkpt lat="44.27863" lon="6.19733">
        <ele>1592.5612793</ele>
        <time>2012-08-07T12:14:02Z</time>
      </trkpt>
      <trkpt lat="44.27864" lon="6.19742">
        <ele>1593.5224609</ele>
        <time>2012-08-07T12:14:19Z</time>
      </trkpt>
      <trkpt lat="44.27864" lon="6.19742">
        <ele>1593.041748</ele>
        <time>2012-08-07T12:14:26Z</time>
      </trkpt>
      <trkpt lat="44.2785" lon="6.19724">
        <ele>1591.1191406</ele>
        <time>2012-08-07T12:14:32Z</time>
      </trkpt>
      <trkpt lat="44.27845" lon="6.19721">
        <ele>1590.157959</ele>
        <time>2012-08-07T12:14:34Z</time>
      </trkpt>
      <trkpt lat="44.2783" lon="6.19705">
        <ele>1590.6384277</ele>
        <time>2012-08-07T12:14:47Z</time>
      </trkpt>
      <trkpt lat="44.27823" lon="6.19686">
        <ele>1591.1191406</ele>
        <time>2012-08-07T12:15:03Z</time>
      </trkpt>
      <trkpt lat="44.27825" lon="6.19663">
        <ele>1592.0805664</ele>
        <time>2012-08-07T12:15:21Z</time>
      </trkpt>
      <trkpt lat="44.27836" lon="6.19643">
        <ele>1591.5998535</ele>
        <time>2012-08-07T12:15:39Z</time>
      </trkpt>
      <trkpt lat="44.27842" lon="6.19621">
        <ele>1593.5224609</ele>
        <time>2012-08-07T12:16:00Z</time>
      </trkpt>
      <trkpt lat="44.27849" lon="6.19598">
        <ele>1594.9643555</ele>
        <time>2012-08-07T12:16:20Z</time>
      </trkpt>
      <trkpt lat="44.27863" lon="6.19567">
        <ele>1596.4067383</ele>
        <time>2012-08-07T12:16:46Z</time>
      </trkpt>
      <trkpt lat="44.27873" lon="6.19534">
        <ele>1597.8486328</ele>
        <time>2012-08-07T12:17:10Z</time>
      </trkpt>
      <trkpt lat="44.2788" lon="6.1952">
        <ele>1598.3291016</ele>
        <time>2012-08-07T12:17:28Z</time>
      </trkpt>
      <trkpt lat="44.2788" lon="6.1952">
        <ele>1598.3291016</ele>
        <time>2012-08-07T12:17:34Z</time>
      </trkpt>
      <trkpt lat="44.27882" lon="6.1949">
        <ele>1598.3291016</ele>
        <time>2012-08-07T12:17:49Z</time>
      </trkpt>
      <trkpt lat="44.27884" lon="6.19481">
        <ele>1598.3291016</ele>
        <time>2012-08-07T12:17:58Z</time>
      </trkpt>
      <trkpt lat="44.27891" lon="6.19473">
        <ele>1597.3679199</ele>
        <time>2012-08-07T12:18:03Z</time>
      </trkpt>
      <trkpt lat="44.27892" lon="6.19466">
        <ele>1597.3679199</ele>
        <time>2012-08-07T12:18:08Z</time>
      </trkpt>
      <trkpt lat="44.27894" lon="6.19454">
        <ele>1596.887207</ele>
        <time>2012-08-07T12:18:16Z</time>
      </trkpt>
      <trkpt lat="44.27901" lon="6.19444">
        <ele>1595.9257813</ele>
        <time>2012-08-07T12:18:21Z</time>
      </trkpt>
      <trkpt lat="44.27902" lon="6.19439">
        <ele>1595.9257813</ele>
        <time>2012-08-07T12:18:23Z</time>
      </trkpt>
      <trkpt lat="44.27916" lon="6.19418">
        <ele>1595.9257813</ele>
        <time>2012-08-07T12:18:37Z</time>
      </trkpt>
      <trkpt lat="44.27918" lon="6.1941">
        <ele>1595.9257813</ele>
        <time>2012-08-07T12:18:41Z</time>
      </trkpt>
      <trkpt lat="44.27932" lon="6.1939">
        <ele>1595.9257813</ele>
        <time>2012-08-07T12:18:53Z</time>
      </trkpt>
      <trkpt lat="44.27946" lon="6.1938">
        <ele>1595.9257813</ele>
        <time>2012-08-07T12:19:03Z</time>
      </trkpt>
      <trkpt lat="44.27953" lon="6.19378">
        <ele>1595.9257813</ele>
        <time>2012-08-07T12:19:11Z</time>
      </trkpt>
      <trkpt lat="44.27961" lon="6.19373">
        <ele>1596.4067383</ele>
        <time>2012-08-07T12:19:18Z</time>
      </trkpt>
      <trkpt lat="44.27967" lon="6.19366">
        <ele>1595.9257813</ele>
        <time>2012-08-07T12:19:22Z</time>
      </trkpt>
      <trkpt lat="44.27975" lon="6.19349">
        <ele>1594.9643555</ele>
        <time>2012-08-07T12:19:32Z</time>
      </trkpt>
      <trkpt lat="44.27978" lon="6.19341">
        <ele>1594.0031738</ele>
        <time>2012-08-07T12:19:39Z</time>
      </trkpt>
      <trkpt lat="44.27981" lon="6.19325">
        <ele>1591.1191406</ele>
        <time>2012-08-07T12:19:48Z</time>
      </trkpt>
      <trkpt lat="44.27997" lon="6.19222">
        <ele>1587.7546387</ele>
        <time>2012-08-07T12:20:00Z</time>
      </trkpt>
      <trkpt lat="44.28034" lon="6.19125">
        <ele>1587.2739258</ele>
        <time>2012-08-07T12:20:12Z</time>
      </trkpt>
      <trkpt lat="44.2804" lon="6.19103">
        <ele>1588.2353516</ele>
        <time>2012-08-07T12:20:19Z</time>
      </trkpt>
      <trkpt lat="44.28056" lon="6.19063">
        <ele>1589.6772461</ele>
        <time>2012-08-07T12:20:34Z</time>
      </trkpt>
      <trkpt lat="44.28072" lon="6.19027">
        <ele>1589.1965332</ele>
        <time>2012-08-07T12:20:49Z</time>
      </trkpt>
      <trkpt lat="44.28074" lon="6.18996">
        <ele>1587.2739258</ele>
        <time>2012-08-07T12:20:58Z</time>
      </trkpt>
      <trkpt lat="44.28075" lon="6.18991">
        <ele>1589.6772461</ele>
        <time>2012-08-07T12:21:00Z</time>
      </trkpt>
      <trkpt lat="44.28076" lon="6.18987">
        <ele>1588.2353516</ele>
        <time>2012-08-07T12:21:02Z</time>
      </trkpt>
      <trkpt lat="44.28073" lon="6.18978">
        <ele>1588.2353516</ele>
        <time>2012-08-07T12:21:04Z</time>
      </trkpt>
      <trkpt lat="44.28069" lon="6.18937">
        <ele>1586.3127441</ele>
        <time>2012-08-07T12:21:18Z</time>
      </trkpt>
      <trkpt lat="44.28071" lon="6.18905">
        <ele>1583.4287109</ele>
        <time>2012-08-07T12:21:27Z</time>
      </trkpt>
      <trkpt lat="44.2807" lon="6.18901">
        <ele>1583.4287109</ele>
        <time>2012-08-07T12:21:28Z</time>
      </trkpt>
      <trkpt lat="44.28069" lon="6.18861">
        <ele>1584.3901367</ele>
        <time>2012-08-07T12:21:39Z</time>
      </trkpt>
      <trkpt lat="44.28068" lon="6.18827">
        <ele>1586.3127441</ele>
        <time>2012-08-07T12:22:00Z</time>
      </trkpt>
      <trkpt lat="44.28069" lon="6.18824">
        <ele>1586.7932129</ele>
        <time>2012-08-07T12:22:20Z</time>
      </trkpt>
      <trkpt lat="44.28097" lon="6.18779">
        <ele>1584.3901367</ele>
        <time>2012-08-07T12:22:37Z</time>
      </trkpt>
      <trkpt lat="44.28102" lon="6.18761">
        <ele>1583.4287109</ele>
        <time>2012-08-07T12:22:44Z</time>
      </trkpt>
      <trkpt lat="44.28107" lon="6.18751">
        <ele>1583.9094238</ele>
        <time>2012-08-07T12:22:48Z</time>
      </trkpt>
      <trkpt lat="44.28113" lon="6.18742">
        <ele>1581.9868164</ele>
        <time>2012-08-07T12:22:51Z</time>
      </trkpt>
      <trkpt lat="44.28125" lon="6.18733">
        <ele>1581.9868164</ele>
        <time>2012-08-07T12:22:57Z</time>
      </trkpt>
      <trkpt lat="44.28133" lon="6.18738">
        <ele>1581.0256348</ele>
        <time>2012-08-07T12:23:01Z</time>
      </trkpt>
      <trkpt lat="44.28143" lon="6.18743">
        <ele>1581.0256348</ele>
        <time>2012-08-07T12:23:04Z</time>
      </trkpt>
      <trkpt lat="44.28148" lon="6.18754">
        <ele>1579.583252</ele>
        <time>2012-08-07T12:23:10Z</time>
      </trkpt>
      <trkpt lat="44.28156" lon="6.18751">
        <ele>1579.1025391</ele>
        <time>2012-08-07T12:23:16Z</time>
      </trkpt>
      <trkpt lat="44.28163" lon="6.18704">
        <ele>1575.7380371</ele>
        <time>2012-08-07T12:23:33Z</time>
      </trkpt>
      <trkpt lat="44.28166" lon="6.18694">
        <ele>1575.7380371</ele>
        <time>2012-08-07T12:23:36Z</time>
      </trkpt>
      <trkpt lat="44.28159" lon="6.18686">
        <ele>1574.7768555</ele>
        <time>2012-08-07T12:23:41Z</time>
      </trkpt>
      <trkpt lat="44.28147" lon="6.18687">
        <ele>1573.3349609</ele>
        <time>2012-08-07T12:23:51Z</time>
      </trkpt>
      <trkpt lat="44.2811" lon="6.18687">
        <ele>1570.4509277</ele>
        <time>2012-08-07T12:24:04Z</time>
      </trkpt>
      <trkpt lat="44.28086" lon="6.18684">
        <ele>1569.4897461</ele>
        <time>2012-08-07T12:24:12Z</time>
      </trkpt>
      <trkpt lat="44.28069" lon="6.18663">
        <ele>1568.5283203</ele>
        <time>2012-08-07T12:24:17Z</time>
      </trkpt>
      <trkpt lat="44.28011" lon="6.18658">
        <ele>1568.5283203</ele>
        <time>2012-08-07T12:24:31Z</time>
      </trkpt>
      <trkpt lat="44.27972" lon="6.18658">
        <ele>1567.0864258</ele>
        <time>2012-08-07T12:24:43Z</time>
      </trkpt>
      <trkpt lat="44.27969" lon="6.18655">
        <ele>1567.0864258</ele>
        <time>2012-08-07T12:24:48Z</time>
      </trkpt>
      <trkpt lat="44.27967" lon="6.18644">
        <ele>1567.5668945</ele>
        <time>2012-08-07T12:24:53Z</time>
      </trkpt>
      <trkpt lat="44.28001" lon="6.18595">
        <ele>1569.4897461</ele>
        <time>2012-08-07T12:25:10Z</time>
      </trkpt>
      <trkpt lat="44.28022" lon="6.18561">
        <ele>1570.9316406</ele>
        <time>2012-08-07T12:25:24Z</time>
      </trkpt>
      <trkpt lat="44.28035" lon="6.18535">
        <ele>1571.8928223</ele>
        <time>2012-08-07T12:25:37Z</time>
      </trkpt>
      <trkpt lat="44.28051" lon="6.18504">
        <ele>1573.3349609</ele>
        <time>2012-08-07T12:25:48Z</time>
      </trkpt>
      <trkpt lat="44.28058" lon="6.18491">
        <ele>1571.8928223</ele>
        <time>2012-08-07T12:25:52Z</time>
      </trkpt>
      <trkpt lat="44.28072" lon="6.1845">
        <ele>1570.4509277</ele>
        <time>2012-08-07T12:26:02Z</time>
      </trkpt>
      <trkpt lat="44.28074" lon="6.18444">
        <ele>1571.4121094</ele>
        <time>2012-08-07T12:26:05Z</time>
      </trkpt>
      <trkpt lat="44.28076" lon="6.18401">
        <ele>1567.5668945</ele>
        <time>2012-08-07T12:26:15Z</time>
      </trkpt>
      <trkpt lat="44.28079" lon="6.18391">
        <ele>1569.0090332</ele>
        <time>2012-08-07T12:26:17Z</time>
      </trkpt>
      <trkpt lat="44.28103" lon="6.18341">
        <ele>1569.0090332</ele>
        <time>2012-08-07T12:26:29Z</time>
      </trkpt>
      <trkpt lat="44.28116" lon="6.18327">
        <ele>1567.5668945</ele>
        <time>2012-08-07T12:26:35Z</time>
      </trkpt>
      <trkpt lat="44.28202" lon="6.18299">
        <ele>1565.6445313</ele>
        <time>2012-08-07T12:26:52Z</time>
      </trkpt>
      <trkpt lat="44.28216" lon="6.18293">
        <ele>1563.7214355</ele>
        <time>2012-08-07T12:26:59Z</time>
      </trkpt>
      <trkpt lat="44.28234" lon="6.18273">
        <ele>1561.7990723</ele>
        <time>2012-08-07T12:27:13Z</time>
      </trkpt>
      <trkpt lat="44.28252" lon="6.18203">
        <ele>1562.7602539</ele>
        <time>2012-08-07T12:27:24Z</time>
      </trkpt>
      <trkpt lat="44.28241" lon="6.1818">
        <ele>1563.7214355</ele>
        <time>2012-08-07T12:27:30Z</time>
      </trkpt>
      <trkpt lat="44.28226" lon="6.18155">
        <ele>1565.1638184</ele>
        <time>2012-08-07T12:27:40Z</time>
      </trkpt>
      <trkpt lat="44.28218" lon="6.18114">
        <ele>1566.125</ele>
        <time>2012-08-07T12:27:55Z</time>
      </trkpt>
      <trkpt lat="44.28216" lon="6.18102">
        <ele>1567.0864258</ele>
        <time>2012-08-07T12:27:59Z</time>
      </trkpt>
      <trkpt lat="44.28216" lon="6.18089">
        <ele>1569.0090332</ele>
        <time>2012-08-07T12:28:04Z</time>
      </trkpt>
      <trkpt lat="44.28216" lon="6.18088">
        <ele>1568.5283203</ele>
        <time>2012-08-07T12:28:05Z</time>
      </trkpt>
      <trkpt lat="44.28217" lon="6.18054">
        <ele>1570.9316406</ele>
        <time>2012-08-07T12:28:20Z</time>
      </trkpt>
      <trkpt lat="44.28217" lon="6.18035">
        <ele>1569.9702148</ele>
        <time>2012-08-07T12:28:29Z</time>
      </trkpt>
      <trkpt lat="44.28215" lon="6.18004">
        <ele>1571.8928223</ele>
        <time>2012-08-07T12:28:40Z</time>
      </trkpt>
      <trkpt lat="44.28215" lon="6.17997">
        <ele>1571.8928223</ele>
        <time>2012-08-07T12:28:43Z</time>
      </trkpt>
      <trkpt lat="44.28215" lon="6.17995">
        <ele>1572.854248</ele>
        <time>2012-08-07T12:28:54Z</time>
      </trkpt>
      <trkpt lat="44.28215" lon="6.17995">
        <ele>1573.8154297</ele>
        <time>2012-08-07T12:29:07Z</time>
      </trkpt>
      <trkpt lat="44.28215" lon="6.17995">
        <ele>1574.7768555</ele>
        <time>2012-08-07T12:29:15Z</time>
      </trkpt>
      <trkpt lat="44.28215" lon="6.17995">
        <ele>1575.2573242</ele>
        <time>2012-08-07T12:29:23Z</time>
      </trkpt>
      <trkpt lat="44.28214" lon="6.17964">
        <ele>1575.7380371</ele>
        <time>2012-08-07T12:29:38Z</time>
      </trkpt>
      <trkpt lat="44.28214" lon="6.17964">
        <ele>1577.1801758</ele>
        <time>2012-08-07T12:30:07Z</time>
      </trkpt>
      <trkpt lat="44.28214" lon="6.17964">
        <ele>1577.6606445</ele>
        <time>2012-08-07T12:30:20Z</time>
      </trkpt>
      <trkpt lat="44.28214" lon="6.17964">
        <ele>1579.1025391</ele>
        <time>2012-08-07T12:30:29Z</time>
      </trkpt>
      <trkpt lat="44.28214" lon="6.17964">
        <ele>1582.4675293</ele>
        <time>2012-08-07T12:30:56Z</time>
      </trkpt>
      <trkpt lat="44.28214" lon="6.17964">
        <ele>1585.8320313</ele>
        <time>2012-08-07T12:32:05Z</time>
      </trkpt>
      <trkpt lat="44.28214" lon="6.17964">
        <ele>1587.2739258</ele>
        <time>2012-08-07T12:32:07Z</time>
      </trkpt>
      <trkpt lat="44.28214" lon="6.17964">
        <ele>1587.2739258</ele>
        <time>2012-08-07T12:32:27Z</time>
      </trkpt>
      <trkpt lat="44.28214" lon="6.17964">
        <ele>1587.7546387</ele>
        <time>2012-08-07T12:32:31Z</time>
      </trkpt>
      <trkpt lat="44.28214" lon="6.17964">
        <ele>1588.7160645</ele>
        <time>2012-08-07T12:32:51Z</time>
      </trkpt>
      <trkpt lat="44.28214" lon="6.17964">
        <ele>1589.6772461</ele>
        <time>2012-08-07T12:33:04Z</time>
      </trkpt>
      <trkpt lat="44.28214" lon="6.17964">
        <ele>1590.6384277</ele>
        <time>2012-08-07T12:33:18Z</time>
      </trkpt>
      <trkpt lat="44.28215" lon="6.18008">
        <ele>1591.5998535</ele>
        <time>2012-08-07T12:33:27Z</time>
      </trkpt>
      <trkpt lat="44.28216" lon="6.18017">
        <ele>1592.0805664</ele>
        <time>2012-08-07T12:33:31Z</time>
      </trkpt>
      <trkpt lat="44.28217" lon="6.18045">
        <ele>1592.0805664</ele>
        <time>2012-08-07T12:33:39Z</time>
      </trkpt>
      <trkpt lat="44.28216" lon="6.18086">
        <ele>1591.1191406</ele>
        <time>2012-08-07T12:33:53Z</time>
      </trkpt>
      <trkpt lat="44.28236" lon="6.1817">
        <ele>1590.6384277</ele>
        <time>2012-08-07T12:34:07Z</time>
      </trkpt>
      <trkpt lat="44.28249" lon="6.18195">
        <ele>1591.5998535</ele>
        <time>2012-08-07T12:34:20Z</time>
      </trkpt>
      <trkpt lat="44.28254" lon="6.18208">
        <ele>1592.5612793</ele>
        <time>2012-08-07T12:34:31Z</time>
      </trkpt>
      <trkpt lat="44.28254" lon="6.18208">
        <ele>1594.9643555</ele>
        <time>2012-08-07T12:35:01Z</time>
      </trkpt>
      <trkpt lat="44.28318" lon="6.18209">
        <ele>1595.4450684</ele>
        <time>2012-08-07T12:35:11Z</time>
      </trkpt>
      <trkpt lat="44.28341" lon="6.18212">
        <ele>1596.887207</ele>
        <time>2012-08-07T12:35:22Z</time>
      </trkpt>
      <trkpt lat="44.28349" lon="6.18212">
        <ele>1597.3679199</ele>
        <time>2012-08-07T12:35:25Z</time>
      </trkpt>
      <trkpt lat="44.28366" lon="6.18215">
        <ele>1597.8486328</ele>
        <time>2012-08-07T12:35:37Z</time>
      </trkpt>
      <trkpt lat="44.28377" lon="6.18215">
        <ele>1599.7712402</ele>
        <time>2012-08-07T12:35:43Z</time>
      </trkpt>
      <trkpt lat="44.28386" lon="6.18216">
        <ele>1600.2519531</ele>
        <time>2012-08-07T12:35:48Z</time>
      </trkpt>
      <trkpt lat="44.28398" lon="6.18217">
        <ele>1600.2519531</ele>
        <time>2012-08-07T12:35:52Z</time>
      </trkpt>
      <trkpt lat="44.28433" lon="6.18213">
        <ele>1601.2131348</ele>
        <time>2012-08-07T12:36:04Z</time>
      </trkpt>
      <trkpt lat="44.28465" lon="6.18208">
        <ele>1603.6164551</ele>
        <time>2012-08-07T12:36:19Z</time>
      </trkpt>
      <trkpt lat="44.28482" lon="6.18208">
        <ele>1603.1357422</ele>
        <time>2012-08-07T12:36:33Z</time>
      </trkpt>
      <trkpt lat="44.28523" lon="6.18202">
        <ele>1601.2131348</ele>
        <time>2012-08-07T12:36:44Z</time>
      </trkpt>
      <trkpt lat="44.28557" lon="6.18202">
        <ele>1599.7712402</ele>
        <time>2012-08-07T12:36:55Z</time>
      </trkpt>
      <trkpt lat="44.28557" lon="6.18202">
        <ele>1599.7712402</ele>
        <time>2012-08-07T12:36:56Z</time>
      </trkpt>
      <trkpt lat="44.28572" lon="6.18189">
        <ele>1599.7712402</ele>
        <time>2012-08-07T12:37:08Z</time>
      </trkpt>
      <trkpt lat="44.28593" lon="6.18164">
        <ele>1597.3679199</ele>
        <time>2012-08-07T12:37:15Z</time>
      </trkpt>
      <trkpt lat="44.28607" lon="6.18166">
        <ele>1596.4067383</ele>
        <time>2012-08-07T12:37:20Z</time>
      </trkpt>
      <trkpt lat="44.28606" lon="6.1818">
        <ele>1595.4450684</ele>
        <time>2012-08-07T12:37:25Z</time>
      </trkpt>
      <trkpt lat="44.28608" lon="6.18201">
        <ele>1594.0031738</ele>
        <time>2012-08-07T12:37:31Z</time>
      </trkpt>
      <trkpt lat="44.28608" lon="6.18212">
        <ele>1593.5224609</ele>
        <time>2012-08-07T12:37:34Z</time>
      </trkpt>
      <trkpt lat="44.28608" lon="6.18243">
        <ele>1590.6384277</ele>
        <time>2012-08-07T12:37:45Z</time>
      </trkpt>
      <trkpt lat="44.28608" lon="6.18243">
        <ele>1590.6384277</ele>
        <time>2012-08-07T12:37:55Z</time>
      </trkpt>
      <trkpt lat="44.28604" lon="6.18254">
        <ele>1591.5998535</ele>
        <time>2012-08-07T12:38:17Z</time>
      </trkpt>
      <trkpt lat="44.28602" lon="6.1826">
        <ele>1590.157959</ele>
        <time>2012-08-07T12:38:19Z</time>
      </trkpt>
      <trkpt lat="44.28585" lon="6.18273">
        <ele>1588.2353516</ele>
        <time>2012-08-07T12:38:26Z</time>
      </trkpt>
      <trkpt lat="44.28577" lon="6.18275">
        <ele>1587.2739258</ele>
        <time>2012-08-07T12:38:29Z</time>
      </trkpt>
      <trkpt lat="44.28571" lon="6.18273">
        <ele>1586.7932129</ele>
        <time>2012-08-07T12:38:32Z</time>
      </trkpt>
      <trkpt lat="44.2856" lon="6.18269">
        <ele>1584.8708496</ele>
        <time>2012-08-07T12:38:36Z</time>
      </trkpt>
      <trkpt lat="44.28512" lon="6.18283">
        <ele>1581.0256348</ele>
        <time>2012-08-07T12:38:49Z</time>
      </trkpt>
      <trkpt lat="44.28468" lon="6.18309">
        <ele>1578.6220703</ele>
        <time>2012-08-07T12:39:02Z</time>
      </trkpt>
      <trkpt lat="44.28458" lon="6.18313">
        <ele>1576.6994629</ele>
        <time>2012-08-07T12:39:06Z</time>
      </trkpt>
      <trkpt lat="44.28441" lon="6.18311">
        <ele>1574.7768555</ele>
        <time>2012-08-07T12:39:17Z</time>
      </trkpt>
      <trkpt lat="44.28427" lon="6.18305">
        <ele>1573.3349609</ele>
        <time>2012-08-07T12:39:22Z</time>
      </trkpt>
      <trkpt lat="44.28422" lon="6.18303">
        <ele>1572.854248</ele>
        <time>2012-08-07T12:39:23Z</time>
      </trkpt>
      <trkpt lat="44.28409" lon="6.18303">
        <ele>1573.8154297</ele>
        <time>2012-08-07T12:39:27Z</time>
      </trkpt>
      <trkpt lat="44.28401" lon="6.1831">
        <ele>1571.8928223</ele>
        <time>2012-08-07T12:39:29Z</time>
      </trkpt>
      <trkpt lat="44.28402" lon="6.18349">
        <ele>1570.9316406</ele>
        <time>2012-08-07T12:39:36Z</time>
      </trkpt>
      <trkpt lat="44.28398" lon="6.18359">
        <ele>1569.9702148</ele>
        <time>2012-08-07T12:39:40Z</time>
      </trkpt>
      <trkpt lat="44.28385" lon="6.1838">
        <ele>1568.0476074</ele>
        <time>2012-08-07T12:39:47Z</time>
      </trkpt>
      <trkpt lat="44.28381" lon="6.18382">
        <ele>1567.5668945</ele>
        <time>2012-08-07T12:39:48Z</time>
      </trkpt>
      <trkpt lat="44.2837" lon="6.18387">
        <ele>1566.6057129</ele>
        <time>2012-08-07T12:39:52Z</time>
      </trkpt>
      <trkpt lat="44.28357" lon="6.18389">
        <ele>1564.6831055</ele>
        <time>2012-08-07T12:39:57Z</time>
      </trkpt>
      <trkpt lat="44.28341" lon="6.18391">
        <ele>1563.2409668</ele>
        <time>2012-08-07T12:40:08Z</time>
      </trkpt>
      <trkpt lat="44.28367" lon="6.185">
        <ele>1563.7214355</ele>
        <time>2012-08-07T12:40:12Z</time>
      </trkpt>
      <trkpt lat="44.2836" lon="6.18442">
        <ele>1562.279541</ele>
        <time>2012-08-07T12:40:23Z</time>
      </trkpt>
      <trkpt lat="44.28391" lon="6.18457">
        <ele>1558.9150391</ele>
        <time>2012-08-07T12:40:33Z</time>
      </trkpt>
      <trkpt lat="44.2842" lon="6.18472">
        <ele>1556.0310059</ele>
        <time>2012-08-07T12:40:44Z</time>
      </trkpt>
      <trkpt lat="44.28451" lon="6.18513">
        <ele>1553.1472168</ele>
        <time>2012-08-07T12:40:56Z</time>
      </trkpt>
      <trkpt lat="44.28457" lon="6.18531">
        <ele>1551.7053223</ele>
        <time>2012-08-07T12:41:01Z</time>
      </trkpt>
      <trkpt lat="44.28458" lon="6.1855">
        <ele>1550.7438965</ele>
        <time>2012-08-07T12:41:05Z</time>
      </trkpt>
      <trkpt lat="44.28466" lon="6.18613">
        <ele>1549.7827148</ele>
        <time>2012-08-07T12:41:18Z</time>
      </trkpt>
      <trkpt lat="44.28493" lon="6.18655">
        <ele>1547.3791504</ele>
        <time>2012-08-07T12:41:29Z</time>
      </trkpt>
      <trkpt lat="44.28526" lon="6.18678">
        <ele>1546.4179688</ele>
        <time>2012-08-07T12:41:39Z</time>
      </trkpt>
      <trkpt lat="44.28542" lon="6.18685">
        <ele>1546.8984375</ele>
        <time>2012-08-07T12:41:43Z</time>
      </trkpt>
      <trkpt lat="44.2858" lon="6.18707">
        <ele>1543.5339355</ele>
        <time>2012-08-07T12:41:54Z</time>
      </trkpt>
      <trkpt lat="44.28595" lon="6.18717">
        <ele>1543.0532227</ele>
        <time>2012-08-07T12:41:59Z</time>
      </trkpt>
      <trkpt lat="44.286" lon="6.18734">
        <ele>1542.092041</ele>
        <time>2012-08-07T12:42:03Z</time>
      </trkpt>
      <trkpt lat="44.28586" lon="6.1876">
        <ele>1540.1694336</ele>
        <time>2012-08-07T12:42:09Z</time>
      </trkpt>
      <trkpt lat="44.28582" lon="6.18766">
        <ele>1541.6113281</ele>
        <time>2012-08-07T12:42:11Z</time>
      </trkpt>
      <trkpt lat="44.2858" lon="6.18769">
        <ele>1540.6499023</ele>
        <time>2012-08-07T12:42:12Z</time>
      </trkpt>
      <trkpt lat="44.28575" lon="6.18782">
        <ele>1539.6887207</ele>
        <time>2012-08-07T12:42:15Z</time>
      </trkpt>
      <trkpt lat="44.28561" lon="6.18835">
        <ele>1536.3242188</ele>
        <time>2012-08-07T12:42:26Z</time>
      </trkpt>
      <trkpt lat="44.28574" lon="6.18886">
        <ele>1532.4790039</ele>
        <time>2012-08-07T12:42:37Z</time>
      </trkpt>
      <trkpt lat="44.28575" lon="6.18891">
        <ele>1531.517334</ele>
        <time>2012-08-07T12:42:38Z</time>
      </trkpt>
      <trkpt lat="44.28581" lon="6.18909">
        <ele>1531.0368652</ele>
        <time>2012-08-07T12:42:42Z</time>
      </trkpt>
      <trkpt lat="44.28591" lon="6.1892">
        <ele>1529.5947266</ele>
        <time>2012-08-07T12:42:45Z</time>
      </trkpt>
      <trkpt lat="44.28614" lon="6.18904">
        <ele>1528.152832</ele>
        <time>2012-08-07T12:42:51Z</time>
      </trkpt>
      <trkpt lat="44.28622" lon="6.18869">
        <ele>1526.7109375</ele>
        <time>2012-08-07T12:42:58Z</time>
      </trkpt>
      <trkpt lat="44.28633" lon="6.18859">
        <ele>1525.2687988</ele>
        <time>2012-08-07T12:43:02Z</time>
      </trkpt>
      <trkpt lat="44.28636" lon="6.18859">
        <ele>1524.3076172</ele>
        <time>2012-08-07T12:43:12Z</time>
      </trkpt>
      <trkpt lat="44.28636" lon="6.18859">
        <ele>1522.8657227</ele>
        <time>2012-08-07T12:43:22Z</time>
      </trkpt>
      <trkpt lat="44.28655" lon="6.18868">
        <ele>1520.9431152</ele>
        <time>2012-08-07T12:43:31Z</time>
      </trkpt>
      <trkpt lat="44.28663" lon="6.18873">
        <ele>1519.0205078</ele>
        <time>2012-08-07T12:43:34Z</time>
      </trkpt>
      <trkpt lat="44.28674" lon="6.18876">
        <ele>1519.0205078</ele>
        <time>2012-08-07T12:43:39Z</time>
      </trkpt>
      <trkpt lat="44.28698" lon="6.18858">
        <ele>1516.1364746</ele>
        <time>2012-08-07T12:43:46Z</time>
      </trkpt>
      <trkpt lat="44.28714" lon="6.1883">
        <ele>1512.7717285</ele>
        <time>2012-08-07T12:43:52Z</time>
      </trkpt>
      <trkpt lat="44.28716" lon="6.18826">
        <ele>1512.7717285</ele>
        <time>2012-08-07T12:43:53Z</time>
      </trkpt>
      <trkpt lat="44.28727" lon="6.18805">
        <ele>1510.3684082</ele>
        <time>2012-08-07T12:43:58Z</time>
      </trkpt>
      <trkpt lat="44.28734" lon="6.18791">
        <ele>1508.9265137</ele>
        <time>2012-08-07T12:44:02Z</time>
      </trkpt>
      <trkpt lat="44.28741" lon="6.18768">
        <ele>1507.0039063</ele>
        <time>2012-08-07T12:44:14Z</time>
      </trkpt>
      <trkpt lat="44.28741" lon="6.18768">
        <ele>1507.0039063</ele>
        <time>2012-08-07T12:44:22Z</time>
      </trkpt>
      <trkpt lat="44.28745" lon="6.18754">
        <ele>1507.0039063</ele>
        <time>2012-08-07T12:44:25Z</time>
      </trkpt>
      <trkpt lat="44.28739" lon="6.18753">
        <ele>1507.0039063</ele>
        <time>2012-08-07T12:44:38Z</time>
      </trkpt>
      <trkpt lat="44.28725" lon="6.18731">
        <ele>1506.0424805</ele>
        <time>2012-08-07T12:44:45Z</time>
      </trkpt>
      <trkpt lat="44.28693" lon="6.18688">
        <ele>1505.5620117</ele>
        <time>2012-08-07T12:44:58Z</time>
      </trkpt>
      <trkpt lat="44.28663" lon="6.1864">
        <ele>1503.6394043</ele>
        <time>2012-08-07T12:45:12Z</time>
      </trkpt>
      <trkpt lat="44.28692" lon="6.1862">
        <ele>1503.6394043</ele>
        <time>2012-08-07T12:45:23Z</time>
      </trkpt>
      <trkpt lat="44.28706" lon="6.18623">
        <ele>1503.6394043</ele>
        <time>2012-08-07T12:45:30Z</time>
      </trkpt>
      <trkpt lat="44.28745" lon="6.18605">
        <ele>1504.1201172</ele>
        <time>2012-08-07T12:45:42Z</time>
      </trkpt>
      <trkpt lat="44.28758" lon="6.18597">
        <ele>1503.6394043</ele>
        <time>2012-08-07T12:45:47Z</time>
      </trkpt>
      <trkpt lat="44.28792" lon="6.18577">
        <ele>1503.6394043</ele>
        <time>2012-08-07T12:45:58Z</time>
      </trkpt>
      <trkpt lat="44.28819" lon="6.18546">
        <ele>1504.1201172</ele>
        <time>2012-08-07T12:46:11Z</time>
      </trkpt>
      <trkpt lat="44.28845" lon="6.18522">
        <ele>1504.1201172</ele>
        <time>2012-08-07T12:46:23Z</time>
      </trkpt>
      <trkpt lat="44.28852" lon="6.18516">
        <ele>1504.6005859</ele>
        <time>2012-08-07T12:46:26Z</time>
      </trkpt>
      <trkpt lat="44.28868" lon="6.18457">
        <ele>1504.1201172</ele>
        <time>2012-08-07T12:46:40Z</time>
      </trkpt>
      <trkpt lat="44.28881" lon="6.18465">
        <ele>1504.6005859</ele>
        <time>2012-08-07T12:46:45Z</time>
      </trkpt>
      <trkpt lat="44.28901" lon="6.18488">
        <ele>1505.5620117</ele>
        <time>2012-08-07T12:46:58Z</time>
      </trkpt>
      <trkpt lat="44.28909" lon="6.18496">
        <ele>1505.5620117</ele>
        <time>2012-08-07T12:47:02Z</time>
      </trkpt>
      <trkpt lat="44.28928" lon="6.18504">
        <ele>1505.0812988</ele>
        <time>2012-08-07T12:47:13Z</time>
      </trkpt>
      <trkpt lat="44.28936" lon="6.18505">
        <ele>1504.6005859</ele>
        <time>2012-08-07T12:47:17Z</time>
      </trkpt>
      <trkpt lat="44.28964" lon="6.18502">
        <ele>1503.6394043</ele>
        <time>2012-08-07T12:47:28Z</time>
      </trkpt>
      <trkpt lat="44.29001" lon="6.18493">
        <ele>1501.236084</ele>
        <time>2012-08-07T12:47:38Z</time>
      </trkpt>
      <trkpt lat="44.29007" lon="6.18491">
        <ele>1501.236084</ele>
        <time>2012-08-07T12:47:40Z</time>
      </trkpt>
      <trkpt lat="44.29039" lon="6.18475">
        <ele>1498.3518066</ele>
        <time>2012-08-07T12:47:49Z</time>
      </trkpt>
      <trkpt lat="44.29058" lon="6.18447">
        <ele>1496.9099121</ele>
        <time>2012-08-07T12:47:55Z</time>
      </trkpt>
      <trkpt lat="44.29096" lon="6.18421">
        <ele>1493.5454102</ele>
        <time>2012-08-07T12:48:05Z</time>
      </trkpt>
      <trkpt lat="44.29124" lon="6.18424">
        <ele>1491.6228027</ele>
        <time>2012-08-07T12:48:16Z</time>
      </trkpt>
      <trkpt lat="44.29126" lon="6.18425">
        <ele>1491.6228027</ele>
        <time>2012-08-07T12:48:17Z</time>
      </trkpt>
      <trkpt lat="44.29135" lon="6.18384">
        <ele>1489.2194824</ele>
        <time>2012-08-07T12:48:28Z</time>
      </trkpt>
      <trkpt lat="44.29139" lon="6.18378">
        <ele>1487.7775879</ele>
        <time>2012-08-07T12:48:31Z</time>
      </trkpt>
      <trkpt lat="44.2914" lon="6.18377">
        <ele>1486.8161621</ele>
        <time>2012-08-07T12:48:32Z</time>
      </trkpt>
      <trkpt lat="44.29139" lon="6.18373">
        <ele>1485.3742676</ele>
        <time>2012-08-07T12:48:35Z</time>
      </trkpt>
      <trkpt lat="44.29136" lon="6.18365">
        <ele>1484.4130859</ele>
        <time>2012-08-07T12:48:38Z</time>
      </trkpt>
      <trkpt lat="44.29147" lon="6.18301">
        <ele>1481.0483398</ele>
        <time>2012-08-07T12:48:50Z</time>
      </trkpt>
      <trkpt lat="44.29165" lon="6.18273">
        <ele>1480.0869141</ele>
        <time>2012-08-07T12:48:56Z</time>
      </trkpt>
      <trkpt lat="44.29168" lon="6.18262">
        <ele>1479.1254883</ele>
        <time>2012-08-07T12:48:59Z</time>
      </trkpt>
      <trkpt lat="44.29179" lon="6.18256">
        <ele>1479.6062012</ele>
        <time>2012-08-07T12:49:05Z</time>
      </trkpt>
      <trkpt lat="44.29204" lon="6.18261">
        <ele>1476.7224121</ele>
        <time>2012-08-07T12:49:15Z</time>
      </trkpt>
      <trkpt lat="44.2921" lon="6.18263">
        <ele>1475.7609863</ele>
        <time>2012-08-07T12:49:17Z</time>
      </trkpt>
      <trkpt lat="44.29229" lon="6.18267">
        <ele>1472.8771973</ele>
        <time>2012-08-07T12:49:22Z</time>
      </trkpt>
      <trkpt lat="44.29242" lon="6.18267">
        <ele>1473.8383789</ele>
        <time>2012-08-07T12:49:26Z</time>
      </trkpt>
      <trkpt lat="44.29254" lon="6.18263">
        <ele>1471.9157715</ele>
        <time>2012-08-07T12:49:29Z</time>
      </trkpt>
      <trkpt lat="44.2928" lon="6.18232">
        <ele>1469.5126953</ele>
        <time>2012-08-07T12:49:39Z</time>
      </trkpt>
      <trkpt lat="44.29284" lon="6.18225">
        <ele>1469.5126953</ele>
        <time>2012-08-07T12:49:41Z</time>
      </trkpt>
      <trkpt lat="44.29293" lon="6.18211">
        <ele>1466.628418</ele>
        <time>2012-08-07T12:49:44Z</time>
      </trkpt>
      <trkpt lat="44.29282" lon="6.18228">
        <ele>1466.628418</ele>
        <time>2012-08-07T12:49:45Z</time>
      </trkpt>
      <trkpt lat="44.2928" lon="6.18232">
        <ele>1466.1477051</ele>
        <time>2012-08-07T12:49:47Z</time>
      </trkpt>
      <trkpt lat="44.29287" lon="6.18281">
        <ele>1463.7443848</ele>
        <time>2012-08-07T12:50:00Z</time>
      </trkpt>
      <trkpt lat="44.29284" lon="6.18293">
        <ele>1461.8220215</ele>
        <time>2012-08-07T12:50:03Z</time>
      </trkpt>
      <trkpt lat="44.29252" lon="6.18354">
        <ele>1459.4187012</ele>
        <time>2012-08-07T12:50:15Z</time>
      </trkpt>
      <trkpt lat="44.29252" lon="6.18354">
        <ele>1458.4572754</ele>
        <time>2012-08-07T12:50:17Z</time>
      </trkpt>
      <trkpt lat="44.29251" lon="6.18356">
        <ele>1458.4572754</ele>
        <time>2012-08-07T12:50:19Z</time>
      </trkpt>
      <trkpt lat="44.29237" lon="6.18268">
        <ele>1457.4960938</ele>
        <time>2012-08-07T12:50:25Z</time>
      </trkpt>
      <trkpt lat="44.29237" lon="6.18268">
        <ele>1454.6120605</ele>
        <time>2012-08-07T12:50:29Z</time>
      </trkpt>
      <trkpt lat="44.29245" lon="6.18266">
        <ele>1453.6508789</ele>
        <time>2012-08-07T12:50:36Z</time>
      </trkpt>
      <trkpt lat="44.29269" lon="6.1835">
        <ele>1449.324707</ele>
        <time>2012-08-07T12:50:42Z</time>
      </trkpt>
      <trkpt lat="44.29269" lon="6.1835">
        <ele>1449.324707</ele>
        <time>2012-08-07T12:50:43Z</time>
      </trkpt>
      <trkpt lat="44.29273" lon="6.18344">
        <ele>1448.8439941</ele>
        <time>2012-08-07T12:50:46Z</time>
      </trkpt>
      <trkpt lat="44.29289" lon="6.18398">
        <ele>1447.4020996</ele>
        <time>2012-08-07T12:50:50Z</time>
      </trkpt>
      <trkpt lat="44.29288" lon="6.18409">
        <ele>1445.9602051</ele>
        <time>2012-08-07T12:50:53Z</time>
      </trkpt>
      <trkpt lat="44.29279" lon="6.18452">
        <ele>1443.0761719</ele>
        <time>2012-08-07T12:51:02Z</time>
      </trkpt>
      <trkpt lat="44.29256" lon="6.18493">
        <ele>1440.1923828</ele>
        <time>2012-08-07T12:51:09Z</time>
      </trkpt>
      <trkpt lat="44.29242" lon="6.18531">
        <ele>1437.7890625</ele>
        <time>2012-08-07T12:51:17Z</time>
      </trkpt>
      <trkpt lat="44.29253" lon="6.18545">
        <ele>1435.8662109</ele>
        <time>2012-08-07T12:51:25Z</time>
      </trkpt>
      <trkpt lat="44.29259" lon="6.18538">
        <ele>1435.8662109</ele>
        <time>2012-08-07T12:51:29Z</time>
      </trkpt>
      <trkpt lat="44.29277" lon="6.18546">
        <ele>1434.4243164</ele>
        <time>2012-08-07T12:51:31Z</time>
      </trkpt>
      <trkpt lat="44.29284" lon="6.18533">
        <ele>1433.9436035</ele>
        <time>2012-08-07T12:51:34Z</time>
      </trkpt>
      <trkpt lat="44.29303" lon="6.1849">
        <ele>1430.5791016</ele>
        <time>2012-08-07T12:51:44Z</time>
      </trkpt>
      <trkpt lat="44.29308" lon="6.1847">
        <ele>1429.1369629</ele>
        <time>2012-08-07T12:51:49Z</time>
      </trkpt>
      <trkpt lat="44.2931" lon="6.18457">
        <ele>1427.6950684</ele>
        <time>2012-08-07T12:51:53Z</time>
      </trkpt>
      <trkpt lat="44.2931" lon="6.1844">
        <ele>1426.7338867</ele>
        <time>2012-08-07T12:51:57Z</time>
      </trkpt>
      <trkpt lat="44.29309" lon="6.18467">
        <ele>1423.8498535</ele>
        <time>2012-08-07T12:52:09Z</time>
      </trkpt>
      <trkpt lat="44.29306" lon="6.18478">
        <ele>1422.407959</ele>
        <time>2012-08-07T12:52:16Z</time>
      </trkpt>
      <trkpt lat="44.29304" lon="6.18486">
        <ele>1419.5239258</ele>
        <time>2012-08-07T12:52:26Z</time>
      </trkpt>
      <trkpt lat="44.29299" lon="6.18499">
        <ele>1417.1206055</ele>
        <time>2012-08-07T12:52:32Z</time>
      </trkpt>
      <trkpt lat="44.29294" lon="6.1851">
        <ele>1413.7558594</ele>
        <time>2012-08-07T12:52:40Z</time>
      </trkpt>
      <trkpt lat="44.29293" lon="6.18513">
        <ele>1411.3527832</ele>
        <time>2012-08-07T12:52:48Z</time>
      </trkpt>
      <trkpt lat="44.29293" lon="6.18513">
        <ele>1408.46875</ele>
        <time>2012-08-07T12:52:57Z</time>
      </trkpt>
      <trkpt lat="44.2929" lon="6.18519">
        <ele>1408.46875</ele>
        <time>2012-08-07T12:53:07Z</time>
      </trkpt>
      <trkpt lat="44.29564" lon="6.18177">
        <ele>1407.9882813</ele>
        <time>2012-08-07T12:53:20Z</time>
      </trkpt>
      <trkpt lat="44.29583" lon="6.18165">
        <ele>1405.5849609</ele>
        <time>2012-08-07T12:53:32Z</time>
      </trkpt>
      <trkpt lat="44.29604" lon="6.18153">
        <ele>1404.6235352</ele>
        <time>2012-08-07T12:53:38Z</time>
      </trkpt>
      <trkpt lat="44.29645" lon="6.1814">
        <ele>1404.1430664</ele>
        <time>2012-08-07T12:53:44Z</time>
      </trkpt>
      <trkpt lat="44.29669" lon="6.18142">
        <ele>1404.1430664</ele>
        <time>2012-08-07T12:53:55Z</time>
      </trkpt>
      <trkpt lat="44.297" lon="6.18142">
        <ele>1405.104248</ele>
        <time>2012-08-07T12:54:07Z</time>
      </trkpt>
      <trkpt lat="44.29745" lon="6.18119">
        <ele>1406.5461426</ele>
        <time>2012-08-07T12:54:19Z</time>
      </trkpt>
      <trkpt lat="44.29764" lon="6.18079">
        <ele>1408.46875</ele>
        <time>2012-08-07T12:54:35Z</time>
      </trkpt>
      <trkpt lat="44.29784" lon="6.18041">
        <ele>1409.9106445</ele>
        <time>2012-08-07T12:54:52Z</time>
      </trkpt>
      <trkpt lat="44.298" lon="6.18004">
        <ele>1409.9106445</ele>
        <time>2012-08-07T12:55:08Z</time>
      </trkpt>
      <trkpt lat="44.29809" lon="6.17982">
        <ele>1406.5461426</ele>
        <time>2012-08-07T12:55:14Z</time>
      </trkpt>
      <trkpt lat="44.29817" lon="6.17958">
        <ele>1405.104248</ele>
        <time>2012-08-07T12:55:21Z</time>
      </trkpt>
      <trkpt lat="44.29838" lon="6.17938">
        <ele>1402.7006836</ele>
        <time>2012-08-07T12:55:32Z</time>
      </trkpt>
      <trkpt lat="44.29847" lon="6.17938">
        <ele>1401.2587891</ele>
        <time>2012-08-07T12:55:37Z</time>
      </trkpt>
      <trkpt lat="44.29858" lon="6.17937">
        <ele>1399.8168945</ele>
        <time>2012-08-07T12:55:40Z</time>
      </trkpt>
      <trkpt lat="44.29858" lon="6.17917">
        <ele>1399.3361816</ele>
        <time>2012-08-07T12:55:45Z</time>
      </trkpt>
      <trkpt lat="44.29853" lon="6.17908">
        <ele>1400.2976074</ele>
        <time>2012-08-07T12:55:49Z</time>
      </trkpt>
      <trkpt lat="44.29849" lon="6.17897">
        <ele>1399.8168945</ele>
        <time>2012-08-07T12:55:53Z</time>
      </trkpt>
      <trkpt lat="44.29846" lon="6.17869">
        <ele>1401.739502</ele>
        <time>2012-08-07T12:56:02Z</time>
      </trkpt>
      <trkpt lat="44.29832" lon="6.17809">
        <ele>1398.3747559</ele>
        <time>2012-08-07T12:56:17Z</time>
      </trkpt>
      <trkpt lat="44.29821" lon="6.17782">
        <ele>1396.9328613</ele>
        <time>2012-08-07T12:56:22Z</time>
      </trkpt>
      <trkpt lat="44.29814" lon="6.17747">
        <ele>1396.4523926</ele>
        <time>2012-08-07T12:56:27Z</time>
      </trkpt>
      <trkpt lat="44.29822" lon="6.17703">
        <ele>1395.9716797</ele>
        <time>2012-08-07T12:56:34Z</time>
      </trkpt>
      <trkpt lat="44.29835" lon="6.17635">
        <ele>1395.9716797</ele>
        <time>2012-08-07T12:56:48Z</time>
      </trkpt>
      <trkpt lat="44.29827" lon="6.17603">
        <ele>1394.0490723</ele>
        <time>2012-08-07T12:56:55Z</time>
      </trkpt>
      <trkpt lat="44.29838" lon="6.17544">
        <ele>1390.6843262</ele>
        <time>2012-08-07T12:57:04Z</time>
      </trkpt>
      <trkpt lat="44.2984" lon="6.17531">
        <ele>1389.7231445</ele>
        <time>2012-08-07T12:57:06Z</time>
      </trkpt>
      <trkpt lat="44.29843" lon="6.17512">
        <ele>1388.7619629</ele>
        <time>2012-08-07T12:57:09Z</time>
      </trkpt>
      <trkpt lat="44.29847" lon="6.17489">
        <ele>1387.3195801</ele>
        <time>2012-08-07T12:57:12Z</time>
      </trkpt>
      <trkpt lat="44.29854" lon="6.17467">
        <ele>1386.8388672</ele>
        <time>2012-08-07T12:57:15Z</time>
      </trkpt>
      <trkpt lat="44.29872" lon="6.1744">
        <ele>1383.9550781</ele>
        <time>2012-08-07T12:57:19Z</time>
      </trkpt>
      <trkpt lat="44.29884" lon="6.17425">
        <ele>1382.0324707</ele>
        <time>2012-08-07T12:57:23Z</time>
      </trkpt>
      <trkpt lat="44.29894" lon="6.17406">
        <ele>1379.6291504</ele>
        <time>2012-08-07T12:57:27Z</time>
      </trkpt>
      <trkpt lat="44.29922" lon="6.17365">
        <ele>1377.2260742</ele>
        <time>2012-08-07T12:57:36Z</time>
      </trkpt>
      <trkpt lat="44.29935" lon="6.17332">
        <ele>1374.8227539</ele>
        <time>2012-08-07T12:57:41Z</time>
      </trkpt>
      <trkpt lat="44.29944" lon="6.1731">
        <ele>1373.3808594</ele>
        <time>2012-08-07T12:57:44Z</time>
      </trkpt>
      <trkpt lat="44.29951" lon="6.17296">
        <ele>1372.9001465</ele>
        <time>2012-08-07T12:57:46Z</time>
      </trkpt>
      <trkpt lat="44.29962" lon="6.1728">
        <ele>1370.496582</ele>
        <time>2012-08-07T12:57:49Z</time>
      </trkpt>
      <trkpt lat="44.29972" lon="6.17249">
        <ele>1367.1320801</ele>
        <time>2012-08-07T12:57:57Z</time>
      </trkpt>
      <trkpt lat="44.29974" lon="6.17229">
        <ele>1365.2094727</ele>
        <time>2012-08-07T12:58:03Z</time>
      </trkpt>
      <trkpt lat="44.29976" lon="6.17194">
        <ele>1362.3254395</ele>
        <time>2012-08-07T12:58:12Z</time>
      </trkpt>
      <trkpt lat="44.29978" lon="6.17175">
        <ele>1360.8835449</ele>
        <time>2012-08-07T12:58:16Z</time>
      </trkpt>
      <trkpt lat="44.29983" lon="6.17139">
        <ele>1358.4802246</ele>
        <time>2012-08-07T12:58:21Z</time>
      </trkpt>
      <trkpt lat="44.29984" lon="6.17136">
        <ele>1356.5576172</ele>
        <time>2012-08-07T12:58:26Z</time>
      </trkpt>
      <trkpt lat="44.30026" lon="6.17113">
        <ele>1355.1154785</ele>
        <time>2012-08-07T12:58:30Z</time>
      </trkpt>
      <trkpt lat="44.3003" lon="6.17099">
        <ele>1352.7121582</ele>
        <time>2012-08-07T12:58:32Z</time>
      </trkpt>
      <trkpt lat="44.30034" lon="6.17094">
        <ele>1352.7121582</ele>
        <time>2012-08-07T12:58:33Z</time>
      </trkpt>
      <trkpt lat="44.30041" lon="6.17091">
        <ele>1354.6347656</ele>
        <time>2012-08-07T12:58:35Z</time>
      </trkpt>
      <trkpt lat="44.30053" lon="6.17085">
        <ele>1351.7509766</ele>
        <time>2012-08-07T12:58:38Z</time>
      </trkpt>
      <trkpt lat="44.30076" lon="6.17061">
        <ele>1353.1928711</ele>
        <time>2012-08-07T12:58:42Z</time>
      </trkpt>
      <trkpt lat="44.30081" lon="6.17053">
        <ele>1351.2702637</ele>
        <time>2012-08-07T12:58:44Z</time>
      </trkpt>
      <trkpt lat="44.30088" lon="6.1704">
        <ele>1347.9057617</ele>
        <time>2012-08-07T12:58:47Z</time>
      </trkpt>
      <trkpt lat="44.3009" lon="6.17037">
        <ele>1349.8283691</ele>
        <time>2012-08-07T12:58:48Z</time>
      </trkpt>
      <trkpt lat="44.30095" lon="6.17028">
        <ele>1347.4250488</ele>
        <time>2012-08-07T12:58:51Z</time>
      </trkpt>
      <trkpt lat="44.30108" lon="6.17011">
        <ele>1344.5410156</ele>
        <time>2012-08-07T12:58:56Z</time>
      </trkpt>
      <trkpt lat="44.30053" lon="6.16885">
        <ele>1341.6572266</ele>
        <time>2012-08-07T12:59:09Z</time>
      </trkpt>
      <trkpt lat="44.30054" lon="6.16882">
        <ele>1341.6572266</ele>
        <time>2012-08-07T12:59:10Z</time>
      </trkpt>
      <trkpt lat="44.30063" lon="6.16835">
        <ele>1340.215332</ele>
        <time>2012-08-07T12:59:21Z</time>
      </trkpt>
      <trkpt lat="44.30073" lon="6.168">
        <ele>1336.8503418</ele>
        <time>2012-08-07T12:59:29Z</time>
      </trkpt>
      <trkpt lat="44.30084" lon="6.16788">
        <ele>1334.9279785</ele>
        <time>2012-08-07T12:59:35Z</time>
      </trkpt>
      <trkpt lat="44.30093" lon="6.16779">
        <ele>1334.4472656</ele>
        <time>2012-08-07T12:59:38Z</time>
      </trkpt>
      <trkpt lat="44.30101" lon="6.16758">
        <ele>1332.5246582</ele>
        <time>2012-08-07T12:59:42Z</time>
      </trkpt>
      <trkpt lat="44.3011" lon="6.16734">
        <ele>1330.6020508</ele>
        <time>2012-08-07T12:59:45Z</time>
      </trkpt>
      <trkpt lat="44.30132" lon="6.1672">
        <ele>1325.7954102</ele>
        <time>2012-08-07T12:59:53Z</time>
      </trkpt>
      <trkpt lat="44.30133" lon="6.1672">
        <ele>1325.7954102</ele>
        <time>2012-08-07T12:59:54Z</time>
      </trkpt>
      <trkpt lat="44.30136" lon="6.16718">
        <ele>1324.3535156</ele>
        <time>2012-08-07T12:59:56Z</time>
      </trkpt>
      <trkpt lat="44.30139" lon="6.16717">
        <ele>1323.3920898</ele>
        <time>2012-08-07T12:59:59Z</time>
      </trkpt>
      <trkpt lat="44.30146" lon="6.16715">
        <ele>1322.911377</ele>
        <time>2012-08-07T13:00:04Z</time>
      </trkpt>
      <trkpt lat="44.3016" lon="6.16715">
        <ele>1319.546875</ele>
        <time>2012-08-07T13:00:07Z</time>
      </trkpt>
      <trkpt lat="44.30162" lon="6.16715">
        <ele>1319.546875</ele>
        <time>2012-08-07T13:00:08Z</time>
      </trkpt>
      <trkpt lat="44.30182" lon="6.167">
        <ele>1318.1047363</ele>
        <time>2012-08-07T13:00:10Z</time>
      </trkpt>
      <trkpt lat="44.30187" lon="6.16692">
        <ele>1320.5080566</ele>
        <time>2012-08-07T13:00:12Z</time>
      </trkpt>
      <trkpt lat="44.30191" lon="6.16688">
        <ele>1317.1435547</ele>
        <time>2012-08-07T13:00:14Z</time>
      </trkpt>
      <trkpt lat="44.30196" lon="6.16682">
        <ele>1317.1435547</ele>
        <time>2012-08-07T13:00:15Z</time>
      </trkpt>
      <trkpt lat="44.30206" lon="6.16671">
        <ele>1316.6628418</ele>
        <time>2012-08-07T13:00:19Z</time>
      </trkpt>
      <trkpt lat="44.30221" lon="6.16645">
        <ele>1314.2595215</ele>
        <time>2012-08-07T13:00:22Z</time>
      </trkpt>
      <trkpt lat="44.30223" lon="6.16627">
        <ele>1314.7402344</ele>
        <time>2012-08-07T13:00:24Z</time>
      </trkpt>
      <trkpt lat="44.30225" lon="6.1662">
        <ele>1313.7788086</ele>
        <time>2012-08-07T13:00:26Z</time>
      </trkpt>
      <trkpt lat="44.30228" lon="6.16608">
        <ele>1312.3369141</ele>
        <time>2012-08-07T13:00:29Z</time>
      </trkpt>
      <trkpt lat="44.30252" lon="6.16556">
        <ele>1308.9724121</ele>
        <time>2012-08-07T13:00:41Z</time>
      </trkpt>
      <trkpt lat="44.30274" lon="6.16528">
        <ele>1306.5688477</ele>
        <time>2012-08-07T13:00:49Z</time>
      </trkpt>
      <trkpt lat="44.30286" lon="6.16512">
        <ele>1305.1269531</ele>
        <time>2012-08-07T13:00:52Z</time>
      </trkpt>
      <trkpt lat="44.30312" lon="6.16491">
        <ele>1302.7236328</ele>
        <time>2012-08-07T13:00:59Z</time>
      </trkpt>
      <trkpt lat="44.30316" lon="6.1649">
        <ele>1301.7624512</ele>
        <time>2012-08-07T13:01:00Z</time>
      </trkpt>
      <trkpt lat="44.30345" lon="6.16482">
        <ele>1299.3591309</ele>
        <time>2012-08-07T13:01:06Z</time>
      </trkpt>
      <trkpt lat="44.30388" lon="6.16453">
        <ele>1298.3977051</ele>
        <time>2012-08-07T13:01:13Z</time>
      </trkpt>
      <trkpt lat="44.30416" lon="6.1642">
        <ele>1295.0332031</ele>
        <time>2012-08-07T13:01:22Z</time>
      </trkpt>
      <trkpt lat="44.30428" lon="6.16397">
        <ele>1294.0720215</ele>
        <time>2012-08-07T13:01:25Z</time>
      </trkpt>
      <trkpt lat="44.30439" lon="6.16371">
        <ele>1291.668457</ele>
        <time>2012-08-07T13:01:31Z</time>
      </trkpt>
      <trkpt lat="44.30447" lon="6.16337">
        <ele>1291.1877441</ele>
        <time>2012-08-07T13:01:34Z</time>
      </trkpt>
      <trkpt lat="44.30448" lon="6.16336">
        <ele>1290.7070313</ele>
        <time>2012-08-07T13:01:36Z</time>
      </trkpt>
      <trkpt lat="44.30454" lon="6.16316">
        <ele>1288.784668</ele>
        <time>2012-08-07T13:01:40Z</time>
      </trkpt>
      <trkpt lat="44.30483" lon="6.16268">
        <ele>1283.4973145</ele>
        <time>2012-08-07T13:01:51Z</time>
      </trkpt>
      <trkpt lat="44.30501" lon="6.16232">
        <ele>1283.0166016</ele>
        <time>2012-08-07T13:01:56Z</time>
      </trkpt>
      <trkpt lat="44.3051" lon="6.16212">
        <ele>1280.6135254</ele>
        <time>2012-08-07T13:01:59Z</time>
      </trkpt>
      <trkpt lat="44.30527" lon="6.16183">
        <ele>1278.2102051</ele>
        <time>2012-08-07T13:02:06Z</time>
      </trkpt>
      <trkpt lat="44.30542" lon="6.16168">
        <ele>1277.7294922</ele>
        <time>2012-08-07T13:02:09Z</time>
      </trkpt>
      <trkpt lat="44.30559" lon="6.16158">
        <ele>1276.2875977</ele>
        <time>2012-08-07T13:02:13Z</time>
      </trkpt>
      <trkpt lat="44.30584" lon="6.16145">
        <ele>1272.9228516</ele>
        <time>2012-08-07T13:02:21Z</time>
      </trkpt>
      <trkpt lat="44.30587" lon="6.16141">
        <ele>1272.4421387</ele>
        <time>2012-08-07T13:02:23Z</time>
      </trkpt>
      <trkpt lat="44.30605" lon="6.16123">
        <ele>1271.0002441</ele>
        <time>2012-08-07T13:02:31Z</time>
      </trkpt>
      <trkpt lat="44.30615" lon="6.16107">
        <ele>1269.5583496</ele>
        <time>2012-08-07T13:02:34Z</time>
      </trkpt>
      <trkpt lat="44.30609" lon="6.16068">
        <ele>1266.1936035</ele>
        <time>2012-08-07T13:02:42Z</time>
      </trkpt>
      <trkpt lat="44.30618" lon="6.16062">
        <ele>1265.7131348</ele>
        <time>2012-08-07T13:02:45Z</time>
      </trkpt>
      <trkpt lat="44.3063" lon="6.16053">
        <ele>1264.751709</ele>
        <time>2012-08-07T13:02:48Z</time>
      </trkpt>
      <trkpt lat="44.30647" lon="6.16009">
        <ele>1261.8679199</ele>
        <time>2012-08-07T13:02:57Z</time>
      </trkpt>
      <trkpt lat="44.30652" lon="6.15993">
        <ele>1259.4643555</ele>
        <time>2012-08-07T13:03:04Z</time>
      </trkpt>
      <trkpt lat="44.30664" lon="6.15937">
        <ele>1257.0610352</ele>
        <time>2012-08-07T13:03:14Z</time>
      </trkpt>
      <trkpt lat="44.3067" lon="6.15922">
        <ele>1255.6191406</ele>
        <time>2012-08-07T13:03:18Z</time>
      </trkpt>
      <trkpt lat="44.30678" lon="6.15905">
        <ele>1254.6577148</ele>
        <time>2012-08-07T13:03:22Z</time>
      </trkpt>
      <trkpt lat="44.30684" lon="6.15876">
        <ele>1251.2932129</ele>
        <time>2012-08-07T13:03:27Z</time>
      </trkpt>
      <trkpt lat="44.30731" lon="6.15855">
        <ele>1252.2543945</ele>
        <time>2012-08-07T13:03:39Z</time>
      </trkpt>
      <trkpt lat="44.30733" lon="6.15855">
        <ele>1251.2932129</ele>
        <time>2012-08-07T13:03:52Z</time>
      </trkpt>
      <trkpt lat="44.30732" lon="6.15854">
        <ele>1251.2932129</ele>
        <time>2012-08-07T13:04:37Z</time>
      </trkpt>
      <trkpt lat="44.30732" lon="6.15852">
        <ele>1252.2543945</ele>
        <time>2012-08-07T13:04:52Z</time>
      </trkpt>
      <trkpt lat="44.30732" lon="6.15852">
        <ele>1249.8513184</ele>
        <time>2012-08-07T13:04:55Z</time>
      </trkpt>
      <trkpt lat="44.30732" lon="6.15852">
        <ele>1250.8125</ele>
        <time>2012-08-07T13:04:57Z</time>
      </trkpt>
      <trkpt lat="44.30741" lon="6.15853">
        <ele>1250.8125</ele>
        <time>2012-08-07T13:05:18Z</time>
      </trkpt>
      <trkpt lat="44.30742" lon="6.15848">
        <ele>1249.8513184</ele>
        <time>2012-08-07T13:05:28Z</time>
      </trkpt>
      <trkpt lat="44.30753" lon="6.15811">
        <ele>1251.2932129</ele>
        <time>2012-08-07T13:05:41Z</time>
      </trkpt>
      <trkpt lat="44.30762" lon="6.15783">
        <ele>1251.2932129</ele>
        <time>2012-08-07T13:05:52Z</time>
      </trkpt>
      <trkpt lat="44.30775" lon="6.15765">
        <ele>1250.8125</ele>
        <time>2012-08-07T13:06:02Z</time>
      </trkpt>
      <trkpt lat="44.30803" lon="6.15724">
        <ele>1251.2932129</ele>
        <time>2012-08-07T13:06:19Z</time>
      </trkpt>
      <trkpt lat="44.30813" lon="6.15707">
        <ele>1252.7351074</ele>
        <time>2012-08-07T13:06:26Z</time>
      </trkpt>
      <trkpt lat="44.30859" lon="6.15698">
        <ele>1250.8125</ele>
        <time>2012-08-07T13:06:31Z</time>
      </trkpt>
      <trkpt lat="44.30865" lon="6.15681">
        <ele>1249.3706055</ele>
        <time>2012-08-07T13:06:34Z</time>
      </trkpt>
      <trkpt lat="44.30876" lon="6.1565">
        <ele>1248.4091797</ele>
        <time>2012-08-07T13:06:38Z</time>
      </trkpt>
      <trkpt lat="44.30885" lon="6.15628">
        <ele>1246.9672852</ele>
        <time>2012-08-07T13:06:41Z</time>
      </trkpt>
      <trkpt lat="44.30902" lon="6.15594">
        <ele>1245.0446777</ele>
        <time>2012-08-07T13:06:44Z</time>
      </trkpt>
      <trkpt lat="44.30915" lon="6.15569">
        <ele>1245.0446777</ele>
        <time>2012-08-07T13:06:47Z</time>
      </trkpt>
      <trkpt lat="44.30926" lon="6.15536">
        <ele>1243.6025391</ele>
        <time>2012-08-07T13:06:51Z</time>
      </trkpt>
      <trkpt lat="44.3093" lon="6.15515">
        <ele>1243.6025391</ele>
        <time>2012-08-07T13:06:53Z</time>
      </trkpt>
      <trkpt lat="44.30925" lon="6.15468">
        <ele>1242.6413574</ele>
        <time>2012-08-07T13:06:58Z</time>
      </trkpt>
      <trkpt lat="44.30898" lon="6.15393">
        <ele>1238.7961426</ele>
        <time>2012-08-07T13:07:07Z</time>
      </trkpt>
      <trkpt lat="44.3088" lon="6.15348">
        <ele>1236.873291</ele>
        <time>2012-08-07T13:07:13Z</time>
      </trkpt>
      <trkpt lat="44.30885" lon="6.1533">
        <ele>1236.873291</ele>
        <time>2012-08-07T13:07:19Z</time>
      </trkpt>
      <trkpt lat="44.3089" lon="6.15342">
        <ele>1235.9121094</ele>
        <time>2012-08-07T13:07:21Z</time>
      </trkpt>
      <trkpt lat="44.30897" lon="6.15354">
        <ele>1235.4313965</ele>
        <time>2012-08-07T13:07:23Z</time>
      </trkpt>
      <trkpt lat="44.30906" lon="6.1537">
        <ele>1233.0280762</ele>
        <time>2012-08-07T13:07:25Z</time>
      </trkpt>
      <trkpt lat="44.30925" lon="6.15391">
        <ele>1232.0668945</ele>
        <time>2012-08-07T13:07:28Z</time>
      </trkpt>
      <trkpt lat="44.30931" lon="6.15397">
        <ele>1231.1057129</ele>
        <time>2012-08-07T13:07:29Z</time>
      </trkpt>
      <trkpt lat="44.30953" lon="6.1541">
        <ele>1229.6635742</ele>
        <time>2012-08-07T13:07:32Z</time>
      </trkpt>
      <trkpt lat="44.30961" lon="6.15411">
        <ele>1228.7023926</ele>
        <time>2012-08-07T13:07:33Z</time>
      </trkpt>
      <trkpt lat="44.30977" lon="6.15411">
        <ele>1226.779541</ele>
        <time>2012-08-07T13:07:35Z</time>
      </trkpt>
      <trkpt lat="44.30994" lon="6.15412">
        <ele>1225.3374023</ele>
        <time>2012-08-07T13:07:37Z</time>
      </trkpt>
      <trkpt lat="44.3101" lon="6.15413">
        <ele>1223.8955078</ele>
        <time>2012-08-07T13:07:39Z</time>
      </trkpt>
      <trkpt lat="44.31027" lon="6.15414">
        <ele>1220.5310059</ele>
        <time>2012-08-07T13:07:41Z</time>
      </trkpt>
      <trkpt lat="44.31034" lon="6.15414">
        <ele>1220.5310059</ele>
        <time>2012-08-07T13:07:42Z</time>
      </trkpt>
      <trkpt lat="44.3104" lon="6.15414">
        <ele>1219.5698242</ele>
        <time>2012-08-07T13:07:43Z</time>
      </trkpt>
      <trkpt lat="44.31063" lon="6.15397">
        <ele>1216.685791</ele>
        <time>2012-08-07T13:07:48Z</time>
      </trkpt>
      <trkpt lat="44.31074" lon="6.15389">
        <ele>1214.7631836</ele>
        <time>2012-08-07T13:07:51Z</time>
      </trkpt>
      <trkpt lat="44.31085" lon="6.15396">
        <ele>1213.8017578</ele>
        <time>2012-08-07T13:07:53Z</time>
      </trkpt>
      <trkpt lat="44.31097" lon="6.15403">
        <ele>1212.8405762</ele>
        <time>2012-08-07T13:07:55Z</time>
      </trkpt>
      <trkpt lat="44.31115" lon="6.15416">
        <ele>1209.9562988</ele>
        <time>2012-08-07T13:07:58Z</time>
      </trkpt>
      <trkpt lat="44.31124" lon="6.1542">
        <ele>1208.5144043</ele>
        <time>2012-08-07T13:08:00Z</time>
      </trkpt>
      <trkpt lat="44.31126" lon="6.15422">
        <ele>1208.0339355</ele>
        <time>2012-08-07T13:08:01Z</time>
      </trkpt>
      <trkpt lat="44.31136" lon="6.15415">
        <ele>1206.111084</ele>
        <time>2012-08-07T13:08:05Z</time>
      </trkpt>
      <trkpt lat="44.31144" lon="6.15426">
        <ele>1205.1499023</ele>
        <time>2012-08-07T13:08:07Z</time>
      </trkpt>
      <trkpt lat="44.31145" lon="6.15392">
        <ele>1203.2272949</ele>
        <time>2012-08-07T13:08:09Z</time>
      </trkpt>
      <trkpt lat="44.31195" lon="6.15416">
        <ele>1199.862793</ele>
        <time>2012-08-07T13:08:11Z</time>
      </trkpt>
      <trkpt lat="44.31179" lon="6.15387">
        <ele>1200.3435059</ele>
        <time>2012-08-07T13:08:14Z</time>
      </trkpt>
      <trkpt lat="44.31208" lon="6.15378">
        <ele>1195.0559082</ele>
        <time>2012-08-07T13:08:16Z</time>
      </trkpt>
      <trkpt lat="44.31197" lon="6.15361">
        <ele>1197.9401855</ele>
        <time>2012-08-07T13:08:18Z</time>
      </trkpt>
      <trkpt lat="44.31204" lon="6.15348">
        <ele>1195.5366211</ele>
        <time>2012-08-07T13:08:21Z</time>
      </trkpt>
      <trkpt lat="44.31206" lon="6.15345">
        <ele>1195.0559082</ele>
        <time>2012-08-07T13:08:24Z</time>
      </trkpt>
      <trkpt lat="44.31201" lon="6.15354">
        <ele>1192.652832</ele>
        <time>2012-08-07T13:08:28Z</time>
      </trkpt>
      <trkpt lat="44.31192" lon="6.15368">
        <ele>1190.7299805</ele>
        <time>2012-08-07T13:08:31Z</time>
      </trkpt>
      <trkpt lat="44.31183" lon="6.15383">
        <ele>1191.6914063</ele>
        <time>2012-08-07T13:08:33Z</time>
      </trkpt>
      <trkpt lat="44.31163" lon="6.15406">
        <ele>1188.8076172</ele>
        <time>2012-08-07T13:08:37Z</time>
      </trkpt>
      <trkpt lat="44.31154" lon="6.15418">
        <ele>1188.3269043</ele>
        <time>2012-08-07T13:08:39Z</time>
      </trkpt>
      <trkpt lat="44.31138" lon="6.15427">
        <ele>1184.4816895</ele>
        <time>2012-08-07T13:08:43Z</time>
      </trkpt>
      <trkpt lat="44.31138" lon="6.15427">
        <ele>1184.4816895</ele>
        <time>2012-08-07T13:08:44Z</time>
      </trkpt>
      <trkpt lat="44.31138" lon="6.15427">
        <ele>1184.4816895</ele>
        <time>2012-08-07T13:08:45Z</time>
      </trkpt>
      <trkpt lat="44.31138" lon="6.15427">
        <ele>1184.0009766</ele>
        <time>2012-08-07T13:08:51Z</time>
      </trkpt>
      <trkpt lat="44.31138" lon="6.15427">
        <ele>1182.0783691</ele>
        <time>2012-08-07T13:08:53Z</time>
      </trkpt>
      <trkpt lat="44.31147" lon="6.15425">
        <ele>1179.6748047</ele>
        <time>2012-08-07T13:08:56Z</time>
      </trkpt>
      <trkpt lat="44.31164" lon="6.15404">
        <ele>1176.7910156</ele>
        <time>2012-08-07T13:09:01Z</time>
      </trkpt>
      <trkpt lat="44.31195" lon="6.15416">
        <ele>1175.348877</ele>
        <time>2012-08-07T13:09:03Z</time>
      </trkpt>
      <trkpt lat="44.31202" lon="6.15391">
        <ele>1171.984375</ele>
        <time>2012-08-07T13:09:06Z</time>
      </trkpt>
      <trkpt lat="44.31202" lon="6.15391">
        <ele>1171.984375</ele>
        <time>2012-08-07T13:09:07Z</time>
      </trkpt>
      <trkpt lat="44.31189" lon="6.15373">
        <ele>1171.0231934</ele>
        <time>2012-08-07T13:09:10Z</time>
      </trkpt>
      <trkpt lat="44.31194" lon="6.15366">
        <ele>1169.5812988</ele>
        <time>2012-08-07T13:09:13Z</time>
      </trkpt>
      <trkpt lat="44.31203" lon="6.15389">
        <ele>1167.6584473</ele>
        <time>2012-08-07T13:09:20Z</time>
      </trkpt>
      <trkpt lat="44.31211" lon="6.15411">
        <ele>1166.6972656</ele>
        <time>2012-08-07T13:09:23Z</time>
      </trkpt>
      <trkpt lat="44.31199" lon="6.15406">
        <ele>1164.7746582</ele>
        <time>2012-08-07T13:09:26Z</time>
      </trkpt>
      <trkpt lat="44.31201" lon="6.15399">
        <ele>1162.8518066</ele>
        <time>2012-08-07T13:09:30Z</time>
      </trkpt>
      <trkpt lat="44.31207" lon="6.1538">
        <ele>1161.890625</ele>
        <time>2012-08-07T13:09:32Z</time>
      </trkpt>
      <trkpt lat="44.31216" lon="6.15364">
        <ele>1158.5258789</ele>
        <time>2012-08-07T13:09:36Z</time>
      </trkpt>
      <trkpt lat="44.31218" lon="6.15361">
        <ele>1158.5258789</ele>
        <time>2012-08-07T13:09:37Z</time>
      </trkpt>
      <trkpt lat="44.31221" lon="6.15354">
        <ele>1160.4484863</ele>
        <time>2012-08-07T13:09:39Z</time>
      </trkpt>
      <trkpt lat="44.31201" lon="6.15332">
        <ele>1158.5258789</ele>
        <time>2012-08-07T13:09:42Z</time>
      </trkpt>
      <trkpt lat="44.31182" lon="6.15317">
        <ele>1155.6420898</ele>
        <time>2012-08-07T13:09:44Z</time>
      </trkpt>
      <trkpt lat="44.3118" lon="6.15314">
        <ele>1153.7194824</ele>
        <time>2012-08-07T13:09:45Z</time>
      </trkpt>
      <trkpt lat="44.31211" lon="6.15336">
        <ele>1153.2387695</ele>
        <time>2012-08-07T13:09:47Z</time>
      </trkpt>
      <trkpt lat="44.31218" lon="6.15323">
        <ele>1151.796875</ele>
        <time>2012-08-07T13:09:49Z</time>
      </trkpt>
      <trkpt lat="44.31226" lon="6.15234">
        <ele>1150.8354492</ele>
        <time>2012-08-07T13:09:51Z</time>
      </trkpt>
      <trkpt lat="44.31224" lon="6.15227">
        <ele>1146.5095215</ele>
        <time>2012-08-07T13:09:53Z</time>
      </trkpt>
      <trkpt lat="44.31219" lon="6.15214">
        <ele>1145.0673828</ele>
        <time>2012-08-07T13:09:54Z</time>
      </trkpt>
      <trkpt lat="44.31212" lon="6.15201">
        <ele>1142.6643066</ele>
        <time>2012-08-07T13:09:56Z</time>
      </trkpt>
      <trkpt lat="44.31213" lon="6.15202">
        <ele>1141.7028809</ele>
        <time>2012-08-07T13:10:00Z</time>
      </trkpt>
      <trkpt lat="44.31228" lon="6.15318">
        <ele>1144.1062012</ele>
        <time>2012-08-07T13:10:03Z</time>
      </trkpt>
      <trkpt lat="44.31228" lon="6.15318">
        <ele>1142.1835938</ele>
        <time>2012-08-07T13:10:05Z</time>
      </trkpt>
      <trkpt lat="44.31228" lon="6.15318">
        <ele>1140.2609863</ele>
        <time>2012-08-07T13:10:07Z</time>
      </trkpt>
      <trkpt lat="44.31228" lon="6.15318">
        <ele>1139.7802734</ele>
        <time>2012-08-07T13:10:09Z</time>
      </trkpt>
      <trkpt lat="44.31377" lon="6.15303">
        <ele>1137.857666</ele>
        <time>2012-08-07T13:10:12Z</time>
      </trkpt>
      <trkpt lat="44.31392" lon="6.15315">
        <ele>1134.973877</ele>
        <time>2012-08-07T13:10:14Z</time>
      </trkpt>
      <trkpt lat="44.31398" lon="6.15309">
        <ele>1130.6477051</ele>
        <time>2012-08-07T13:10:16Z</time>
      </trkpt>
      <trkpt lat="44.31408" lon="6.15301">
        <ele>1127.7636719</ele>
        <time>2012-08-07T13:10:19Z</time>
      </trkpt>
      <trkpt lat="44.31437" lon="6.15145">
        <ele>1126.3217773</ele>
        <time>2012-08-07T13:10:21Z</time>
      </trkpt>
      <trkpt lat="44.31438" lon="6.15121">
        <ele>1122.4765625</ele>
        <time>2012-08-07T13:10:23Z</time>
      </trkpt>
      <trkpt lat="44.31499" lon="6.15123">
        <ele>1122.4765625</ele>
        <time>2012-08-07T13:10:24Z</time>
      </trkpt>
      <trkpt lat="44.31501" lon="6.15119">
        <ele>1120.5539551</ele>
        <time>2012-08-07T13:10:25Z</time>
      </trkpt>
      <trkpt lat="44.31501" lon="6.15112">
        <ele>1119.1120605</ele>
        <time>2012-08-07T13:10:30Z</time>
      </trkpt>
      <trkpt lat="44.31499" lon="6.15107">
        <ele>1116.2280273</ele>
        <time>2012-08-07T13:10:33Z</time>
      </trkpt>
      <trkpt lat="44.31492" lon="6.14992">
        <ele>1112.8632813</ele>
        <time>2012-08-07T13:10:37Z</time>
      </trkpt>
      <trkpt lat="44.31492" lon="6.14992">
        <ele>1109.0180664</ele>
        <time>2012-08-07T13:10:39Z</time>
      </trkpt>
      <trkpt lat="44.31492" lon="6.14989">
        <ele>1109.0180664</ele>
        <time>2012-08-07T13:10:40Z</time>
      </trkpt>
      <trkpt lat="44.31578" lon="6.14946">
        <ele>1108.0568848</ele>
        <time>2012-08-07T13:10:44Z</time>
      </trkpt>
      <trkpt lat="44.31565" lon="6.1491">
        <ele>1101.3276367</ele>
        <time>2012-08-07T13:10:49Z</time>
      </trkpt>
      <trkpt lat="44.31563" lon="6.14904">
        <ele>1100.8469238</ele>
        <time>2012-08-07T13:10:51Z</time>
      </trkpt>
      <trkpt lat="44.31565" lon="6.14878">
        <ele>1096.0402832</ele>
        <time>2012-08-07T13:10:55Z</time>
      </trkpt>
      <trkpt lat="44.31575" lon="6.1485">
        <ele>1094.1176758</ele>
        <time>2012-08-07T13:10:58Z</time>
      </trkpt>
      <trkpt lat="44.31578" lon="6.14847">
        <ele>1095.0788574</ele>
        <time>2012-08-07T13:10:59Z</time>
      </trkpt>
      <trkpt lat="44.31589" lon="6.14837">
        <ele>1092.6757813</ele>
        <time>2012-08-07T13:11:01Z</time>
      </trkpt>
      <trkpt lat="44.31628" lon="6.14808">
        <ele>1088.8305664</ele>
        <time>2012-08-07T13:11:06Z</time>
      </trkpt>
      <trkpt lat="44.31634" lon="6.14803">
        <ele>1089.3110352</ele>
        <time>2012-08-07T13:11:07Z</time>
      </trkpt>
      <trkpt lat="44.31643" lon="6.14777">
        <ele>1086.9077148</ele>
        <time>2012-08-07T13:11:10Z</time>
      </trkpt>
      <trkpt lat="44.31669" lon="6.14736">
        <ele>1083.5429688</ele>
        <time>2012-08-07T13:11:13Z</time>
      </trkpt>
      <trkpt lat="44.31674" lon="6.1473">
        <ele>1081.6203613</ele>
        <time>2012-08-07T13:11:14Z</time>
      </trkpt>
      <trkpt lat="44.31683" lon="6.14715">
        <ele>1083.0622559</ele>
        <time>2012-08-07T13:11:17Z</time>
      </trkpt>
      <trkpt lat="44.31687" lon="6.14703">
        <ele>1081.1398926</ele>
        <time>2012-08-07T13:11:19Z</time>
      </trkpt>
      <trkpt lat="44.31687" lon="6.147">
        <ele>1078.2558594</ele>
        <time>2012-08-07T13:11:21Z</time>
      </trkpt>
      <trkpt lat="44.31749" lon="6.14691">
        <ele>1075.8525391</ele>
        <time>2012-08-07T13:11:26Z</time>
      </trkpt>
      <trkpt lat="44.31801" lon="6.14741">
        <ele>1075.3718262</ele>
        <time>2012-08-07T13:11:28Z</time>
      </trkpt>
      <trkpt lat="44.31801" lon="6.14741">
        <ele>1072.4880371</ele>
        <time>2012-08-07T13:11:30Z</time>
      </trkpt>
      <trkpt lat="44.31801" lon="6.14741">
        <ele>1071.0461426</ele>
        <time>2012-08-07T13:11:31Z</time>
      </trkpt>
      <trkpt lat="44.31811" lon="6.14733">
        <ele>1072.96875</ele>
        <time>2012-08-07T13:11:35Z</time>
      </trkpt>
      <trkpt lat="44.31816" lon="6.1473">
        <ele>1068.1621094</ele>
        <time>2012-08-07T13:11:36Z</time>
      </trkpt>
      <trkpt lat="44.31816" lon="6.1473">
        <ele>1069.1235352</ele>
        <time>2012-08-07T13:11:37Z</time>
      </trkpt>
      <trkpt lat="44.31816" lon="6.1473">
        <ele>1069.1235352</ele>
        <time>2012-08-07T13:11:38Z</time>
      </trkpt>
      <trkpt lat="44.31813" lon="6.14732">
        <ele>1066.7199707</ele>
        <time>2012-08-07T13:11:42Z</time>
      </trkpt>
      <trkpt lat="44.31812" lon="6.14564">
        <ele>1065.2780762</ele>
        <time>2012-08-07T13:11:45Z</time>
      </trkpt>
      <trkpt lat="44.31828" lon="6.14543">
        <ele>1061.9135742</ele>
        <time>2012-08-07T13:11:48Z</time>
      </trkpt>
      <trkpt lat="44.31848" lon="6.14507">
        <ele>1059.5102539</ele>
        <time>2012-08-07T13:11:52Z</time>
      </trkpt>
      <trkpt lat="44.31879" lon="6.14456">
        <ele>1055.6650391</ele>
        <time>2012-08-07T13:11:57Z</time>
      </trkpt>
      <trkpt lat="44.31887" lon="6.14441">
        <ele>1054.7036133</ele>
        <time>2012-08-07T13:11:59Z</time>
      </trkpt>
      <trkpt lat="44.31894" lon="6.14427">
        <ele>1051.8195801</ele>
        <time>2012-08-07T13:12:01Z</time>
      </trkpt>
      <trkpt lat="44.31901" lon="6.14408">
        <ele>1053.2617188</ele>
        <time>2012-08-07T13:12:03Z</time>
      </trkpt>
      <trkpt lat="44.3191" lon="6.14393">
        <ele>1050.8581543</ele>
        <time>2012-08-07T13:12:05Z</time>
      </trkpt>
      <trkpt lat="44.31927" lon="6.1437">
        <ele>1048.9355469</ele>
        <time>2012-08-07T13:12:08Z</time>
      </trkpt>
      <trkpt lat="44.3194" lon="6.14337">
        <ele>1048.454834</ele>
        <time>2012-08-07T13:12:12Z</time>
      </trkpt>
      <trkpt lat="44.31946" lon="6.14322">
        <ele>1047.0129395</ele>
        <time>2012-08-07T13:12:14Z</time>
      </trkpt>
      <trkpt lat="44.31943" lon="6.1433">
        <ele>1047.4936523</ele>
        <time>2012-08-07T13:12:19Z</time>
      </trkpt>
      <trkpt lat="44.31938" lon="6.14344">
        <ele>1044.1291504</ele>
        <time>2012-08-07T13:12:22Z</time>
      </trkpt>
      <trkpt lat="44.31931" lon="6.14363">
        <ele>1042.6872559</ele>
        <time>2012-08-07T13:12:24Z</time>
      </trkpt>
      <trkpt lat="44.31921" lon="6.14379">
        <ele>1045.5710449</ele>
        <time>2012-08-07T13:12:26Z</time>
      </trkpt>
      <trkpt lat="44.31915" lon="6.14387">
        <ele>1041.2451172</ele>
        <time>2012-08-07T13:12:27Z</time>
      </trkpt>
      <trkpt lat="44.31911" lon="6.14393">
        <ele>1042.206543</ele>
        <time>2012-08-07T13:12:28Z</time>
      </trkpt>
      <trkpt lat="44.31881" lon="6.14451">
        <ele>1038.842041</ele>
        <time>2012-08-07T13:12:35Z</time>
      </trkpt>
      <trkpt lat="44.31873" lon="6.14466">
        <ele>1038.842041</ele>
        <time>2012-08-07T13:12:36Z</time>
      </trkpt>
      <trkpt lat="44.31855" lon="6.14494">
        <ele>1037.3999023</ele>
        <time>2012-08-07T13:12:41Z</time>
      </trkpt>
      <trkpt lat="44.31841" lon="6.14519">
        <ele>1034.0351563</ele>
        <time>2012-08-07T13:12:45Z</time>
      </trkpt>
      <trkpt lat="44.31831" lon="6.14537">
        <ele>1032.1125488</ele>
        <time>2012-08-07T13:12:47Z</time>
      </trkpt>
      <trkpt lat="44.31814" lon="6.14562">
        <ele>1032.1125488</ele>
        <time>2012-08-07T13:12:49Z</time>
      </trkpt>
      <trkpt lat="44.31797" lon="6.14585">
        <ele>1029.2285156</ele>
        <time>2012-08-07T13:12:52Z</time>
      </trkpt>
      <trkpt lat="44.3179" lon="6.14595">
        <ele>1026.8254395</ele>
        <time>2012-08-07T13:12:54Z</time>
      </trkpt>
      <trkpt lat="44.31784" lon="6.14605">
        <ele>1024.902832</ele>
        <time>2012-08-07T13:12:56Z</time>
      </trkpt>
      <trkpt lat="44.31782" lon="6.1461">
        <ele>1021.5380859</ele>
        <time>2012-08-07T13:13:00Z</time>
      </trkpt>
      <trkpt lat="44.31782" lon="6.1461">
        <ele>1021.5380859</ele>
        <time>2012-08-07T13:13:01Z</time>
      </trkpt>
      <trkpt lat="44.31782" lon="6.1461">
        <ele>1018.1733398</ele>
        <time>2012-08-07T13:13:05Z</time>
      </trkpt>
      <trkpt lat="44.31782" lon="6.1461">
        <ele>1019.1347656</ele>
        <time>2012-08-07T13:13:08Z</time>
      </trkpt>
      <trkpt lat="44.31786" lon="6.14601">
        <ele>1015.2895508</ele>
        <time>2012-08-07T13:13:12Z</time>
      </trkpt>
      <trkpt lat="44.3179" lon="6.14595">
        <ele>1015.2895508</ele>
        <time>2012-08-07T13:13:13Z</time>
      </trkpt>
      <trkpt lat="44.31797" lon="6.14584">
        <ele>1012.4055176</ele>
        <time>2012-08-07T13:13:15Z</time>
      </trkpt>
      <trkpt lat="44.31815" lon="6.14562">
        <ele>1009.5217285</ele>
        <time>2012-08-07T13:13:17Z</time>
      </trkpt>
      <trkpt lat="44.31831" lon="6.14537">
        <ele>1005.6765137</ele>
        <time>2012-08-07T13:13:18Z</time>
      </trkpt>
      <trkpt lat="44.31848" lon="6.14506">
        <ele>1004.2346191</ele>
        <time>2012-08-07T13:13:20Z</time>
      </trkpt>
      <trkpt lat="44.31872" lon="6.14468">
        <ele>1002.7922363</ele>
        <time>2012-08-07T13:13:24Z</time>
      </trkpt>
      <trkpt lat="44.3189" lon="6.14434">
        <ele>999.9084473</ele>
        <time>2012-08-07T13:13:26Z</time>
      </trkpt>
      <trkpt lat="44.31901" lon="6.14407">
        <ele>996.5439453</ele>
        <time>2012-08-07T13:13:28Z</time>
      </trkpt>
      <trkpt lat="44.31904" lon="6.14402">
        <ele>996.5439453</ele>
        <time>2012-08-07T13:13:29Z</time>
      </trkpt>
      <trkpt lat="44.31917" lon="6.14385">
        <ele>995.1018066</ele>
        <time>2012-08-07T13:13:31Z</time>
      </trkpt>
      <trkpt lat="44.31935" lon="6.14353">
        <ele>991.7373047</ele>
        <time>2012-08-07T13:13:32Z</time>
      </trkpt>
      <trkpt lat="44.31939" lon="6.1434">
        <ele>991.7373047</ele>
        <time>2012-08-07T13:13:33Z</time>
      </trkpt>
      <trkpt lat="44.31948" lon="6.14318">
        <ele>987.8918457</ele>
        <time>2012-08-07T13:13:35Z</time>
      </trkpt>
      <trkpt lat="44.31952" lon="6.14307">
        <ele>987.8918457</ele>
        <time>2012-08-07T13:13:36Z</time>
      </trkpt>
      <trkpt lat="44.31966" lon="6.14282">
        <ele>985.0080566</ele>
        <time>2012-08-07T13:13:38Z</time>
      </trkpt>
      <trkpt lat="44.3199" lon="6.14237">
        <ele>982.1240234</ele>
        <time>2012-08-07T13:13:42Z</time>
      </trkpt>
      <trkpt lat="44.31992" lon="6.14229">
        <ele>982.1240234</ele>
        <time>2012-08-07T13:13:43Z</time>
      </trkpt>
      <trkpt lat="44.31971" lon="6.14275">
        <ele>980.201416</ele>
        <time>2012-08-07T13:13:45Z</time>
      </trkpt>
      <trkpt lat="44.31999" lon="6.14191">
        <ele>979.7207031</ele>
        <time>2012-08-07T13:13:47Z</time>
      </trkpt>
      <trkpt lat="44.32015" lon="6.14174">
        <ele>976.3562012</ele>
        <time>2012-08-07T13:13:50Z</time>
      </trkpt>
      <trkpt lat="44.32029" lon="6.1416">
        <ele>974.9143066</ele>
        <time>2012-08-07T13:13:52Z</time>
      </trkpt>
      <trkpt lat="44.32035" lon="6.14157">
        <ele>971.5493164</ele>
        <time>2012-08-07T13:13:53Z</time>
      </trkpt>
      <trkpt lat="44.3204" lon="6.14153">
        <ele>971.5493164</ele>
        <time>2012-08-07T13:13:54Z</time>
      </trkpt>
      <trkpt lat="44.32047" lon="6.14148">
        <ele>972.0302734</ele>
        <time>2012-08-07T13:13:55Z</time>
      </trkpt>
      <trkpt lat="44.32062" lon="6.1413">
        <ele>968.6655273</ele>
        <time>2012-08-07T13:13:57Z</time>
      </trkpt>
      <trkpt lat="44.32067" lon="6.14119">
        <ele>971.0688477</ele>
        <time>2012-08-07T13:13:59Z</time>
      </trkpt>
      <trkpt lat="44.32109" lon="6.14131">
        <ele>969.1462402</ele>
        <time>2012-08-07T13:14:01Z</time>
      </trkpt>
      <trkpt lat="44.32122" lon="6.14121">
        <ele>967.2236328</ele>
        <time>2012-08-07T13:14:03Z</time>
      </trkpt>
      <trkpt lat="44.32127" lon="6.14094">
        <ele>964.8203125</ele>
        <time>2012-08-07T13:14:06Z</time>
      </trkpt>
      <trkpt lat="44.32143" lon="6.14068">
        <ele>961.9365234</ele>
        <time>2012-08-07T13:14:09Z</time>
      </trkpt>
      <trkpt lat="44.32161" lon="6.14034">
        <ele>959.5332031</ele>
        <time>2012-08-07T13:14:13Z</time>
      </trkpt>
      <trkpt lat="44.32164" lon="6.14004">
        <ele>956.168457</ele>
        <time>2012-08-07T13:14:16Z</time>
      </trkpt>
      <trkpt lat="44.32167" lon="6.13995">
        <ele>956.168457</ele>
        <time>2012-08-07T13:14:17Z</time>
      </trkpt>
      <trkpt lat="44.3217" lon="6.13986">
        <ele>953.2844238</ele>
        <time>2012-08-07T13:14:18Z</time>
      </trkpt>
      <trkpt lat="44.32174" lon="6.13971">
        <ele>951.3618164</ele>
        <time>2012-08-07T13:14:20Z</time>
      </trkpt>
      <trkpt lat="44.32183" lon="6.13956">
        <ele>948.4777832</ele>
        <time>2012-08-07T13:14:22Z</time>
      </trkpt>
      <trkpt lat="44.32188" lon="6.13937">
        <ele>945.5939941</ele>
        <time>2012-08-07T13:14:26Z</time>
      </trkpt>
      <trkpt lat="44.32181" lon="6.13932">
        <ele>945.5939941</ele>
        <time>2012-08-07T13:14:27Z</time>
      </trkpt>
      <trkpt lat="44.32163" lon="6.13917">
        <ele>947.9973145</ele>
        <time>2012-08-07T13:14:29Z</time>
      </trkpt>
      <trkpt lat="44.32148" lon="6.13892">
        <ele>942.7102051</ele>
        <time>2012-08-07T13:14:33Z</time>
      </trkpt>
      <trkpt lat="44.32146" lon="6.13886">
        <ele>942.7102051</ele>
        <time>2012-08-07T13:14:34Z</time>
      </trkpt>
      <trkpt lat="44.32143" lon="6.13874">
        <ele>940.7873535</ele>
        <time>2012-08-07T13:14:36Z</time>
      </trkpt>
      <trkpt lat="44.3213" lon="6.13829">
        <ele>936.4614258</ele>
        <time>2012-08-07T13:14:44Z</time>
      </trkpt>
      <trkpt lat="44.32129" lon="6.13823">
        <ele>936.4614258</ele>
        <time>2012-08-07T13:14:45Z</time>
      </trkpt>
      <trkpt lat="44.32124" lon="6.13806">
        <ele>934.5388184</ele>
        <time>2012-08-07T13:14:48Z</time>
      </trkpt>
      <trkpt lat="44.32121" lon="6.13795">
        <ele>933.5773926</ele>
        <time>2012-08-07T13:14:50Z</time>
      </trkpt>
      <trkpt lat="44.32182" lon="6.1382">
        <ele>931.1743164</ele>
        <time>2012-08-07T13:14:54Z</time>
      </trkpt>
      <trkpt lat="44.32319" lon="6.13836">
        <ele>928.7709961</ele>
        <time>2012-08-07T13:14:57Z</time>
      </trkpt>
      <trkpt lat="44.3235" lon="6.13826">
        <ele>927.8095703</ele>
        <time>2012-08-07T13:15:02Z</time>
      </trkpt>
      <trkpt lat="44.32419" lon="6.13903">
        <ele>923.4836426</ele>
        <time>2012-08-07T13:15:16Z</time>
      </trkpt>
      <trkpt lat="44.32434" lon="6.13908">
        <ele>922.0415039</ele>
        <time>2012-08-07T13:15:18Z</time>
      </trkpt>
      <trkpt lat="44.32464" lon="6.13891">
        <ele>921.0803223</ele>
        <time>2012-08-07T13:15:20Z</time>
      </trkpt>
      <trkpt lat="44.32492" lon="6.13895">
        <ele>918.677002</ele>
        <time>2012-08-07T13:15:25Z</time>
      </trkpt>
      <trkpt lat="44.32505" lon="6.1391">
        <ele>916.7543945</ele>
        <time>2012-08-07T13:15:29Z</time>
      </trkpt>
      <trkpt lat="44.32496" lon="6.13784">
        <ele>914.8317871</ele>
        <time>2012-08-07T13:15:32Z</time>
      </trkpt>
      <trkpt lat="44.32496" lon="6.13784">
        <ele>913.8703613</ele>
        <time>2012-08-07T13:15:33Z</time>
      </trkpt>
      <trkpt lat="44.32565" lon="6.13921">
        <ele>912.9091797</ele>
        <time>2012-08-07T13:15:36Z</time>
      </trkpt>
      <trkpt lat="44.32578" lon="6.13923">
        <ele>910.9865723</ele>
        <time>2012-08-07T13:15:40Z</time>
      </trkpt>
      <trkpt lat="44.32584" lon="6.13929">
        <ele>909.0639648</ele>
        <time>2012-08-07T13:15:42Z</time>
      </trkpt>
      <trkpt lat="44.326" lon="6.13941">
        <ele>909.0639648</ele>
        <time>2012-08-07T13:15:45Z</time>
      </trkpt>
      <trkpt lat="44.3261" lon="6.13949">
        <ele>907.6218262</ele>
        <time>2012-08-07T13:15:48Z</time>
      </trkpt>
      <trkpt lat="44.32611" lon="6.1395">
        <ele>906.6604004</ele>
        <time>2012-08-07T13:15:49Z</time>
      </trkpt>
      <trkpt lat="44.32621" lon="6.13958">
        <ele>905.6992188</ele>
        <time>2012-08-07T13:15:52Z</time>
      </trkpt>
      <trkpt lat="44.32638" lon="6.1397">
        <ele>904.2573242</ele>
        <time>2012-08-07T13:15:55Z</time>
      </trkpt>
      <trkpt lat="44.32645" lon="6.13975">
        <ele>903.2958984</ele>
        <time>2012-08-07T13:15:57Z</time>
      </trkpt>
      <trkpt lat="44.32653" lon="6.13981">
        <ele>901.373291</ele>
        <time>2012-08-07T13:15:59Z</time>
      </trkpt>
      <trkpt lat="44.32713" lon="6.13937">
        <ele>899.4506836</ele>
        <time>2012-08-07T13:16:02Z</time>
      </trkpt>
      <trkpt lat="44.32729" lon="6.13949">
        <ele>897.0473633</ele>
        <time>2012-08-07T13:16:04Z</time>
      </trkpt>
      <trkpt lat="44.32751" lon="6.13965">
        <ele>895.1247559</ele>
        <time>2012-08-07T13:16:08Z</time>
      </trkpt>
      <trkpt lat="44.32699" lon="6.13932">
        <ele>893.2021484</ele>
        <time>2012-08-07T13:16:13Z</time>
      </trkpt>
      <trkpt lat="44.327" lon="6.13923">
        <ele>891.7600098</ele>
        <time>2012-08-07T13:16:14Z</time>
      </trkpt>
      <trkpt lat="44.327" lon="6.13919">
        <ele>890.3181152</ele>
        <time>2012-08-07T13:16:16Z</time>
      </trkpt>
      <trkpt lat="44.327" lon="6.13917">
        <ele>888.8762207</ele>
        <time>2012-08-07T13:16:18Z</time>
      </trkpt>
      <trkpt lat="44.32699" lon="6.13914">
        <ele>887.9147949</ele>
        <time>2012-08-07T13:16:22Z</time>
      </trkpt>
      <trkpt lat="44.32698" lon="6.13908">
        <ele>885.0310059</ele>
        <time>2012-08-07T13:16:24Z</time>
      </trkpt>
      <trkpt lat="44.32689" lon="6.13833">
        <ele>883.5888672</ele>
        <time>2012-08-07T13:16:27Z</time>
      </trkpt>
      <trkpt lat="44.32743" lon="6.13717">
        <ele>882.6276855</ele>
        <time>2012-08-07T13:16:29Z</time>
      </trkpt>
      <trkpt lat="44.32807" lon="6.13776">
        <ele>879.2629395</ele>
        <time>2012-08-07T13:16:32Z</time>
      </trkpt>
      <trkpt lat="44.32763" lon="6.13706">
        <ele>878.7824707</ele>
        <time>2012-08-07T13:16:34Z</time>
      </trkpt>
      <trkpt lat="44.32784" lon="6.13692">
        <ele>875.4174805</ele>
        <time>2012-08-07T13:16:39Z</time>
      </trkpt>
      <trkpt lat="44.328" lon="6.13673">
        <ele>873.9755859</ele>
        <time>2012-08-07T13:16:42Z</time>
      </trkpt>
      <trkpt lat="44.3281" lon="6.1366">
        <ele>870.611084</ele>
        <time>2012-08-07T13:16:44Z</time>
      </trkpt>
      <trkpt lat="44.32814" lon="6.13655">
        <ele>871.5722656</ele>
        <time>2012-08-07T13:16:45Z</time>
      </trkpt>
      <trkpt lat="44.32815" lon="6.13654">
        <ele>871.5722656</ele>
        <time>2012-08-07T13:16:46Z</time>
      </trkpt>
      <trkpt lat="44.32822" lon="6.13642">
        <ele>867.7270508</ele>
        <time>2012-08-07T13:16:48Z</time>
      </trkpt>
      <trkpt lat="44.32831" lon="6.13627">
        <ele>865.8046875</ele>
        <time>2012-08-07T13:16:51Z</time>
      </trkpt>
      <trkpt lat="44.32956" lon="6.1366">
        <ele>860.0366211</ele>
        <time>2012-08-07T13:16:56Z</time>
      </trkpt>
      <trkpt lat="44.32956" lon="6.1366">
        <ele>860.0366211</ele>
        <time>2012-08-07T13:16:57Z</time>
      </trkpt>
      <trkpt lat="44.32921" lon="6.13569">
        <ele>854.7492676</ele>
        <time>2012-08-07T13:17:00Z</time>
      </trkpt>
      <trkpt lat="44.32925" lon="6.13554">
        <ele>853.307373</ele>
        <time>2012-08-07T13:17:02Z</time>
      </trkpt>
      <trkpt lat="44.32946" lon="6.13609">
        <ele>852.8266602</ele>
        <time>2012-08-07T13:17:06Z</time>
      </trkpt>
      <trkpt lat="44.33135" lon="6.13552">
        <ele>848.5007324</ele>
        <time>2012-08-07T13:17:08Z</time>
      </trkpt>
      <trkpt lat="44.33134" lon="6.13547">
        <ele>848.5007324</ele>
        <time>2012-08-07T13:17:09Z</time>
      </trkpt>
      <trkpt lat="44.33134" lon="6.13542">
        <ele>846.5783691</ele>
        <time>2012-08-07T13:17:10Z</time>
      </trkpt>
      <trkpt lat="44.33101" lon="6.13402">
        <ele>848.0202637</ele>
        <time>2012-08-07T13:17:13Z</time>
      </trkpt>
      <trkpt lat="44.33101" lon="6.13402">
        <ele>848.5007324</ele>
        <time>2012-08-07T13:17:17Z</time>
      </trkpt>
      <trkpt lat="44.32988" lon="6.13399">
        <ele>846.5783691</ele>
        <time>2012-08-07T13:17:23Z</time>
      </trkpt>
      <trkpt lat="44.3299" lon="6.13376">
        <ele>846.0976563</ele>
        <time>2012-08-07T13:17:25Z</time>
      </trkpt>
      <trkpt lat="44.32981" lon="6.13336">
        <ele>846.5783691</ele>
        <time>2012-08-07T13:17:30Z</time>
      </trkpt>
      <trkpt lat="44.32961" lon="6.1328">
        <ele>845.6169434</ele>
        <time>2012-08-07T13:17:40Z</time>
      </trkpt>
      <trkpt lat="44.32944" lon="6.13198">
        <ele>845.1362305</ele>
        <time>2012-08-07T13:17:55Z</time>
      </trkpt>
      <trkpt lat="44.32942" lon="6.13186">
        <ele>847.5395508</ele>
        <time>2012-08-07T13:17:59Z</time>
      </trkpt>
      <trkpt lat="44.32938" lon="6.13144">
        <ele>848.0202637</ele>
        <time>2012-08-07T13:18:14Z</time>
      </trkpt>
      <trkpt lat="44.32934" lon="6.13105">
        <ele>850.423584</ele>
        <time>2012-08-07T13:18:29Z</time>
      </trkpt>
      <trkpt lat="44.32948" lon="6.13096">
        <ele>850.423584</ele>
        <time>2012-08-07T13:18:37Z</time>
      </trkpt>
      <trkpt lat="44.32966" lon="6.13109">
        <ele>851.3847656</ele>
        <time>2012-08-07T13:18:48Z</time>
      </trkpt>
      <trkpt lat="44.32985" lon="6.13126">
        <ele>852.8266602</ele>
        <time>2012-08-07T13:19:01Z</time>
      </trkpt>
      <trkpt lat="44.33008" lon="6.13147">
        <ele>852.8266602</ele>
        <time>2012-08-07T13:19:15Z</time>
      </trkpt>
      <trkpt lat="44.33042" lon="6.13178">
        <ele>854.2687988</ele>
        <time>2012-08-07T13:19:34Z</time>
      </trkpt>
      <trkpt lat="44.33073" lon="6.13224">
        <ele>853.7880859</ele>
        <time>2012-08-07T13:19:53Z</time>
      </trkpt>
      <trkpt lat="44.33076" lon="6.1323">
        <ele>855.2299805</ele>
        <time>2012-08-07T13:19:55Z</time>
      </trkpt>
      <trkpt lat="44.33084" lon="6.13246">
        <ele>854.7492676</ele>
        <time>2012-08-07T13:20:01Z</time>
      </trkpt>
      <trkpt lat="44.33088" lon="6.13253">
        <ele>854.7492676</ele>
        <time>2012-08-07T13:20:13Z</time>
      </trkpt>
      <trkpt lat="44.33088" lon="6.13253">
        <ele>854.7492676</ele>
        <time>2012-08-07T13:20:40Z</time>
      </trkpt>
    </trkseg>
  </trk>
</gpx>